<?xml version="1.0" encoding="UTF-8" standalone="no" ?>
<gpx xmlns="http://www.topografix.com/GPX/1/1" xmlns:xsi="http://www.w3.org/2001/XMLSchema-instance" xsi:schemaLocation="http://www.topografix.com/GPX/1/1 http://www.topografix.com/GPX/1/1/gpx.xsd" version="1.1" creator="VisuGPX - https://www.visugpx.com">
  <metadata>
    <name>Sciecq crématorium (ouest) 9km</name>
  </metadata>
  <trk>
    <name><![CDATA[Sciecq crématorium (ouest) 9km_1]]></name>
    <trkseg>
      <trkpt lat="46.35609" lon="-0.48044">
        <ele>51.3</ele>
        <time>2014-01-09T14:09:28Z</time>
      </trkpt>
      <trkpt lat="46.35609" lon="-0.48043">
        <ele>51.3</ele>
        <time>2014-01-09T14:09:33Z</time>
      </trkpt>
      <trkpt lat="46.35606" lon="-0.48042">
        <ele>51.3</ele>
        <time>2014-01-09T14:09:38Z</time>
      </trkpt>
      <trkpt lat="46.35605" lon="-0.48041">
        <ele>51.3</ele>
        <time>2014-01-09T14:09:43Z</time>
      </trkpt>
      <trkpt lat="46.35604" lon="-0.4804">
        <ele>51.3</ele>
        <time>2014-01-09T14:09:48Z</time>
      </trkpt>
      <trkpt lat="46.35601" lon="-0.48037">
        <ele>49.84435</ele>
        <time>2014-01-09T14:09:53Z</time>
      </trkpt>
      <trkpt lat="46.35601" lon="-0.48037">
        <ele>49.84435</ele>
        <time>2014-01-09T14:09:58Z</time>
      </trkpt>
      <trkpt lat="46.35601" lon="-0.48035">
        <ele>49.84435</ele>
        <time>2014-01-09T14:10:03Z</time>
      </trkpt>
      <trkpt lat="46.35601" lon="-0.48035">
        <ele>49.84435</ele>
        <time>2014-01-09T14:10:13Z</time>
      </trkpt>
      <trkpt lat="46.35601" lon="-0.48035">
        <ele>49.84435</ele>
        <time>2014-01-09T14:10:23Z</time>
      </trkpt>
      <trkpt lat="46.35599" lon="-0.48035">
        <ele>49.84435</ele>
        <time>2014-01-09T14:10:28Z</time>
      </trkpt>
      <trkpt lat="46.35597" lon="-0.48033">
        <ele>49.84435</ele>
        <time>2014-01-09T14:10:33Z</time>
      </trkpt>
      <trkpt lat="46.35594" lon="-0.48031">
        <ele>49.093655</ele>
        <time>2014-01-09T14:10:43Z</time>
      </trkpt>
      <trkpt lat="46.35589" lon="-0.48031">
        <ele>49.093655</ele>
        <time>2014-01-09T14:10:48Z</time>
      </trkpt>
      <trkpt lat="46.35582" lon="-0.48025">
        <ele>50.14553</ele>
        <time>2014-01-09T14:10:53Z</time>
      </trkpt>
      <trkpt lat="46.35575" lon="-0.48021">
        <ele>50.14553</ele>
        <time>2014-01-09T14:10:58Z</time>
      </trkpt>
      <trkpt lat="46.35571" lon="-0.4802">
        <ele>52.027916</ele>
        <time>2014-01-09T14:11:03Z</time>
      </trkpt>
      <trkpt lat="46.3557" lon="-0.48019">
        <ele>52.027916</ele>
        <time>2014-01-09T14:11:08Z</time>
      </trkpt>
      <trkpt lat="46.35567" lon="-0.48021">
        <ele>52.027916</ele>
        <time>2014-01-09T14:11:13Z</time>
      </trkpt>
      <trkpt lat="46.35567" lon="-0.48022">
        <ele>52.027916</ele>
        <time>2014-01-09T14:11:18Z</time>
      </trkpt>
      <trkpt lat="46.35569" lon="-0.48023">
        <ele>52.027916</ele>
        <time>2014-01-09T14:11:23Z</time>
      </trkpt>
      <trkpt lat="46.35569" lon="-0.48023">
        <ele>52.027916</ele>
        <time>2014-01-09T14:11:28Z</time>
      </trkpt>
      <trkpt lat="46.35572" lon="-0.48031">
        <ele>54.027676</ele>
        <time>2014-01-09T14:11:43Z</time>
      </trkpt>
      <trkpt lat="46.35573" lon="-0.48037">
        <ele>54.027676</ele>
        <time>2014-01-09T14:11:48Z</time>
      </trkpt>
      <trkpt lat="46.35574" lon="-0.48041">
        <ele>54.027676</ele>
        <time>2014-01-09T14:11:53Z</time>
      </trkpt>
      <trkpt lat="46.35577" lon="-0.48049">
        <ele>55.47557</ele>
        <time>2014-01-09T14:11:58Z</time>
      </trkpt>
      <trkpt lat="46.3558" lon="-0.48055">
        <ele>55.47557</ele>
        <time>2014-01-09T14:12:03Z</time>
      </trkpt>
      <trkpt lat="46.35582" lon="-0.4806">
        <ele>56.629566</ele>
        <time>2014-01-09T14:12:08Z</time>
      </trkpt>
      <trkpt lat="46.35586" lon="-0.48065">
        <ele>56.629566</ele>
        <time>2014-01-09T14:12:13Z</time>
      </trkpt>
      <trkpt lat="46.35592" lon="-0.48068">
        <ele>56.98156</ele>
        <time>2014-01-09T14:12:18Z</time>
      </trkpt>
      <trkpt lat="46.35597" lon="-0.4807">
        <ele>56.98156</ele>
        <time>2014-01-09T14:12:23Z</time>
      </trkpt>
      <trkpt lat="46.35603" lon="-0.48076">
        <ele>57.648125</ele>
        <time>2014-01-09T14:12:28Z</time>
      </trkpt>
      <trkpt lat="46.35608" lon="-0.48078">
        <ele>57.648125</ele>
        <time>2014-01-09T14:12:33Z</time>
      </trkpt>
      <trkpt lat="46.35611" lon="-0.48084">
        <ele>57.939774</ele>
        <time>2014-01-09T14:12:38Z</time>
      </trkpt>
      <trkpt lat="46.35614" lon="-0.4809">
        <ele>57.939774</ele>
        <time>2014-01-09T14:12:43Z</time>
      </trkpt>
      <trkpt lat="46.35616" lon="-0.48096">
        <ele>58.10703</ele>
        <time>2014-01-09T14:12:48Z</time>
      </trkpt>
      <trkpt lat="46.35615" lon="-0.481">
        <ele>58.10703</ele>
        <time>2014-01-09T14:12:53Z</time>
      </trkpt>
      <trkpt lat="46.35618" lon="-0.48105">
        <ele>58.10703</ele>
        <time>2014-01-09T14:12:58Z</time>
      </trkpt>
      <trkpt lat="46.35619" lon="-0.4811">
        <ele>57.794693</ele>
        <time>2014-01-09T14:13:03Z</time>
      </trkpt>
      <trkpt lat="46.35619" lon="-0.48111">
        <ele>57.794693</ele>
        <time>2014-01-09T14:13:08Z</time>
      </trkpt>
      <trkpt lat="46.35619" lon="-0.48111">
        <ele>57.794693</ele>
        <time>2014-01-09T14:13:13Z</time>
      </trkpt>
      <trkpt lat="46.35618" lon="-0.48111">
        <ele>57.794693</ele>
        <time>2014-01-09T14:13:18Z</time>
      </trkpt>
      <trkpt lat="46.35618" lon="-0.48118">
        <ele>57.794693</ele>
        <time>2014-01-09T14:13:28Z</time>
      </trkpt>
      <trkpt lat="46.35617" lon="-0.48125">
        <ele>57.33201</ele>
        <time>2014-01-09T14:13:33Z</time>
      </trkpt>
      <trkpt lat="46.35615" lon="-0.48133">
        <ele>57.33201</ele>
        <time>2014-01-09T14:13:38Z</time>
      </trkpt>
      <trkpt lat="46.35612" lon="-0.48141">
        <ele>56.891487</ele>
        <time>2014-01-09T14:13:43Z</time>
      </trkpt>
      <trkpt lat="46.35615" lon="-0.4815">
        <ele>56.891487</ele>
        <time>2014-01-09T14:13:48Z</time>
      </trkpt>
      <trkpt lat="46.35614" lon="-0.48158">
        <ele>56.314632</ele>
        <time>2014-01-09T14:13:53Z</time>
      </trkpt>
      <trkpt lat="46.35615" lon="-0.48164">
        <ele>56.314632</ele>
        <time>2014-01-09T14:13:58Z</time>
      </trkpt>
      <trkpt lat="46.35617" lon="-0.48173">
        <ele>55.541756</ele>
        <time>2014-01-09T14:14:03Z</time>
      </trkpt>
      <trkpt lat="46.35618" lon="-0.48179">
        <ele>55.541756</ele>
        <time>2014-01-09T14:14:08Z</time>
      </trkpt>
      <trkpt lat="46.3562" lon="-0.48187">
        <ele>54.798702</ele>
        <time>2014-01-09T14:14:13Z</time>
      </trkpt>
      <trkpt lat="46.35622" lon="-0.48195">
        <ele>54.798702</ele>
        <time>2014-01-09T14:14:18Z</time>
      </trkpt>
      <trkpt lat="46.35623" lon="-0.48203">
        <ele>54.09014</ele>
        <time>2014-01-09T14:14:23Z</time>
      </trkpt>
      <trkpt lat="46.35623" lon="-0.48211">
        <ele>54.09014</ele>
        <time>2014-01-09T14:14:28Z</time>
      </trkpt>
      <trkpt lat="46.35625" lon="-0.48219">
        <ele>53.32265</ele>
        <time>2014-01-09T14:14:33Z</time>
      </trkpt>
      <trkpt lat="46.35626" lon="-0.48228">
        <ele>53.32265</ele>
        <time>2014-01-09T14:14:38Z</time>
      </trkpt>
      <trkpt lat="46.3563" lon="-0.48235">
        <ele>52.947052</ele>
        <time>2014-01-09T14:14:43Z</time>
      </trkpt>
      <trkpt lat="46.35631" lon="-0.48243">
        <ele>52.947052</ele>
        <time>2014-01-09T14:14:48Z</time>
      </trkpt>
      <trkpt lat="46.35632" lon="-0.48253">
        <ele>52.48767</ele>
        <time>2014-01-09T14:14:53Z</time>
      </trkpt>
      <trkpt lat="46.35634" lon="-0.48262">
        <ele>52.48767</ele>
        <time>2014-01-09T14:14:58Z</time>
      </trkpt>
      <trkpt lat="46.35636" lon="-0.48268">
        <ele>51.75796</ele>
        <time>2014-01-09T14:15:03Z</time>
      </trkpt>
      <trkpt lat="46.35637" lon="-0.48275">
        <ele>51.75796</ele>
        <time>2014-01-09T14:15:08Z</time>
      </trkpt>
      <trkpt lat="46.35639" lon="-0.48285">
        <ele>51.1502</ele>
        <time>2014-01-09T14:15:13Z</time>
      </trkpt>
      <trkpt lat="46.3564" lon="-0.48294">
        <ele>51.1502</ele>
        <time>2014-01-09T14:15:18Z</time>
      </trkpt>
      <trkpt lat="46.35641" lon="-0.48303">
        <ele>50.578026</ele>
        <time>2014-01-09T14:15:23Z</time>
      </trkpt>
      <trkpt lat="46.35643" lon="-0.4831">
        <ele>50.578026</ele>
        <time>2014-01-09T14:15:28Z</time>
      </trkpt>
      <trkpt lat="46.35644" lon="-0.48319">
        <ele>50.023663</ele>
        <time>2014-01-09T14:15:33Z</time>
      </trkpt>
      <trkpt lat="46.35646" lon="-0.48327">
        <ele>50.023663</ele>
        <time>2014-01-09T14:15:38Z</time>
      </trkpt>
      <trkpt lat="46.35646" lon="-0.48338">
        <ele>49.55761</ele>
        <time>2014-01-09T14:15:43Z</time>
      </trkpt>
      <trkpt lat="46.35645" lon="-0.48347">
        <ele>49.55761</ele>
        <time>2014-01-09T14:15:48Z</time>
      </trkpt>
      <trkpt lat="46.35645" lon="-0.48355">
        <ele>49.071438</ele>
        <time>2014-01-09T14:15:53Z</time>
      </trkpt>
      <trkpt lat="46.35645" lon="-0.48365">
        <ele>49.071438</ele>
        <time>2014-01-09T14:15:58Z</time>
      </trkpt>
      <trkpt lat="46.35645" lon="-0.48373">
        <ele>48.426064</ele>
        <time>2014-01-09T14:16:03Z</time>
      </trkpt>
      <trkpt lat="46.35646" lon="-0.48381">
        <ele>48.426064</ele>
        <time>2014-01-09T14:16:08Z</time>
      </trkpt>
      <trkpt lat="46.35648" lon="-0.48388">
        <ele>47.83245</ele>
        <time>2014-01-09T14:16:13Z</time>
      </trkpt>
      <trkpt lat="46.35648" lon="-0.48395">
        <ele>47.83245</ele>
        <time>2014-01-09T14:16:18Z</time>
      </trkpt>
      <trkpt lat="46.35648" lon="-0.48406">
        <ele>47.300167</ele>
        <time>2014-01-09T14:16:23Z</time>
      </trkpt>
      <trkpt lat="46.35648" lon="-0.48414">
        <ele>47.300167</ele>
        <time>2014-01-09T14:16:28Z</time>
      </trkpt>
      <trkpt lat="46.35649" lon="-0.48421">
        <ele>47.074505</ele>
        <time>2014-01-09T14:16:33Z</time>
      </trkpt>
      <trkpt lat="46.3565" lon="-0.48429">
        <ele>47.074505</ele>
        <time>2014-01-09T14:16:38Z</time>
      </trkpt>
      <trkpt lat="46.35651" lon="-0.48436">
        <ele>47.132023</ele>
        <time>2014-01-09T14:16:43Z</time>
      </trkpt>
      <trkpt lat="46.35652" lon="-0.48444">
        <ele>47.132023</ele>
        <time>2014-01-09T14:16:48Z</time>
      </trkpt>
      <trkpt lat="46.35651" lon="-0.48453">
        <ele>47.285736</ele>
        <time>2014-01-09T14:16:53Z</time>
      </trkpt>
      <trkpt lat="46.35652" lon="-0.48462">
        <ele>47.285736</ele>
        <time>2014-01-09T14:16:58Z</time>
      </trkpt>
      <trkpt lat="46.35655" lon="-0.4847">
        <ele>47.59859</ele>
        <time>2014-01-09T14:17:03Z</time>
      </trkpt>
      <trkpt lat="46.35659" lon="-0.48475">
        <ele>47.59859</ele>
        <time>2014-01-09T14:17:08Z</time>
      </trkpt>
      <trkpt lat="46.35662" lon="-0.48482">
        <ele>48.129635</ele>
        <time>2014-01-09T14:17:13Z</time>
      </trkpt>
      <trkpt lat="46.35666" lon="-0.48486">
        <ele>48.129635</ele>
        <time>2014-01-09T14:17:18Z</time>
      </trkpt>
      <trkpt lat="46.3567" lon="-0.48492">
        <ele>48.598057</ele>
        <time>2014-01-09T14:17:23Z</time>
      </trkpt>
      <trkpt lat="46.35672" lon="-0.48499">
        <ele>48.598057</ele>
        <time>2014-01-09T14:17:28Z</time>
      </trkpt>
      <trkpt lat="46.35677" lon="-0.48504">
        <ele>49.245865</ele>
        <time>2014-01-09T14:17:33Z</time>
      </trkpt>
      <trkpt lat="46.35681" lon="-0.4851">
        <ele>49.245865</ele>
        <time>2014-01-09T14:17:38Z</time>
      </trkpt>
      <trkpt lat="46.35686" lon="-0.48515">
        <ele>50.060608</ele>
        <time>2014-01-09T14:17:43Z</time>
      </trkpt>
      <trkpt lat="46.35689" lon="-0.48523">
        <ele>50.060608</ele>
        <time>2014-01-09T14:17:48Z</time>
      </trkpt>
      <trkpt lat="46.35693" lon="-0.48528">
        <ele>50.65874</ele>
        <time>2014-01-09T14:17:53Z</time>
      </trkpt>
      <trkpt lat="46.35697" lon="-0.48534">
        <ele>50.65874</ele>
        <time>2014-01-09T14:17:58Z</time>
      </trkpt>
      <trkpt lat="46.35699" lon="-0.48541">
        <ele>51.294147</ele>
        <time>2014-01-09T14:18:03Z</time>
      </trkpt>
      <trkpt lat="46.35703" lon="-0.48546">
        <ele>51.294147</ele>
        <time>2014-01-09T14:18:08Z</time>
      </trkpt>
      <trkpt lat="46.35706" lon="-0.48551">
        <ele>51.773643</ele>
        <time>2014-01-09T14:18:13Z</time>
      </trkpt>
      <trkpt lat="46.35711" lon="-0.48556">
        <ele>51.773643</ele>
        <time>2014-01-09T14:18:18Z</time>
      </trkpt>
      <trkpt lat="46.35715" lon="-0.48563">
        <ele>52.220203</ele>
        <time>2014-01-09T14:18:23Z</time>
      </trkpt>
      <trkpt lat="46.35719" lon="-0.48569">
        <ele>52.220203</ele>
        <time>2014-01-09T14:18:28Z</time>
      </trkpt>
      <trkpt lat="46.35723" lon="-0.48575">
        <ele>52.765392</ele>
        <time>2014-01-09T14:18:33Z</time>
      </trkpt>
      <trkpt lat="46.35726" lon="-0.48578">
        <ele>52.765392</ele>
        <time>2014-01-09T14:18:38Z</time>
      </trkpt>
      <trkpt lat="46.3573" lon="-0.48583">
        <ele>52.765392</ele>
        <time>2014-01-09T14:18:43Z</time>
      </trkpt>
      <trkpt lat="46.35735" lon="-0.48589">
        <ele>53.120373</ele>
        <time>2014-01-09T14:18:48Z</time>
      </trkpt>
      <trkpt lat="46.35739" lon="-0.48595">
        <ele>53.120373</ele>
        <time>2014-01-09T14:18:53Z</time>
      </trkpt>
      <trkpt lat="46.35743" lon="-0.48603">
        <ele>53.813995</ele>
        <time>2014-01-09T14:18:58Z</time>
      </trkpt>
      <trkpt lat="46.35746" lon="-0.48609">
        <ele>53.813995</ele>
        <time>2014-01-09T14:19:03Z</time>
      </trkpt>
      <trkpt lat="46.35749" lon="-0.48615">
        <ele>54.374718</ele>
        <time>2014-01-09T14:19:08Z</time>
      </trkpt>
      <trkpt lat="46.35754" lon="-0.4862">
        <ele>54.374718</ele>
        <time>2014-01-09T14:19:13Z</time>
      </trkpt>
      <trkpt lat="46.35757" lon="-0.48627">
        <ele>54.85353</ele>
        <time>2014-01-09T14:19:18Z</time>
      </trkpt>
      <trkpt lat="46.35761" lon="-0.48634">
        <ele>54.85353</ele>
        <time>2014-01-09T14:19:23Z</time>
      </trkpt>
      <trkpt lat="46.35764" lon="-0.48639">
        <ele>55.283943</ele>
        <time>2014-01-09T14:19:28Z</time>
      </trkpt>
      <trkpt lat="46.35767" lon="-0.48646">
        <ele>55.283943</ele>
        <time>2014-01-09T14:19:33Z</time>
      </trkpt>
      <trkpt lat="46.35772" lon="-0.48652">
        <ele>55.54731</ele>
        <time>2014-01-09T14:19:38Z</time>
      </trkpt>
      <trkpt lat="46.35778" lon="-0.48659">
        <ele>55.54731</ele>
        <time>2014-01-09T14:19:43Z</time>
      </trkpt>
      <trkpt lat="46.35782" lon="-0.48665">
        <ele>55.941074</ele>
        <time>2014-01-09T14:19:48Z</time>
      </trkpt>
      <trkpt lat="46.35785" lon="-0.48671">
        <ele>55.941074</ele>
        <time>2014-01-09T14:19:53Z</time>
      </trkpt>
      <trkpt lat="46.3579" lon="-0.48675">
        <ele>56.258335</ele>
        <time>2014-01-09T14:19:58Z</time>
      </trkpt>
      <trkpt lat="46.35793" lon="-0.48681">
        <ele>56.258335</ele>
        <time>2014-01-09T14:20:03Z</time>
      </trkpt>
      <trkpt lat="46.35797" lon="-0.48687">
        <ele>56.38317</ele>
        <time>2014-01-09T14:20:08Z</time>
      </trkpt>
      <trkpt lat="46.35801" lon="-0.48692">
        <ele>56.38317</ele>
        <time>2014-01-09T14:20:13Z</time>
      </trkpt>
      <trkpt lat="46.35804" lon="-0.48699">
        <ele>56.300034</ele>
        <time>2014-01-09T14:20:18Z</time>
      </trkpt>
      <trkpt lat="46.35807" lon="-0.48705">
        <ele>56.300034</ele>
        <time>2014-01-09T14:20:23Z</time>
      </trkpt>
      <trkpt lat="46.3581" lon="-0.48708">
        <ele>55.90516</ele>
        <time>2014-01-09T14:20:28Z</time>
      </trkpt>
      <trkpt lat="46.35814" lon="-0.48715">
        <ele>55.90516</ele>
        <time>2014-01-09T14:20:33Z</time>
      </trkpt>
      <trkpt lat="46.35817" lon="-0.48722">
        <ele>55.616913</ele>
        <time>2014-01-09T14:20:38Z</time>
      </trkpt>
      <trkpt lat="46.35821" lon="-0.48728">
        <ele>55.616913</ele>
        <time>2014-01-09T14:20:43Z</time>
      </trkpt>
      <trkpt lat="46.35824" lon="-0.48734">
        <ele>55.337986</ele>
        <time>2014-01-09T14:20:48Z</time>
      </trkpt>
      <trkpt lat="46.35829" lon="-0.48739">
        <ele>55.337986</ele>
        <time>2014-01-09T14:20:53Z</time>
      </trkpt>
      <trkpt lat="46.35834" lon="-0.48746">
        <ele>55.174187</ele>
        <time>2014-01-09T14:20:58Z</time>
      </trkpt>
      <trkpt lat="46.35837" lon="-0.48752">
        <ele>55.174187</ele>
        <time>2014-01-09T14:21:03Z</time>
      </trkpt>
      <trkpt lat="46.35841" lon="-0.48757">
        <ele>55.207092</ele>
        <time>2014-01-09T14:21:08Z</time>
      </trkpt>
      <trkpt lat="46.35843" lon="-0.48764">
        <ele>55.207092</ele>
        <time>2014-01-09T14:21:13Z</time>
      </trkpt>
      <trkpt lat="46.35846" lon="-0.48768">
        <ele>55.31617</ele>
        <time>2014-01-09T14:21:18Z</time>
      </trkpt>
      <trkpt lat="46.3585" lon="-0.48774">
        <ele>55.31617</ele>
        <time>2014-01-09T14:21:23Z</time>
      </trkpt>
      <trkpt lat="46.35854" lon="-0.48779">
        <ele>55.107002</ele>
        <time>2014-01-09T14:21:28Z</time>
      </trkpt>
      <trkpt lat="46.35857" lon="-0.48785">
        <ele>55.107002</ele>
        <time>2014-01-09T14:21:33Z</time>
      </trkpt>
      <trkpt lat="46.35862" lon="-0.4879">
        <ele>55.038494</ele>
        <time>2014-01-09T14:21:38Z</time>
      </trkpt>
      <trkpt lat="46.35866" lon="-0.48798">
        <ele>55.038494</ele>
        <time>2014-01-09T14:21:43Z</time>
      </trkpt>
      <trkpt lat="46.35868" lon="-0.48802">
        <ele>55.025337</ele>
        <time>2014-01-09T14:21:48Z</time>
      </trkpt>
      <trkpt lat="46.35873" lon="-0.48807">
        <ele>55.025337</ele>
        <time>2014-01-09T14:21:53Z</time>
      </trkpt>
      <trkpt lat="46.35877" lon="-0.48814">
        <ele>55.255974</ele>
        <time>2014-01-09T14:21:58Z</time>
      </trkpt>
      <trkpt lat="46.35881" lon="-0.48823">
        <ele>55.255974</ele>
        <time>2014-01-09T14:22:03Z</time>
      </trkpt>
      <trkpt lat="46.35885" lon="-0.4883">
        <ele>55.54755</ele>
        <time>2014-01-09T14:22:08Z</time>
      </trkpt>
      <trkpt lat="46.35889" lon="-0.48836">
        <ele>55.54755</ele>
        <time>2014-01-09T14:22:13Z</time>
      </trkpt>
      <trkpt lat="46.35893" lon="-0.48841">
        <ele>55.850365</ele>
        <time>2014-01-09T14:22:18Z</time>
      </trkpt>
      <trkpt lat="46.35896" lon="-0.48848">
        <ele>55.850365</ele>
        <time>2014-01-09T14:22:23Z</time>
      </trkpt>
      <trkpt lat="46.35901" lon="-0.48856">
        <ele>56.074722</ele>
        <time>2014-01-09T14:22:28Z</time>
      </trkpt>
      <trkpt lat="46.35904" lon="-0.48863">
        <ele>56.074722</ele>
        <time>2014-01-09T14:22:33Z</time>
      </trkpt>
      <trkpt lat="46.35909" lon="-0.48869">
        <ele>56.226658</ele>
        <time>2014-01-09T14:22:38Z</time>
      </trkpt>
      <trkpt lat="46.35913" lon="-0.48873">
        <ele>56.226658</ele>
        <time>2014-01-09T14:22:43Z</time>
      </trkpt>
      <trkpt lat="46.35917" lon="-0.4888">
        <ele>56.414413</ele>
        <time>2014-01-09T14:22:48Z</time>
      </trkpt>
      <trkpt lat="46.35921" lon="-0.48889">
        <ele>56.414413</ele>
        <time>2014-01-09T14:22:53Z</time>
      </trkpt>
      <trkpt lat="46.35925" lon="-0.48895">
        <ele>56.503376</ele>
        <time>2014-01-09T14:22:58Z</time>
      </trkpt>
      <trkpt lat="46.3593" lon="-0.48899">
        <ele>56.503376</ele>
        <time>2014-01-09T14:23:03Z</time>
      </trkpt>
      <trkpt lat="46.35934" lon="-0.48904">
        <ele>56.326374</ele>
        <time>2014-01-09T14:23:08Z</time>
      </trkpt>
      <trkpt lat="46.35938" lon="-0.4891">
        <ele>56.326374</ele>
        <time>2014-01-09T14:23:13Z</time>
      </trkpt>
      <trkpt lat="46.35941" lon="-0.48916">
        <ele>56.298355</ele>
        <time>2014-01-09T14:23:18Z</time>
      </trkpt>
      <trkpt lat="46.35945" lon="-0.48923">
        <ele>56.298355</ele>
        <time>2014-01-09T14:23:23Z</time>
      </trkpt>
      <trkpt lat="46.35949" lon="-0.48928">
        <ele>56.189888</ele>
        <time>2014-01-09T14:23:28Z</time>
      </trkpt>
      <trkpt lat="46.35952" lon="-0.48935">
        <ele>56.189888</ele>
        <time>2014-01-09T14:23:33Z</time>
      </trkpt>
      <trkpt lat="46.35956" lon="-0.48943">
        <ele>56.341812</ele>
        <time>2014-01-09T14:23:38Z</time>
      </trkpt>
      <trkpt lat="46.3596" lon="-0.48949">
        <ele>56.341812</ele>
        <time>2014-01-09T14:23:43Z</time>
      </trkpt>
      <trkpt lat="46.35964" lon="-0.48954">
        <ele>56.139267</ele>
        <time>2014-01-09T14:23:48Z</time>
      </trkpt>
      <trkpt lat="46.35968" lon="-0.48961">
        <ele>56.139267</ele>
        <time>2014-01-09T14:23:53Z</time>
      </trkpt>
      <trkpt lat="46.35972" lon="-0.48967">
        <ele>55.827644</ele>
        <time>2014-01-09T14:23:58Z</time>
      </trkpt>
      <trkpt lat="46.35976" lon="-0.48971">
        <ele>55.827644</ele>
        <time>2014-01-09T14:24:03Z</time>
      </trkpt>
      <trkpt lat="46.35979" lon="-0.48977">
        <ele>55.53218</ele>
        <time>2014-01-09T14:24:08Z</time>
      </trkpt>
      <trkpt lat="46.35984" lon="-0.48984">
        <ele>55.53218</ele>
        <time>2014-01-09T14:24:13Z</time>
      </trkpt>
      <trkpt lat="46.35987" lon="-0.48991">
        <ele>55.397327</ele>
        <time>2014-01-09T14:24:18Z</time>
      </trkpt>
      <trkpt lat="46.35991" lon="-0.48998">
        <ele>55.397327</ele>
        <time>2014-01-09T14:24:23Z</time>
      </trkpt>
      <trkpt lat="46.35994" lon="-0.49004">
        <ele>55.353798</ele>
        <time>2014-01-09T14:24:28Z</time>
      </trkpt>
      <trkpt lat="46.35998" lon="-0.4901">
        <ele>55.353798</ele>
        <time>2014-01-09T14:24:33Z</time>
      </trkpt>
      <trkpt lat="46.36001" lon="-0.49017">
        <ele>55.640675</ele>
        <time>2014-01-09T14:24:38Z</time>
      </trkpt>
      <trkpt lat="46.36005" lon="-0.49023">
        <ele>55.640675</ele>
        <time>2014-01-09T14:24:43Z</time>
      </trkpt>
      <trkpt lat="46.36008" lon="-0.49028">
        <ele>55.640877</ele>
        <time>2014-01-09T14:24:48Z</time>
      </trkpt>
      <trkpt lat="46.36012" lon="-0.49033">
        <ele>55.640877</ele>
        <time>2014-01-09T14:24:53Z</time>
      </trkpt>
      <trkpt lat="46.36016" lon="-0.49038">
        <ele>55.419422</ele>
        <time>2014-01-09T14:24:58Z</time>
      </trkpt>
      <trkpt lat="46.36019" lon="-0.49044">
        <ele>55.419422</ele>
        <time>2014-01-09T14:25:03Z</time>
      </trkpt>
      <trkpt lat="46.36022" lon="-0.49051">
        <ele>55.397617</ele>
        <time>2014-01-09T14:25:08Z</time>
      </trkpt>
      <trkpt lat="46.36027" lon="-0.49058">
        <ele>55.397617</ele>
        <time>2014-01-09T14:25:13Z</time>
      </trkpt>
      <trkpt lat="46.3603" lon="-0.49061">
        <ele>55.359074</ele>
        <time>2014-01-09T14:25:18Z</time>
      </trkpt>
      <trkpt lat="46.36034" lon="-0.4907">
        <ele>55.359074</ele>
        <time>2014-01-09T14:25:23Z</time>
      </trkpt>
      <trkpt lat="46.36038" lon="-0.49076">
        <ele>55.420788</ele>
        <time>2014-01-09T14:25:28Z</time>
      </trkpt>
      <trkpt lat="46.36042" lon="-0.49082">
        <ele>55.420788</ele>
        <time>2014-01-09T14:25:33Z</time>
      </trkpt>
      <trkpt lat="46.36044" lon="-0.49087">
        <ele>55.41685</ele>
        <time>2014-01-09T14:25:38Z</time>
      </trkpt>
      <trkpt lat="46.36048" lon="-0.49091">
        <ele>55.41685</ele>
        <time>2014-01-09T14:25:43Z</time>
      </trkpt>
      <trkpt lat="46.36053" lon="-0.49097">
        <ele>55.309124</ele>
        <time>2014-01-09T14:25:48Z</time>
      </trkpt>
      <trkpt lat="46.36057" lon="-0.49102">
        <ele>55.309124</ele>
        <time>2014-01-09T14:25:53Z</time>
      </trkpt>
      <trkpt lat="46.3606" lon="-0.49107">
        <ele>55.177883</ele>
        <time>2014-01-09T14:25:58Z</time>
      </trkpt>
      <trkpt lat="46.36064" lon="-0.49112">
        <ele>55.177883</ele>
        <time>2014-01-09T14:26:03Z</time>
      </trkpt>
      <trkpt lat="46.36068" lon="-0.49119">
        <ele>55.140804</ele>
        <time>2014-01-09T14:26:08Z</time>
      </trkpt>
      <trkpt lat="46.36071" lon="-0.49124">
        <ele>55.140804</ele>
        <time>2014-01-09T14:26:13Z</time>
      </trkpt>
      <trkpt lat="46.36074" lon="-0.49133">
        <ele>55.018288</ele>
        <time>2014-01-09T14:26:18Z</time>
      </trkpt>
      <trkpt lat="46.36077" lon="-0.49139">
        <ele>55.018288</ele>
        <time>2014-01-09T14:26:23Z</time>
      </trkpt>
      <trkpt lat="46.36081" lon="-0.49144">
        <ele>54.946934</ele>
        <time>2014-01-09T14:26:28Z</time>
      </trkpt>
      <trkpt lat="46.36084" lon="-0.4915">
        <ele>54.946934</ele>
        <time>2014-01-09T14:26:33Z</time>
      </trkpt>
      <trkpt lat="46.36088" lon="-0.49156">
        <ele>55.06759</ele>
        <time>2014-01-09T14:26:38Z</time>
      </trkpt>
      <trkpt lat="46.36092" lon="-0.49163">
        <ele>55.06759</ele>
        <time>2014-01-09T14:26:43Z</time>
      </trkpt>
      <trkpt lat="46.36095" lon="-0.4917">
        <ele>55.149708</ele>
        <time>2014-01-09T14:26:48Z</time>
      </trkpt>
      <trkpt lat="46.361" lon="-0.49176">
        <ele>55.149708</ele>
        <time>2014-01-09T14:26:53Z</time>
      </trkpt>
      <trkpt lat="46.36103" lon="-0.4918">
        <ele>55.21049</ele>
        <time>2014-01-09T14:26:58Z</time>
      </trkpt>
      <trkpt lat="46.36107" lon="-0.49186">
        <ele>55.21049</ele>
        <time>2014-01-09T14:27:03Z</time>
      </trkpt>
      <trkpt lat="46.36111" lon="-0.49192">
        <ele>55.251503</ele>
        <time>2014-01-09T14:27:08Z</time>
      </trkpt>
      <trkpt lat="46.36115" lon="-0.49197">
        <ele>55.251503</ele>
        <time>2014-01-09T14:27:13Z</time>
      </trkpt>
      <trkpt lat="46.36118" lon="-0.49204">
        <ele>55.317505</ele>
        <time>2014-01-09T14:27:18Z</time>
      </trkpt>
      <trkpt lat="46.36123" lon="-0.4921">
        <ele>55.317505</ele>
        <time>2014-01-09T14:27:23Z</time>
      </trkpt>
      <trkpt lat="46.36125" lon="-0.49216">
        <ele>55.262386</ele>
        <time>2014-01-09T14:27:28Z</time>
      </trkpt>
      <trkpt lat="46.3613" lon="-0.49221">
        <ele>55.262386</ele>
        <time>2014-01-09T14:27:33Z</time>
      </trkpt>
      <trkpt lat="46.36133" lon="-0.49226">
        <ele>55.153034</ele>
        <time>2014-01-09T14:27:38Z</time>
      </trkpt>
      <trkpt lat="46.36139" lon="-0.49231">
        <ele>55.153034</ele>
        <time>2014-01-09T14:27:43Z</time>
      </trkpt>
      <trkpt lat="46.36144" lon="-0.49239">
        <ele>54.907326</ele>
        <time>2014-01-09T14:27:48Z</time>
      </trkpt>
      <trkpt lat="46.36146" lon="-0.49245">
        <ele>54.907326</ele>
        <time>2014-01-09T14:27:53Z</time>
      </trkpt>
      <trkpt lat="46.36149" lon="-0.49251">
        <ele>54.752457</ele>
        <time>2014-01-09T14:27:58Z</time>
      </trkpt>
      <trkpt lat="46.36152" lon="-0.49257">
        <ele>54.752457</ele>
        <time>2014-01-09T14:28:03Z</time>
      </trkpt>
      <trkpt lat="46.36156" lon="-0.49261">
        <ele>54.494778</ele>
        <time>2014-01-09T14:28:08Z</time>
      </trkpt>
      <trkpt lat="46.3616" lon="-0.49267">
        <ele>54.494778</ele>
        <time>2014-01-09T14:28:13Z</time>
      </trkpt>
      <trkpt lat="46.36163" lon="-0.49274">
        <ele>54.08498</ele>
        <time>2014-01-09T14:28:18Z</time>
      </trkpt>
      <trkpt lat="46.36167" lon="-0.49279">
        <ele>54.08498</ele>
        <time>2014-01-09T14:28:23Z</time>
      </trkpt>
      <trkpt lat="46.36169" lon="-0.49285">
        <ele>53.708572</ele>
        <time>2014-01-09T14:28:28Z</time>
      </trkpt>
      <trkpt lat="46.36174" lon="-0.49291">
        <ele>53.708572</ele>
        <time>2014-01-09T14:28:33Z</time>
      </trkpt>
      <trkpt lat="46.36177" lon="-0.49296">
        <ele>53.349804</ele>
        <time>2014-01-09T14:28:38Z</time>
      </trkpt>
      <trkpt lat="46.36182" lon="-0.49302">
        <ele>53.349804</ele>
        <time>2014-01-09T14:28:43Z</time>
      </trkpt>
      <trkpt lat="46.36186" lon="-0.49307">
        <ele>52.849773</ele>
        <time>2014-01-09T14:28:48Z</time>
      </trkpt>
      <trkpt lat="46.3619" lon="-0.49313">
        <ele>52.849773</ele>
        <time>2014-01-09T14:28:53Z</time>
      </trkpt>
      <trkpt lat="46.36195" lon="-0.49319">
        <ele>52.278008</ele>
        <time>2014-01-09T14:28:58Z</time>
      </trkpt>
      <trkpt lat="46.36197" lon="-0.49326">
        <ele>52.278008</ele>
        <time>2014-01-09T14:29:03Z</time>
      </trkpt>
      <trkpt lat="46.36201" lon="-0.49332">
        <ele>51.75677</ele>
        <time>2014-01-09T14:29:08Z</time>
      </trkpt>
      <trkpt lat="46.36205" lon="-0.49337">
        <ele>51.75677</ele>
        <time>2014-01-09T14:29:13Z</time>
      </trkpt>
      <trkpt lat="46.36208" lon="-0.49343">
        <ele>51.24052</ele>
        <time>2014-01-09T14:29:18Z</time>
      </trkpt>
      <trkpt lat="46.36212" lon="-0.4935">
        <ele>51.24052</ele>
        <time>2014-01-09T14:29:23Z</time>
      </trkpt>
      <trkpt lat="46.36215" lon="-0.49355">
        <ele>50.8024</ele>
        <time>2014-01-09T14:29:28Z</time>
      </trkpt>
      <trkpt lat="46.36219" lon="-0.49361">
        <ele>50.8024</ele>
        <time>2014-01-09T14:29:33Z</time>
      </trkpt>
      <trkpt lat="46.36223" lon="-0.49366">
        <ele>50.495472</ele>
        <time>2014-01-09T14:29:38Z</time>
      </trkpt>
      <trkpt lat="46.36226" lon="-0.49374">
        <ele>50.495472</ele>
        <time>2014-01-09T14:29:43Z</time>
      </trkpt>
      <trkpt lat="46.36229" lon="-0.49379">
        <ele>50.209904</ele>
        <time>2014-01-09T14:29:48Z</time>
      </trkpt>
      <trkpt lat="46.36233" lon="-0.49385">
        <ele>50.209904</ele>
        <time>2014-01-09T14:29:53Z</time>
      </trkpt>
      <trkpt lat="46.36237" lon="-0.49391">
        <ele>49.95919</ele>
        <time>2014-01-09T14:29:58Z</time>
      </trkpt>
      <trkpt lat="46.36241" lon="-0.49398">
        <ele>49.95919</ele>
        <time>2014-01-09T14:30:03Z</time>
      </trkpt>
      <trkpt lat="46.36245" lon="-0.49403">
        <ele>49.726875</ele>
        <time>2014-01-09T14:30:08Z</time>
      </trkpt>
      <trkpt lat="46.3625" lon="-0.49409">
        <ele>49.726875</ele>
        <time>2014-01-09T14:30:13Z</time>
      </trkpt>
      <trkpt lat="46.36253" lon="-0.49414">
        <ele>49.67065</ele>
        <time>2014-01-09T14:30:18Z</time>
      </trkpt>
      <trkpt lat="46.36256" lon="-0.49419">
        <ele>49.67065</ele>
        <time>2014-01-09T14:30:23Z</time>
      </trkpt>
      <trkpt lat="46.36261" lon="-0.49423">
        <ele>49.979305</ele>
        <time>2014-01-09T14:30:28Z</time>
      </trkpt>
      <trkpt lat="46.36264" lon="-0.49425">
        <ele>49.979305</ele>
        <time>2014-01-09T14:30:33Z</time>
      </trkpt>
      <trkpt lat="46.36267" lon="-0.49432">
        <ele>50.019398</ele>
        <time>2014-01-09T14:30:38Z</time>
      </trkpt>
      <trkpt lat="46.36271" lon="-0.49437">
        <ele>50.019398</ele>
        <time>2014-01-09T14:30:43Z</time>
      </trkpt>
      <trkpt lat="46.36274" lon="-0.49443">
        <ele>50.199512</ele>
        <time>2014-01-09T14:30:48Z</time>
      </trkpt>
      <trkpt lat="46.36277" lon="-0.49449">
        <ele>50.199512</ele>
        <time>2014-01-09T14:30:53Z</time>
      </trkpt>
      <trkpt lat="46.36281" lon="-0.49457">
        <ele>50.40765</ele>
        <time>2014-01-09T14:30:58Z</time>
      </trkpt>
      <trkpt lat="46.36285" lon="-0.49465">
        <ele>50.40765</ele>
        <time>2014-01-09T14:31:03Z</time>
      </trkpt>
      <trkpt lat="46.36288" lon="-0.49471">
        <ele>50.68409</ele>
        <time>2014-01-09T14:31:08Z</time>
      </trkpt>
      <trkpt lat="46.36292" lon="-0.49477">
        <ele>50.68409</ele>
        <time>2014-01-09T14:31:13Z</time>
      </trkpt>
      <trkpt lat="46.36295" lon="-0.49481">
        <ele>50.83534</ele>
        <time>2014-01-09T14:31:18Z</time>
      </trkpt>
      <trkpt lat="46.36299" lon="-0.49483">
        <ele>50.83534</ele>
        <time>2014-01-09T14:31:23Z</time>
      </trkpt>
      <trkpt lat="46.36303" lon="-0.49489">
        <ele>50.941917</ele>
        <time>2014-01-09T14:31:28Z</time>
      </trkpt>
      <trkpt lat="46.36307" lon="-0.49495">
        <ele>50.941917</ele>
        <time>2014-01-09T14:31:33Z</time>
      </trkpt>
      <trkpt lat="46.36309" lon="-0.495">
        <ele>50.948826</ele>
        <time>2014-01-09T14:31:38Z</time>
      </trkpt>
      <trkpt lat="46.36314" lon="-0.49507">
        <ele>50.948826</ele>
        <time>2014-01-09T14:31:43Z</time>
      </trkpt>
      <trkpt lat="46.36317" lon="-0.49514">
        <ele>50.891865</ele>
        <time>2014-01-09T14:31:48Z</time>
      </trkpt>
      <trkpt lat="46.36322" lon="-0.49519">
        <ele>50.891865</ele>
        <time>2014-01-09T14:31:53Z</time>
      </trkpt>
      <trkpt lat="46.36325" lon="-0.49524">
        <ele>50.77555</ele>
        <time>2014-01-09T14:31:58Z</time>
      </trkpt>
      <trkpt lat="46.36329" lon="-0.4953">
        <ele>50.77555</ele>
        <time>2014-01-09T14:32:03Z</time>
      </trkpt>
      <trkpt lat="46.36333" lon="-0.49536">
        <ele>50.79159</ele>
        <time>2014-01-09T14:32:08Z</time>
      </trkpt>
      <trkpt lat="46.36336" lon="-0.49544">
        <ele>50.79159</ele>
        <time>2014-01-09T14:32:13Z</time>
      </trkpt>
      <trkpt lat="46.3634" lon="-0.49548">
        <ele>50.92988</ele>
        <time>2014-01-09T14:32:18Z</time>
      </trkpt>
      <trkpt lat="46.36345" lon="-0.49554">
        <ele>50.92988</ele>
        <time>2014-01-09T14:32:23Z</time>
      </trkpt>
      <trkpt lat="46.36347" lon="-0.49561">
        <ele>51.353638</ele>
        <time>2014-01-09T14:32:28Z</time>
      </trkpt>
      <trkpt lat="46.36351" lon="-0.49567">
        <ele>51.353638</ele>
        <time>2014-01-09T14:32:33Z</time>
      </trkpt>
      <trkpt lat="46.36356" lon="-0.49575">
        <ele>52.025967</ele>
        <time>2014-01-09T14:32:38Z</time>
      </trkpt>
      <trkpt lat="46.36359" lon="-0.49581">
        <ele>52.025967</ele>
        <time>2014-01-09T14:32:43Z</time>
      </trkpt>
      <trkpt lat="46.36361" lon="-0.49586">
        <ele>52.45082</ele>
        <time>2014-01-09T14:32:48Z</time>
      </trkpt>
      <trkpt lat="46.36366" lon="-0.49593">
        <ele>52.45082</ele>
        <time>2014-01-09T14:32:53Z</time>
      </trkpt>
      <trkpt lat="46.3637" lon="-0.49598">
        <ele>53.06281</ele>
        <time>2014-01-09T14:32:58Z</time>
      </trkpt>
      <trkpt lat="46.36374" lon="-0.49606">
        <ele>53.06281</ele>
        <time>2014-01-09T14:33:03Z</time>
      </trkpt>
      <trkpt lat="46.36378" lon="-0.49612">
        <ele>53.644417</ele>
        <time>2014-01-09T14:33:08Z</time>
      </trkpt>
      <trkpt lat="46.36382" lon="-0.4962">
        <ele>53.644417</ele>
        <time>2014-01-09T14:33:13Z</time>
      </trkpt>
      <trkpt lat="46.36386" lon="-0.4962">
        <ele>53.835697</ele>
        <time>2014-01-09T14:33:18Z</time>
      </trkpt>
      <trkpt lat="46.36391" lon="-0.49625">
        <ele>53.835697</ele>
        <time>2014-01-09T14:33:23Z</time>
      </trkpt>
      <trkpt lat="46.36394" lon="-0.49633">
        <ele>54.298637</ele>
        <time>2014-01-09T14:33:28Z</time>
      </trkpt>
      <trkpt lat="46.36397" lon="-0.4964">
        <ele>54.298637</ele>
        <time>2014-01-09T14:33:33Z</time>
      </trkpt>
      <trkpt lat="46.36401" lon="-0.49648">
        <ele>54.882065</ele>
        <time>2014-01-09T14:33:38Z</time>
      </trkpt>
      <trkpt lat="46.36404" lon="-0.49653">
        <ele>54.882065</ele>
        <time>2014-01-09T14:33:43Z</time>
      </trkpt>
      <trkpt lat="46.36408" lon="-0.49661">
        <ele>55.01326</ele>
        <time>2014-01-09T14:33:48Z</time>
      </trkpt>
      <trkpt lat="46.36412" lon="-0.49667">
        <ele>55.01326</ele>
        <time>2014-01-09T14:33:53Z</time>
      </trkpt>
      <trkpt lat="46.36414" lon="-0.49672">
        <ele>55.488716</ele>
        <time>2014-01-09T14:33:58Z</time>
      </trkpt>
      <trkpt lat="46.36418" lon="-0.49679">
        <ele>55.488716</ele>
        <time>2014-01-09T14:34:03Z</time>
      </trkpt>
      <trkpt lat="46.36423" lon="-0.49684">
        <ele>55.863758</ele>
        <time>2014-01-09T14:34:08Z</time>
      </trkpt>
      <trkpt lat="46.36426" lon="-0.49691">
        <ele>55.863758</ele>
        <time>2014-01-09T14:34:13Z</time>
      </trkpt>
      <trkpt lat="46.36431" lon="-0.49698">
        <ele>56.000504</ele>
        <time>2014-01-09T14:34:18Z</time>
      </trkpt>
      <trkpt lat="46.36434" lon="-0.49702">
        <ele>56.000504</ele>
        <time>2014-01-09T14:34:23Z</time>
      </trkpt>
      <trkpt lat="46.36439" lon="-0.49707">
        <ele>56.10336</ele>
        <time>2014-01-09T14:34:28Z</time>
      </trkpt>
      <trkpt lat="46.36442" lon="-0.49712">
        <ele>56.10336</ele>
        <time>2014-01-09T14:34:33Z</time>
      </trkpt>
      <trkpt lat="46.36447" lon="-0.49716">
        <ele>56.145676</ele>
        <time>2014-01-09T14:34:38Z</time>
      </trkpt>
      <trkpt lat="46.3645" lon="-0.49722">
        <ele>56.145676</ele>
        <time>2014-01-09T14:34:43Z</time>
      </trkpt>
      <trkpt lat="46.36453" lon="-0.49728">
        <ele>56.261486</ele>
        <time>2014-01-09T14:34:48Z</time>
      </trkpt>
      <trkpt lat="46.36458" lon="-0.49731">
        <ele>56.261486</ele>
        <time>2014-01-09T14:34:53Z</time>
      </trkpt>
      <trkpt lat="46.36461" lon="-0.49738">
        <ele>56.430695</ele>
        <time>2014-01-09T14:34:58Z</time>
      </trkpt>
      <trkpt lat="46.36464" lon="-0.49746">
        <ele>56.430695</ele>
        <time>2014-01-09T14:35:03Z</time>
      </trkpt>
      <trkpt lat="46.36468" lon="-0.49753">
        <ele>56.692192</ele>
        <time>2014-01-09T14:35:08Z</time>
      </trkpt>
      <trkpt lat="46.36471" lon="-0.49761">
        <ele>56.692192</ele>
        <time>2014-01-09T14:35:13Z</time>
      </trkpt>
      <trkpt lat="46.36474" lon="-0.49766">
        <ele>57.009743</ele>
        <time>2014-01-09T14:35:18Z</time>
      </trkpt>
      <trkpt lat="46.36478" lon="-0.49773">
        <ele>57.009743</ele>
        <time>2014-01-09T14:35:23Z</time>
      </trkpt>
      <trkpt lat="46.36482" lon="-0.49779">
        <ele>57.162277</ele>
        <time>2014-01-09T14:35:28Z</time>
      </trkpt>
      <trkpt lat="46.36487" lon="-0.49784">
        <ele>57.162277</ele>
        <time>2014-01-09T14:35:33Z</time>
      </trkpt>
      <trkpt lat="46.3649" lon="-0.49789">
        <ele>57.248104</ele>
        <time>2014-01-09T14:35:38Z</time>
      </trkpt>
      <trkpt lat="46.36492" lon="-0.49795">
        <ele>57.248104</ele>
        <time>2014-01-09T14:35:43Z</time>
      </trkpt>
      <trkpt lat="46.36497" lon="-0.49801">
        <ele>57.272053</ele>
        <time>2014-01-09T14:35:48Z</time>
      </trkpt>
      <trkpt lat="46.36501" lon="-0.49806">
        <ele>57.272053</ele>
        <time>2014-01-09T14:35:53Z</time>
      </trkpt>
      <trkpt lat="46.36505" lon="-0.49812">
        <ele>57.454967</ele>
        <time>2014-01-09T14:35:58Z</time>
      </trkpt>
      <trkpt lat="46.36508" lon="-0.49818">
        <ele>57.454967</ele>
        <time>2014-01-09T14:36:03Z</time>
      </trkpt>
      <trkpt lat="46.36512" lon="-0.49825">
        <ele>57.813698</ele>
        <time>2014-01-09T14:36:08Z</time>
      </trkpt>
      <trkpt lat="46.36516" lon="-0.4983">
        <ele>57.813698</ele>
        <time>2014-01-09T14:36:13Z</time>
      </trkpt>
      <trkpt lat="46.3652" lon="-0.49836">
        <ele>58.176037</ele>
        <time>2014-01-09T14:36:18Z</time>
      </trkpt>
      <trkpt lat="46.36523" lon="-0.49842">
        <ele>58.176037</ele>
        <time>2014-01-09T14:36:23Z</time>
      </trkpt>
      <trkpt lat="46.36528" lon="-0.49847">
        <ele>58.44008</ele>
        <time>2014-01-09T14:36:28Z</time>
      </trkpt>
      <trkpt lat="46.36531" lon="-0.49853">
        <ele>58.44008</ele>
        <time>2014-01-09T14:36:33Z</time>
      </trkpt>
      <trkpt lat="46.36535" lon="-0.4986">
        <ele>58.944054</ele>
        <time>2014-01-09T14:36:38Z</time>
      </trkpt>
      <trkpt lat="46.36539" lon="-0.49866">
        <ele>58.944054</ele>
        <time>2014-01-09T14:36:43Z</time>
      </trkpt>
      <trkpt lat="46.36543" lon="-0.49872">
        <ele>59.395412</ele>
        <time>2014-01-09T14:36:48Z</time>
      </trkpt>
      <trkpt lat="46.36546" lon="-0.49877">
        <ele>59.395412</ele>
        <time>2014-01-09T14:36:53Z</time>
      </trkpt>
      <trkpt lat="46.3655" lon="-0.49884">
        <ele>59.696205</ele>
        <time>2014-01-09T14:36:58Z</time>
      </trkpt>
      <trkpt lat="46.36554" lon="-0.49895">
        <ele>59.696205</ele>
        <time>2014-01-09T14:37:03Z</time>
      </trkpt>
      <trkpt lat="46.36556" lon="-0.499">
        <ele>60.015526</ele>
        <time>2014-01-09T14:37:08Z</time>
      </trkpt>
      <trkpt lat="46.3656" lon="-0.49903">
        <ele>60.015526</ele>
        <time>2014-01-09T14:37:13Z</time>
      </trkpt>
      <trkpt lat="46.3656" lon="-0.49906">
        <ele>60.015526</ele>
        <time>2014-01-09T14:37:18Z</time>
      </trkpt>
      <trkpt lat="46.3656" lon="-0.49906">
        <ele>60.015526</ele>
        <time>2014-01-09T14:37:23Z</time>
      </trkpt>
      <trkpt lat="46.36559" lon="-0.49907">
        <ele>60.015526</ele>
        <time>2014-01-09T14:37:28Z</time>
      </trkpt>
      <trkpt lat="46.3656" lon="-0.49906">
        <ele>60.015526</ele>
        <time>2014-01-09T14:37:33Z</time>
      </trkpt>
      <trkpt lat="46.36559" lon="-0.49907">
        <ele>60.005627</ele>
        <time>2014-01-09T14:37:38Z</time>
      </trkpt>
      <trkpt lat="46.36556" lon="-0.49908">
        <ele>60.005627</ele>
        <time>2014-01-09T14:37:48Z</time>
      </trkpt>
      <trkpt lat="46.36556" lon="-0.49909">
        <ele>60.005627</ele>
        <time>2014-01-09T14:37:53Z</time>
      </trkpt>
      <trkpt lat="46.36552" lon="-0.4991">
        <ele>60.005627</ele>
        <time>2014-01-09T14:37:58Z</time>
      </trkpt>
      <trkpt lat="46.36549" lon="-0.49913">
        <ele>59.64789</ele>
        <time>2014-01-09T14:38:03Z</time>
      </trkpt>
      <trkpt lat="46.36545" lon="-0.49917">
        <ele>59.64789</ele>
        <time>2014-01-09T14:38:08Z</time>
      </trkpt>
      <trkpt lat="46.36541" lon="-0.49921">
        <ele>59.27192</ele>
        <time>2014-01-09T14:38:13Z</time>
      </trkpt>
      <trkpt lat="46.36536" lon="-0.49923">
        <ele>59.27192</ele>
        <time>2014-01-09T14:38:18Z</time>
      </trkpt>
      <trkpt lat="46.36532" lon="-0.49925">
        <ele>59.27192</ele>
        <time>2014-01-09T14:38:23Z</time>
      </trkpt>
      <trkpt lat="46.36527" lon="-0.49928">
        <ele>59.11114</ele>
        <time>2014-01-09T14:38:28Z</time>
      </trkpt>
      <trkpt lat="46.36522" lon="-0.49931">
        <ele>59.11114</ele>
        <time>2014-01-09T14:38:33Z</time>
      </trkpt>
      <trkpt lat="46.36517" lon="-0.49934">
        <ele>58.963284</ele>
        <time>2014-01-09T14:38:38Z</time>
      </trkpt>
      <trkpt lat="46.36513" lon="-0.49937">
        <ele>58.963284</ele>
        <time>2014-01-09T14:38:43Z</time>
      </trkpt>
      <trkpt lat="46.36509" lon="-0.49941">
        <ele>58.770626</ele>
        <time>2014-01-09T14:38:48Z</time>
      </trkpt>
      <trkpt lat="46.36504" lon="-0.49944">
        <ele>58.770626</ele>
        <time>2014-01-09T14:38:53Z</time>
      </trkpt>
      <trkpt lat="46.36499" lon="-0.49946">
        <ele>58.27805</ele>
        <time>2014-01-09T14:38:58Z</time>
      </trkpt>
      <trkpt lat="46.36494" lon="-0.49949">
        <ele>58.27805</ele>
        <time>2014-01-09T14:39:03Z</time>
      </trkpt>
      <trkpt lat="46.36491" lon="-0.49952">
        <ele>57.69677</ele>
        <time>2014-01-09T14:39:08Z</time>
      </trkpt>
      <trkpt lat="46.36485" lon="-0.49956">
        <ele>57.69677</ele>
        <time>2014-01-09T14:39:13Z</time>
      </trkpt>
      <trkpt lat="46.3648" lon="-0.49959">
        <ele>57.453304</ele>
        <time>2014-01-09T14:39:18Z</time>
      </trkpt>
      <trkpt lat="46.36477" lon="-0.49961">
        <ele>57.453304</ele>
        <time>2014-01-09T14:39:23Z</time>
      </trkpt>
      <trkpt lat="46.36476" lon="-0.49963">
        <ele>57.453304</ele>
        <time>2014-01-09T14:39:28Z</time>
      </trkpt>
      <trkpt lat="46.36468" lon="-0.49967">
        <ele>57.466312</ele>
        <time>2014-01-09T14:39:33Z</time>
      </trkpt>
      <trkpt lat="46.36461" lon="-0.49971">
        <ele>57.466312</ele>
        <time>2014-01-09T14:39:38Z</time>
      </trkpt>
      <trkpt lat="46.36455" lon="-0.49974">
        <ele>57.32824</ele>
        <time>2014-01-09T14:39:43Z</time>
      </trkpt>
      <trkpt lat="46.36449" lon="-0.49978">
        <ele>57.32824</ele>
        <time>2014-01-09T14:39:48Z</time>
      </trkpt>
      <trkpt lat="46.36444" lon="-0.49982">
        <ele>57.12304</ele>
        <time>2014-01-09T14:39:53Z</time>
      </trkpt>
      <trkpt lat="46.36439" lon="-0.49987">
        <ele>57.12304</ele>
        <time>2014-01-09T14:39:58Z</time>
      </trkpt>
      <trkpt lat="46.36432" lon="-0.49989">
        <ele>57.2313</ele>
        <time>2014-01-09T14:40:03Z</time>
      </trkpt>
      <trkpt lat="46.36426" lon="-0.49994">
        <ele>57.2313</ele>
        <time>2014-01-09T14:40:08Z</time>
      </trkpt>
      <trkpt lat="46.3642" lon="-0.49997">
        <ele>57.529194</ele>
        <time>2014-01-09T14:40:13Z</time>
      </trkpt>
      <trkpt lat="46.36414" lon="-0.50001">
        <ele>57.529194</ele>
        <time>2014-01-09T14:40:18Z</time>
      </trkpt>
      <trkpt lat="46.36407" lon="-0.50003">
        <ele>58.132023</ele>
        <time>2014-01-09T14:40:23Z</time>
      </trkpt>
      <trkpt lat="46.36403" lon="-0.50008">
        <ele>58.132023</ele>
        <time>2014-01-09T14:40:28Z</time>
      </trkpt>
      <trkpt lat="46.36397" lon="-0.50012">
        <ele>58.626945</ele>
        <time>2014-01-09T14:40:33Z</time>
      </trkpt>
      <trkpt lat="46.36391" lon="-0.50017">
        <ele>58.626945</ele>
        <time>2014-01-09T14:40:38Z</time>
      </trkpt>
      <trkpt lat="46.36387" lon="-0.50019">
        <ele>59.092896</ele>
        <time>2014-01-09T14:40:43Z</time>
      </trkpt>
      <trkpt lat="46.36382" lon="-0.50022">
        <ele>59.092896</ele>
        <time>2014-01-09T14:40:48Z</time>
      </trkpt>
      <trkpt lat="46.36376" lon="-0.50026">
        <ele>59.401337</ele>
        <time>2014-01-09T14:40:53Z</time>
      </trkpt>
      <trkpt lat="46.36371" lon="-0.5003">
        <ele>59.401337</ele>
        <time>2014-01-09T14:40:58Z</time>
      </trkpt>
      <trkpt lat="46.36367" lon="-0.50033">
        <ele>59.69301</ele>
        <time>2014-01-09T14:41:03Z</time>
      </trkpt>
      <trkpt lat="46.36363" lon="-0.50037">
        <ele>59.69301</ele>
        <time>2014-01-09T14:41:08Z</time>
      </trkpt>
      <trkpt lat="46.36361" lon="-0.50041">
        <ele>59.69301</ele>
        <time>2014-01-09T14:41:13Z</time>
      </trkpt>
      <trkpt lat="46.36355" lon="-0.50044">
        <ele>59.838963</ele>
        <time>2014-01-09T14:41:18Z</time>
      </trkpt>
      <trkpt lat="46.36348" lon="-0.50047">
        <ele>59.838963</ele>
        <time>2014-01-09T14:41:23Z</time>
      </trkpt>
      <trkpt lat="46.36343" lon="-0.5005">
        <ele>60.037174</ele>
        <time>2014-01-09T14:41:28Z</time>
      </trkpt>
      <trkpt lat="46.36338" lon="-0.50053">
        <ele>60.037174</ele>
        <time>2014-01-09T14:41:33Z</time>
      </trkpt>
      <trkpt lat="46.36333" lon="-0.50058">
        <ele>59.99536</ele>
        <time>2014-01-09T14:41:38Z</time>
      </trkpt>
      <trkpt lat="46.36328" lon="-0.50059">
        <ele>59.99536</ele>
        <time>2014-01-09T14:41:43Z</time>
      </trkpt>
      <trkpt lat="46.36324" lon="-0.50062">
        <ele>60.091892</ele>
        <time>2014-01-09T14:41:48Z</time>
      </trkpt>
      <trkpt lat="46.36316" lon="-0.50065">
        <ele>60.091892</ele>
        <time>2014-01-09T14:41:53Z</time>
      </trkpt>
      <trkpt lat="46.3631" lon="-0.50069">
        <ele>60.48961</ele>
        <time>2014-01-09T14:41:58Z</time>
      </trkpt>
      <trkpt lat="46.36308" lon="-0.50073">
        <ele>60.48961</ele>
        <time>2014-01-09T14:42:03Z</time>
      </trkpt>
      <trkpt lat="46.36303" lon="-0.50077">
        <ele>60.459473</ele>
        <time>2014-01-09T14:42:08Z</time>
      </trkpt>
      <trkpt lat="46.36298" lon="-0.5008">
        <ele>60.459473</ele>
        <time>2014-01-09T14:42:13Z</time>
      </trkpt>
      <trkpt lat="46.36293" lon="-0.50084">
        <ele>60.335968</ele>
        <time>2014-01-09T14:42:18Z</time>
      </trkpt>
      <trkpt lat="46.36288" lon="-0.50087">
        <ele>60.335968</ele>
        <time>2014-01-09T14:42:23Z</time>
      </trkpt>
      <trkpt lat="46.36282" lon="-0.5009">
        <ele>60.27076</ele>
        <time>2014-01-09T14:42:28Z</time>
      </trkpt>
      <trkpt lat="46.36276" lon="-0.50095">
        <ele>60.27076</ele>
        <time>2014-01-09T14:42:33Z</time>
      </trkpt>
      <trkpt lat="46.3627" lon="-0.50097">
        <ele>60.375378</ele>
        <time>2014-01-09T14:42:38Z</time>
      </trkpt>
      <trkpt lat="46.36264" lon="-0.501">
        <ele>60.375378</ele>
        <time>2014-01-09T14:42:43Z</time>
      </trkpt>
      <trkpt lat="46.36259" lon="-0.50103">
        <ele>60.08978</ele>
        <time>2014-01-09T14:42:48Z</time>
      </trkpt>
      <trkpt lat="46.36253" lon="-0.50106">
        <ele>60.08978</ele>
        <time>2014-01-09T14:42:53Z</time>
      </trkpt>
      <trkpt lat="46.36247" lon="-0.50109">
        <ele>60.164314</ele>
        <time>2014-01-09T14:42:58Z</time>
      </trkpt>
      <trkpt lat="46.36244" lon="-0.50114">
        <ele>60.164314</ele>
        <time>2014-01-09T14:43:03Z</time>
      </trkpt>
      <trkpt lat="46.36239" lon="-0.50116">
        <ele>60.16915</ele>
        <time>2014-01-09T14:43:08Z</time>
      </trkpt>
      <trkpt lat="46.36232" lon="-0.50118">
        <ele>60.16915</ele>
        <time>2014-01-09T14:43:13Z</time>
      </trkpt>
      <trkpt lat="46.36229" lon="-0.50123">
        <ele>60.253834</ele>
        <time>2014-01-09T14:43:18Z</time>
      </trkpt>
      <trkpt lat="46.36225" lon="-0.50127">
        <ele>60.253834</ele>
        <time>2014-01-09T14:43:23Z</time>
      </trkpt>
      <trkpt lat="46.3622" lon="-0.50129">
        <ele>60.109943</ele>
        <time>2014-01-09T14:43:28Z</time>
      </trkpt>
      <trkpt lat="46.36215" lon="-0.50134">
        <ele>60.109943</ele>
        <time>2014-01-09T14:43:33Z</time>
      </trkpt>
      <trkpt lat="46.36211" lon="-0.50137">
        <ele>60.028805</ele>
        <time>2014-01-09T14:43:38Z</time>
      </trkpt>
      <trkpt lat="46.36206" lon="-0.5014">
        <ele>60.028805</ele>
        <time>2014-01-09T14:43:43Z</time>
      </trkpt>
      <trkpt lat="46.362" lon="-0.50143">
        <ele>60.0784</ele>
        <time>2014-01-09T14:43:48Z</time>
      </trkpt>
      <trkpt lat="46.36195" lon="-0.50147">
        <ele>60.0784</ele>
        <time>2014-01-09T14:43:53Z</time>
      </trkpt>
      <trkpt lat="46.36191" lon="-0.50151">
        <ele>59.90342</ele>
        <time>2014-01-09T14:43:58Z</time>
      </trkpt>
      <trkpt lat="46.36186" lon="-0.50155">
        <ele>59.90342</ele>
        <time>2014-01-09T14:44:03Z</time>
      </trkpt>
      <trkpt lat="46.36181" lon="-0.50158">
        <ele>59.910244</ele>
        <time>2014-01-09T14:44:08Z</time>
      </trkpt>
      <trkpt lat="46.36175" lon="-0.50161">
        <ele>59.910244</ele>
        <time>2014-01-09T14:44:13Z</time>
      </trkpt>
      <trkpt lat="46.36169" lon="-0.50164">
        <ele>60.12901</ele>
        <time>2014-01-09T14:44:18Z</time>
      </trkpt>
      <trkpt lat="46.36164" lon="-0.50165">
        <ele>60.12901</ele>
        <time>2014-01-09T14:44:23Z</time>
      </trkpt>
      <trkpt lat="46.36159" lon="-0.5017">
        <ele>60.16912</ele>
        <time>2014-01-09T14:44:28Z</time>
      </trkpt>
      <trkpt lat="46.36153" lon="-0.50174">
        <ele>60.16912</ele>
        <time>2014-01-09T14:44:33Z</time>
      </trkpt>
      <trkpt lat="46.36147" lon="-0.50178">
        <ele>60.360897</ele>
        <time>2014-01-09T14:44:38Z</time>
      </trkpt>
      <trkpt lat="46.36142" lon="-0.50181">
        <ele>60.360897</ele>
        <time>2014-01-09T14:44:43Z</time>
      </trkpt>
      <trkpt lat="46.36137" lon="-0.50185">
        <ele>60.678505</ele>
        <time>2014-01-09T14:44:48Z</time>
      </trkpt>
      <trkpt lat="46.36132" lon="-0.50188">
        <ele>60.678505</ele>
        <time>2014-01-09T14:44:53Z</time>
      </trkpt>
      <trkpt lat="46.36127" lon="-0.50191">
        <ele>61.054413</ele>
        <time>2014-01-09T14:44:58Z</time>
      </trkpt>
      <trkpt lat="46.36122" lon="-0.50195">
        <ele>61.054413</ele>
        <time>2014-01-09T14:45:03Z</time>
      </trkpt>
      <trkpt lat="46.36117" lon="-0.50197">
        <ele>61.339424</ele>
        <time>2014-01-09T14:45:08Z</time>
      </trkpt>
      <trkpt lat="46.36113" lon="-0.50201">
        <ele>61.339424</ele>
        <time>2014-01-09T14:45:13Z</time>
      </trkpt>
      <trkpt lat="46.36107" lon="-0.50204">
        <ele>61.87111</ele>
        <time>2014-01-09T14:45:18Z</time>
      </trkpt>
      <trkpt lat="46.36104" lon="-0.50207">
        <ele>61.87111</ele>
        <time>2014-01-09T14:45:23Z</time>
      </trkpt>
      <trkpt lat="46.36099" lon="-0.50209">
        <ele>61.736614</ele>
        <time>2014-01-09T14:45:28Z</time>
      </trkpt>
      <trkpt lat="46.36093" lon="-0.50213">
        <ele>61.736614</ele>
        <time>2014-01-09T14:45:33Z</time>
      </trkpt>
      <trkpt lat="46.36088" lon="-0.50216">
        <ele>61.907814</ele>
        <time>2014-01-09T14:45:38Z</time>
      </trkpt>
      <trkpt lat="46.36083" lon="-0.50218">
        <ele>61.907814</ele>
        <time>2014-01-09T14:45:43Z</time>
      </trkpt>
      <trkpt lat="46.36079" lon="-0.5022">
        <ele>61.627052</ele>
        <time>2014-01-09T14:45:48Z</time>
      </trkpt>
      <trkpt lat="46.36072" lon="-0.50226">
        <ele>61.627052</ele>
        <time>2014-01-09T14:45:53Z</time>
      </trkpt>
      <trkpt lat="46.3607" lon="-0.50231">
        <ele>61.562653</ele>
        <time>2014-01-09T14:45:58Z</time>
      </trkpt>
      <trkpt lat="46.36068" lon="-0.50232">
        <ele>61.562653</ele>
        <time>2014-01-09T14:46:03Z</time>
      </trkpt>
      <trkpt lat="46.36068" lon="-0.50234">
        <ele>61.562653</ele>
        <time>2014-01-09T14:46:08Z</time>
      </trkpt>
      <trkpt lat="46.36068" lon="-0.50234">
        <ele>61.562653</ele>
        <time>2014-01-09T14:46:13Z</time>
      </trkpt>
      <trkpt lat="46.36068" lon="-0.5024">
        <ele>61.562653</ele>
        <time>2014-01-09T14:46:18Z</time>
      </trkpt>
      <trkpt lat="46.3607" lon="-0.50246">
        <ele>61.497395</ele>
        <time>2014-01-09T14:46:23Z</time>
      </trkpt>
      <trkpt lat="46.36073" lon="-0.50252">
        <ele>61.497395</ele>
        <time>2014-01-09T14:46:28Z</time>
      </trkpt>
      <trkpt lat="46.36077" lon="-0.5026">
        <ele>61.359722</ele>
        <time>2014-01-09T14:46:33Z</time>
      </trkpt>
      <trkpt lat="46.36077" lon="-0.5027">
        <ele>61.359722</ele>
        <time>2014-01-09T14:46:38Z</time>
      </trkpt>
      <trkpt lat="46.3608" lon="-0.50275">
        <ele>61.357334</ele>
        <time>2014-01-09T14:46:43Z</time>
      </trkpt>
      <trkpt lat="46.36081" lon="-0.50281">
        <ele>61.357334</ele>
        <time>2014-01-09T14:46:48Z</time>
      </trkpt>
      <trkpt lat="46.36082" lon="-0.50293">
        <ele>61.49495</ele>
        <time>2014-01-09T14:46:53Z</time>
      </trkpt>
      <trkpt lat="46.36086" lon="-0.50298">
        <ele>61.49495</ele>
        <time>2014-01-09T14:46:58Z</time>
      </trkpt>
      <trkpt lat="46.36086" lon="-0.50307">
        <ele>61.545967</ele>
        <time>2014-01-09T14:47:03Z</time>
      </trkpt>
      <trkpt lat="46.36088" lon="-0.50315">
        <ele>61.545967</ele>
        <time>2014-01-09T14:47:08Z</time>
      </trkpt>
      <trkpt lat="46.36092" lon="-0.50324">
        <ele>61.300667</ele>
        <time>2014-01-09T14:47:13Z</time>
      </trkpt>
      <trkpt lat="46.36094" lon="-0.50328">
        <ele>61.300667</ele>
        <time>2014-01-09T14:47:18Z</time>
      </trkpt>
      <trkpt lat="46.36097" lon="-0.50333">
        <ele>61.300667</ele>
        <time>2014-01-09T14:47:23Z</time>
      </trkpt>
      <trkpt lat="46.361" lon="-0.50339">
        <ele>61.242886</ele>
        <time>2014-01-09T14:47:28Z</time>
      </trkpt>
      <trkpt lat="46.36102" lon="-0.50349">
        <ele>61.242886</ele>
        <time>2014-01-09T14:47:33Z</time>
      </trkpt>
      <trkpt lat="46.36107" lon="-0.5035">
        <ele>61.12865</ele>
        <time>2014-01-09T14:47:38Z</time>
      </trkpt>
      <trkpt lat="46.36107" lon="-0.50362">
        <ele>61.12865</ele>
        <time>2014-01-09T14:47:43Z</time>
      </trkpt>
      <trkpt lat="46.36108" lon="-0.50369">
        <ele>60.818527</ele>
        <time>2014-01-09T14:47:48Z</time>
      </trkpt>
      <trkpt lat="46.3611" lon="-0.50376">
        <ele>60.818527</ele>
        <time>2014-01-09T14:47:53Z</time>
      </trkpt>
      <trkpt lat="46.36112" lon="-0.50385">
        <ele>60.428852</ele>
        <time>2014-01-09T14:47:58Z</time>
      </trkpt>
      <trkpt lat="46.36115" lon="-0.50391">
        <ele>60.428852</ele>
        <time>2014-01-09T14:48:03Z</time>
      </trkpt>
      <trkpt lat="46.36117" lon="-0.50397">
        <ele>60.09645</ele>
        <time>2014-01-09T14:48:08Z</time>
      </trkpt>
      <trkpt lat="46.3612" lon="-0.50405">
        <ele>60.09645</ele>
        <time>2014-01-09T14:48:13Z</time>
      </trkpt>
      <trkpt lat="46.36123" lon="-0.50409">
        <ele>59.86146</ele>
        <time>2014-01-09T14:48:18Z</time>
      </trkpt>
      <trkpt lat="46.36125" lon="-0.50417">
        <ele>59.86146</ele>
        <time>2014-01-09T14:48:23Z</time>
      </trkpt>
      <trkpt lat="46.36127" lon="-0.50424">
        <ele>59.760777</ele>
        <time>2014-01-09T14:48:28Z</time>
      </trkpt>
      <trkpt lat="46.3613" lon="-0.50429">
        <ele>59.760777</ele>
        <time>2014-01-09T14:48:33Z</time>
      </trkpt>
      <trkpt lat="46.36133" lon="-0.50435">
        <ele>59.857014</ele>
        <time>2014-01-09T14:48:38Z</time>
      </trkpt>
      <trkpt lat="46.36135" lon="-0.50445">
        <ele>59.857014</ele>
        <time>2014-01-09T14:48:43Z</time>
      </trkpt>
      <trkpt lat="46.36138" lon="-0.50453">
        <ele>59.962627</ele>
        <time>2014-01-09T14:48:48Z</time>
      </trkpt>
      <trkpt lat="46.3614" lon="-0.50461">
        <ele>59.962627</ele>
        <time>2014-01-09T14:48:53Z</time>
      </trkpt>
      <trkpt lat="46.36142" lon="-0.50466">
        <ele>60.119984</ele>
        <time>2014-01-09T14:48:58Z</time>
      </trkpt>
      <trkpt lat="46.36144" lon="-0.50475">
        <ele>60.119984</ele>
        <time>2014-01-09T14:49:03Z</time>
      </trkpt>
      <trkpt lat="46.36145" lon="-0.50477">
        <ele>60.119984</ele>
        <time>2014-01-09T14:49:08Z</time>
      </trkpt>
      <trkpt lat="46.36147" lon="-0.50479">
        <ele>60.224052</ele>
        <time>2014-01-09T14:49:13Z</time>
      </trkpt>
      <trkpt lat="46.36148" lon="-0.50481">
        <ele>60.224052</ele>
        <time>2014-01-09T14:49:18Z</time>
      </trkpt>
      <trkpt lat="46.36149" lon="-0.50482">
        <ele>60.224052</ele>
        <time>2014-01-09T14:49:23Z</time>
      </trkpt>
      <trkpt lat="46.36153" lon="-0.50487">
        <ele>60.224052</ele>
        <time>2014-01-09T14:49:28Z</time>
      </trkpt>
      <trkpt lat="46.36155" lon="-0.50489">
        <ele>60.393837</ele>
        <time>2014-01-09T14:49:33Z</time>
      </trkpt>
      <trkpt lat="46.36154" lon="-0.50489">
        <ele>60.393837</ele>
        <time>2014-01-09T14:49:38Z</time>
      </trkpt>
      <trkpt lat="46.36155" lon="-0.50491">
        <ele>60.393837</ele>
        <time>2014-01-09T14:49:43Z</time>
      </trkpt>
      <trkpt lat="46.36159" lon="-0.50498">
        <ele>60.393837</ele>
        <time>2014-01-09T14:49:48Z</time>
      </trkpt>
      <trkpt lat="46.36162" lon="-0.50505">
        <ele>60.7394</ele>
        <time>2014-01-09T14:49:53Z</time>
      </trkpt>
      <trkpt lat="46.36164" lon="-0.50511">
        <ele>60.7394</ele>
        <time>2014-01-09T14:49:58Z</time>
      </trkpt>
      <trkpt lat="46.36168" lon="-0.50517">
        <ele>61.146038</ele>
        <time>2014-01-09T14:50:03Z</time>
      </trkpt>
      <trkpt lat="46.36171" lon="-0.50527">
        <ele>61.146038</ele>
        <time>2014-01-09T14:50:08Z</time>
      </trkpt>
      <trkpt lat="46.36174" lon="-0.5053">
        <ele>61.46409</ele>
        <time>2014-01-09T14:50:13Z</time>
      </trkpt>
      <trkpt lat="46.36178" lon="-0.50538">
        <ele>61.46409</ele>
        <time>2014-01-09T14:50:18Z</time>
      </trkpt>
      <trkpt lat="46.36181" lon="-0.50553">
        <ele>61.74246</ele>
        <time>2014-01-09T14:50:23Z</time>
      </trkpt>
      <trkpt lat="46.36184" lon="-0.50556">
        <ele>61.74246</ele>
        <time>2014-01-09T14:50:28Z</time>
      </trkpt>
      <trkpt lat="46.36185" lon="-0.50563">
        <ele>61.74246</ele>
        <time>2014-01-09T14:50:33Z</time>
      </trkpt>
      <trkpt lat="46.36189" lon="-0.50576">
        <ele>62.185097</ele>
        <time>2014-01-09T14:50:38Z</time>
      </trkpt>
      <trkpt lat="46.36193" lon="-0.50578">
        <ele>62.185097</ele>
        <time>2014-01-09T14:50:43Z</time>
      </trkpt>
      <trkpt lat="46.36196" lon="-0.50577">
        <ele>62.185097</ele>
        <time>2014-01-09T14:50:48Z</time>
      </trkpt>
      <trkpt lat="46.36197" lon="-0.50583">
        <ele>62.432896</ele>
        <time>2014-01-09T14:50:53Z</time>
      </trkpt>
      <trkpt lat="46.362" lon="-0.50589">
        <ele>62.432896</ele>
        <time>2014-01-09T14:50:58Z</time>
      </trkpt>
      <trkpt lat="46.36203" lon="-0.50595">
        <ele>62.55719</ele>
        <time>2014-01-09T14:51:03Z</time>
      </trkpt>
      <trkpt lat="46.36205" lon="-0.50604">
        <ele>62.55719</ele>
        <time>2014-01-09T14:51:08Z</time>
      </trkpt>
      <trkpt lat="46.3621" lon="-0.5061">
        <ele>62.56678</ele>
        <time>2014-01-09T14:51:13Z</time>
      </trkpt>
      <trkpt lat="46.36213" lon="-0.50614">
        <ele>62.56678</ele>
        <time>2014-01-09T14:51:18Z</time>
      </trkpt>
      <trkpt lat="46.36217" lon="-0.5062">
        <ele>62.340458</ele>
        <time>2014-01-09T14:51:23Z</time>
      </trkpt>
      <trkpt lat="46.36219" lon="-0.50627">
        <ele>62.340458</ele>
        <time>2014-01-09T14:51:28Z</time>
      </trkpt>
      <trkpt lat="46.36222" lon="-0.50634">
        <ele>62.371838</ele>
        <time>2014-01-09T14:51:33Z</time>
      </trkpt>
      <trkpt lat="46.36226" lon="-0.50641">
        <ele>62.371838</ele>
        <time>2014-01-09T14:51:38Z</time>
      </trkpt>
      <trkpt lat="46.36228" lon="-0.50648">
        <ele>62.627594</ele>
        <time>2014-01-09T14:51:43Z</time>
      </trkpt>
      <trkpt lat="46.36231" lon="-0.50654">
        <ele>62.627594</ele>
        <time>2014-01-09T14:51:48Z</time>
      </trkpt>
      <trkpt lat="46.36234" lon="-0.50663">
        <ele>62.86005</ele>
        <time>2014-01-09T14:51:53Z</time>
      </trkpt>
      <trkpt lat="46.36237" lon="-0.50669">
        <ele>62.86005</ele>
        <time>2014-01-09T14:51:58Z</time>
      </trkpt>
      <trkpt lat="46.36241" lon="-0.50676">
        <ele>62.9695</ele>
        <time>2014-01-09T14:52:03Z</time>
      </trkpt>
      <trkpt lat="46.36245" lon="-0.50685">
        <ele>62.9695</ele>
        <time>2014-01-09T14:52:08Z</time>
      </trkpt>
      <trkpt lat="46.36246" lon="-0.50696">
        <ele>62.921555</ele>
        <time>2014-01-09T14:52:13Z</time>
      </trkpt>
      <trkpt lat="46.36249" lon="-0.507">
        <ele>62.921555</ele>
        <time>2014-01-09T14:52:18Z</time>
      </trkpt>
      <trkpt lat="46.36252" lon="-0.50712">
        <ele>62.85773</ele>
        <time>2014-01-09T14:52:23Z</time>
      </trkpt>
      <trkpt lat="46.36255" lon="-0.50719">
        <ele>62.81862</ele>
        <time>2014-01-09T14:52:28Z</time>
      </trkpt>
      <trkpt lat="46.36259" lon="-0.50725">
        <ele>62.779507</ele>
        <time>2014-01-09T14:52:33Z</time>
      </trkpt>
      <trkpt lat="46.36261" lon="-0.50724">
        <ele>62.708828</ele>
        <time>2014-01-09T14:52:38Z</time>
      </trkpt>
      <trkpt lat="46.36265" lon="-0.50732">
        <ele>62.638153</ele>
        <time>2014-01-09T14:52:43Z</time>
      </trkpt>
      <trkpt lat="46.36266" lon="-0.50748">
        <ele>62.56748</ele>
        <time>2014-01-09T14:52:48Z</time>
      </trkpt>
      <trkpt lat="46.36269" lon="-0.50767">
        <ele>62.4968</ele>
        <time>2014-01-09T14:52:53Z</time>
      </trkpt>
      <trkpt lat="46.36273" lon="-0.50775">
        <ele>62.426125</ele>
        <time>2014-01-09T14:52:58Z</time>
      </trkpt>
      <trkpt lat="46.36277" lon="-0.5077">
        <ele>62.35545</ele>
        <time>2014-01-09T14:53:03Z</time>
      </trkpt>
      <trkpt lat="46.36281" lon="-0.50768">
        <ele>62.28477</ele>
        <time>2014-01-09T14:53:08Z</time>
      </trkpt>
      <trkpt lat="46.36284" lon="-0.50773">
        <ele>62.28477</ele>
        <time>2014-01-09T14:53:13Z</time>
      </trkpt>
      <trkpt lat="46.36286" lon="-0.50781">
        <ele>61.895626</ele>
        <time>2014-01-09T14:53:18Z</time>
      </trkpt>
      <trkpt lat="46.36289" lon="-0.50789">
        <ele>61.895626</ele>
        <time>2014-01-09T14:53:23Z</time>
      </trkpt>
      <trkpt lat="46.36292" lon="-0.5079">
        <ele>61.28849</ele>
        <time>2014-01-09T14:53:28Z</time>
      </trkpt>
      <trkpt lat="46.36295" lon="-0.50793">
        <ele>61.28849</ele>
        <time>2014-01-09T14:53:33Z</time>
      </trkpt>
      <trkpt lat="46.36298" lon="-0.50798">
        <ele>61.28849</ele>
        <time>2014-01-09T14:53:38Z</time>
      </trkpt>
      <trkpt lat="46.36303" lon="-0.50805">
        <ele>60.466793</ele>
        <time>2014-01-09T14:53:43Z</time>
      </trkpt>
      <trkpt lat="46.36304" lon="-0.50813">
        <ele>60.466793</ele>
        <time>2014-01-09T14:53:48Z</time>
      </trkpt>
      <trkpt lat="46.36308" lon="-0.50819">
        <ele>59.751347</ele>
        <time>2014-01-09T14:53:53Z</time>
      </trkpt>
      <trkpt lat="46.36313" lon="-0.50828">
        <ele>59.751347</ele>
        <time>2014-01-09T14:53:58Z</time>
      </trkpt>
      <trkpt lat="46.36315" lon="-0.50838">
        <ele>58.977924</ele>
        <time>2014-01-09T14:54:03Z</time>
      </trkpt>
      <trkpt lat="46.36318" lon="-0.50841">
        <ele>58.977924</ele>
        <time>2014-01-09T14:54:08Z</time>
      </trkpt>
      <trkpt lat="46.3632" lon="-0.50854">
        <ele>58.340374</ele>
        <time>2014-01-09T14:54:13Z</time>
      </trkpt>
      <trkpt lat="46.36323" lon="-0.50855">
        <ele>58.340374</ele>
        <time>2014-01-09T14:54:18Z</time>
      </trkpt>
      <trkpt lat="46.36326" lon="-0.50858">
        <ele>58.340374</ele>
        <time>2014-01-09T14:54:23Z</time>
      </trkpt>
      <trkpt lat="46.36331" lon="-0.50863">
        <ele>57.427044</ele>
        <time>2014-01-09T14:54:28Z</time>
      </trkpt>
      <trkpt lat="46.36333" lon="-0.50871">
        <ele>57.427044</ele>
        <time>2014-01-09T14:54:33Z</time>
      </trkpt>
      <trkpt lat="46.36337" lon="-0.50878">
        <ele>56.765156</ele>
        <time>2014-01-09T14:54:38Z</time>
      </trkpt>
      <trkpt lat="46.36342" lon="-0.50887">
        <ele>56.765156</ele>
        <time>2014-01-09T14:54:43Z</time>
      </trkpt>
      <trkpt lat="46.36345" lon="-0.50893">
        <ele>55.761635</ele>
        <time>2014-01-09T14:54:48Z</time>
      </trkpt>
      <trkpt lat="46.36348" lon="-0.509">
        <ele>55.761635</ele>
        <time>2014-01-09T14:54:53Z</time>
      </trkpt>
      <trkpt lat="46.36352" lon="-0.50907">
        <ele>55.136063</ele>
        <time>2014-01-09T14:54:58Z</time>
      </trkpt>
      <trkpt lat="46.36357" lon="-0.50913">
        <ele>55.136063</ele>
        <time>2014-01-09T14:55:03Z</time>
      </trkpt>
      <trkpt lat="46.36361" lon="-0.50915">
        <ele>54.415585</ele>
        <time>2014-01-09T14:55:08Z</time>
      </trkpt>
      <trkpt lat="46.36364" lon="-0.5092">
        <ele>54.415585</ele>
        <time>2014-01-09T14:55:13Z</time>
      </trkpt>
      <trkpt lat="46.36367" lon="-0.50926">
        <ele>53.983738</ele>
        <time>2014-01-09T14:55:18Z</time>
      </trkpt>
      <trkpt lat="46.36371" lon="-0.50932">
        <ele>53.983738</ele>
        <time>2014-01-09T14:55:23Z</time>
      </trkpt>
      <trkpt lat="46.36376" lon="-0.50937">
        <ele>53.53212</ele>
        <time>2014-01-09T14:55:28Z</time>
      </trkpt>
      <trkpt lat="46.36381" lon="-0.50941">
        <ele>53.53212</ele>
        <time>2014-01-09T14:55:33Z</time>
      </trkpt>
      <trkpt lat="46.36387" lon="-0.50944">
        <ele>53.120842</ele>
        <time>2014-01-09T14:55:38Z</time>
      </trkpt>
      <trkpt lat="46.36391" lon="-0.5095">
        <ele>53.120842</ele>
        <time>2014-01-09T14:55:43Z</time>
      </trkpt>
      <trkpt lat="46.36395" lon="-0.50955">
        <ele>52.92075</ele>
        <time>2014-01-09T14:55:48Z</time>
      </trkpt>
      <trkpt lat="46.36399" lon="-0.50959">
        <ele>52.92075</ele>
        <time>2014-01-09T14:55:53Z</time>
      </trkpt>
      <trkpt lat="46.36402" lon="-0.50962">
        <ele>52.92075</ele>
        <time>2014-01-09T14:55:58Z</time>
      </trkpt>
      <trkpt lat="46.36406" lon="-0.50967">
        <ele>52.657158</ele>
        <time>2014-01-09T14:56:03Z</time>
      </trkpt>
      <trkpt lat="46.36411" lon="-0.50972">
        <ele>52.657158</ele>
        <time>2014-01-09T14:56:08Z</time>
      </trkpt>
      <trkpt lat="46.36416" lon="-0.50976">
        <ele>52.508022</ele>
        <time>2014-01-09T14:56:13Z</time>
      </trkpt>
      <trkpt lat="46.3642" lon="-0.5098">
        <ele>52.508022</ele>
        <time>2014-01-09T14:56:18Z</time>
      </trkpt>
      <trkpt lat="46.36427" lon="-0.50984">
        <ele>52.60906</ele>
        <time>2014-01-09T14:56:23Z</time>
      </trkpt>
      <trkpt lat="46.36432" lon="-0.50988">
        <ele>52.60906</ele>
        <time>2014-01-09T14:56:28Z</time>
      </trkpt>
      <trkpt lat="46.36436" lon="-0.50992">
        <ele>52.6241</ele>
        <time>2014-01-09T14:56:33Z</time>
      </trkpt>
      <trkpt lat="46.3644" lon="-0.50996">
        <ele>52.6241</ele>
        <time>2014-01-09T14:56:38Z</time>
      </trkpt>
      <trkpt lat="46.36445" lon="-0.51">
        <ele>52.602173</ele>
        <time>2014-01-09T14:56:43Z</time>
      </trkpt>
      <trkpt lat="46.36453" lon="-0.51002">
        <ele>52.602173</ele>
        <time>2014-01-09T14:56:48Z</time>
      </trkpt>
      <trkpt lat="46.36459" lon="-0.51004">
        <ele>53.352562</ele>
        <time>2014-01-09T14:56:53Z</time>
      </trkpt>
      <trkpt lat="46.36463" lon="-0.51008">
        <ele>53.352562</ele>
        <time>2014-01-09T14:56:58Z</time>
      </trkpt>
      <trkpt lat="46.36468" lon="-0.5101">
        <ele>54.09534</ele>
        <time>2014-01-09T14:57:03Z</time>
      </trkpt>
      <trkpt lat="46.36471" lon="-0.51017">
        <ele>54.09534</ele>
        <time>2014-01-09T14:57:08Z</time>
      </trkpt>
      <trkpt lat="46.36478" lon="-0.5102">
        <ele>54.71314</ele>
        <time>2014-01-09T14:57:13Z</time>
      </trkpt>
      <trkpt lat="46.36483" lon="-0.51022">
        <ele>54.71314</ele>
        <time>2014-01-09T14:57:18Z</time>
      </trkpt>
      <trkpt lat="46.36488" lon="-0.51025">
        <ele>54.852577</ele>
        <time>2014-01-09T14:57:23Z</time>
      </trkpt>
      <trkpt lat="46.36492" lon="-0.51026">
        <ele>54.852577</ele>
        <time>2014-01-09T14:57:28Z</time>
      </trkpt>
      <trkpt lat="46.36499" lon="-0.51031">
        <ele>55.253983</ele>
        <time>2014-01-09T14:57:33Z</time>
      </trkpt>
      <trkpt lat="46.36504" lon="-0.51035">
        <ele>55.253983</ele>
        <time>2014-01-09T14:57:38Z</time>
      </trkpt>
      <trkpt lat="46.36508" lon="-0.51038">
        <ele>55.622623</ele>
        <time>2014-01-09T14:57:43Z</time>
      </trkpt>
      <trkpt lat="46.36514" lon="-0.51039">
        <ele>55.622623</ele>
        <time>2014-01-09T14:57:48Z</time>
      </trkpt>
      <trkpt lat="46.3652" lon="-0.51044">
        <ele>56.1899</ele>
        <time>2014-01-09T14:57:53Z</time>
      </trkpt>
      <trkpt lat="46.36523" lon="-0.51048">
        <ele>56.1899</ele>
        <time>2014-01-09T14:57:58Z</time>
      </trkpt>
      <trkpt lat="46.36529" lon="-0.5105">
        <ele>56.88146</ele>
        <time>2014-01-09T14:58:03Z</time>
      </trkpt>
      <trkpt lat="46.36532" lon="-0.51051">
        <ele>56.88146</ele>
        <time>2014-01-09T14:58:08Z</time>
      </trkpt>
      <trkpt lat="46.36535" lon="-0.51052">
        <ele>56.88146</ele>
        <time>2014-01-09T14:58:13Z</time>
      </trkpt>
      <trkpt lat="46.36537" lon="-0.51055">
        <ele>57.52719</ele>
        <time>2014-01-09T14:58:18Z</time>
      </trkpt>
      <trkpt lat="46.36542" lon="-0.51058">
        <ele>57.52719</ele>
        <time>2014-01-09T14:58:23Z</time>
      </trkpt>
      <trkpt lat="46.36546" lon="-0.51061">
        <ele>57.984055</ele>
        <time>2014-01-09T14:58:28Z</time>
      </trkpt>
      <trkpt lat="46.36552" lon="-0.51064">
        <ele>57.984055</ele>
        <time>2014-01-09T14:58:33Z</time>
      </trkpt>
      <trkpt lat="46.36556" lon="-0.51068">
        <ele>58.53799</ele>
        <time>2014-01-09T14:58:38Z</time>
      </trkpt>
      <trkpt lat="46.36563" lon="-0.51072">
        <ele>58.53799</ele>
        <time>2014-01-09T14:58:43Z</time>
      </trkpt>
      <trkpt lat="46.36569" lon="-0.51072">
        <ele>59.093422</ele>
        <time>2014-01-09T14:58:48Z</time>
      </trkpt>
      <trkpt lat="46.36571" lon="-0.51078">
        <ele>59.093422</ele>
        <time>2014-01-09T14:58:53Z</time>
      </trkpt>
      <trkpt lat="46.36575" lon="-0.51081">
        <ele>59.273598</ele>
        <time>2014-01-09T14:58:58Z</time>
      </trkpt>
      <trkpt lat="46.36574" lon="-0.51081">
        <ele>59.273598</ele>
        <time>2014-01-09T14:59:03Z</time>
      </trkpt>
      <trkpt lat="46.36573" lon="-0.51082">
        <ele>59.273598</ele>
        <time>2014-01-09T14:59:08Z</time>
      </trkpt>
      <trkpt lat="46.36574" lon="-0.51083">
        <ele>59.273598</ele>
        <time>2014-01-09T14:59:13Z</time>
      </trkpt>
      <trkpt lat="46.36575" lon="-0.51083">
        <ele>59.273598</ele>
        <time>2014-01-09T14:59:18Z</time>
      </trkpt>
      <trkpt lat="46.36575" lon="-0.51084">
        <ele>59.273598</ele>
        <time>2014-01-09T14:59:23Z</time>
      </trkpt>
      <trkpt lat="46.36576" lon="-0.51081">
        <ele>59.273598</ele>
        <time>2014-01-09T14:59:28Z</time>
      </trkpt>
      <trkpt lat="46.36577" lon="-0.51082">
        <ele>59.273598</ele>
        <time>2014-01-09T14:59:33Z</time>
      </trkpt>
      <trkpt lat="46.3658" lon="-0.51086">
        <ele>59.234917</ele>
        <time>2014-01-09T14:59:38Z</time>
      </trkpt>
      <trkpt lat="46.36584" lon="-0.51087">
        <ele>59.234917</ele>
        <time>2014-01-09T14:59:43Z</time>
      </trkpt>
      <trkpt lat="46.36589" lon="-0.51091">
        <ele>59.03649</ele>
        <time>2014-01-09T14:59:48Z</time>
      </trkpt>
      <trkpt lat="46.36593" lon="-0.51092">
        <ele>59.03649</ele>
        <time>2014-01-09T14:59:53Z</time>
      </trkpt>
      <trkpt lat="46.36598" lon="-0.51092">
        <ele>59.0506</ele>
        <time>2014-01-09T14:59:58Z</time>
      </trkpt>
      <trkpt lat="46.36602" lon="-0.51092">
        <ele>59.0506</ele>
        <time>2014-01-09T15:00:03Z</time>
      </trkpt>
      <trkpt lat="46.36607" lon="-0.51093">
        <ele>59.0506</ele>
        <time>2014-01-09T15:00:08Z</time>
      </trkpt>
      <trkpt lat="46.3661" lon="-0.51093">
        <ele>59.18928</ele>
        <time>2014-01-09T15:00:13Z</time>
      </trkpt>
      <trkpt lat="46.36617" lon="-0.51093">
        <ele>59.18928</ele>
        <time>2014-01-09T15:00:18Z</time>
      </trkpt>
      <trkpt lat="46.36622" lon="-0.51094">
        <ele>59.413967</ele>
        <time>2014-01-09T15:00:23Z</time>
      </trkpt>
      <trkpt lat="46.36627" lon="-0.51094">
        <ele>59.413967</ele>
        <time>2014-01-09T15:00:28Z</time>
      </trkpt>
      <trkpt lat="46.36633" lon="-0.51095">
        <ele>60.06339</ele>
        <time>2014-01-09T15:00:33Z</time>
      </trkpt>
      <trkpt lat="46.36638" lon="-0.51096">
        <ele>60.06339</ele>
        <time>2014-01-09T15:00:38Z</time>
      </trkpt>
      <trkpt lat="46.36643" lon="-0.51097">
        <ele>60.931435</ele>
        <time>2014-01-09T15:00:43Z</time>
      </trkpt>
      <trkpt lat="46.36648" lon="-0.51098">
        <ele>60.931435</ele>
        <time>2014-01-09T15:00:48Z</time>
      </trkpt>
      <trkpt lat="46.36652" lon="-0.51101">
        <ele>61.869797</ele>
        <time>2014-01-09T15:00:53Z</time>
      </trkpt>
      <trkpt lat="46.36656" lon="-0.51103">
        <ele>61.869797</ele>
        <time>2014-01-09T15:00:58Z</time>
      </trkpt>
      <trkpt lat="46.36661" lon="-0.51105">
        <ele>62.553562</ele>
        <time>2014-01-09T15:01:03Z</time>
      </trkpt>
      <trkpt lat="46.36665" lon="-0.51107">
        <ele>62.553562</ele>
        <time>2014-01-09T15:01:08Z</time>
      </trkpt>
      <trkpt lat="46.36669" lon="-0.5111">
        <ele>62.553562</ele>
        <time>2014-01-09T15:01:13Z</time>
      </trkpt>
      <trkpt lat="46.36671" lon="-0.51114">
        <ele>62.768894</ele>
        <time>2014-01-09T15:01:18Z</time>
      </trkpt>
      <trkpt lat="46.36676" lon="-0.51117">
        <ele>62.768894</ele>
        <time>2014-01-09T15:01:23Z</time>
      </trkpt>
      <trkpt lat="46.36681" lon="-0.51121">
        <ele>62.736965</ele>
        <time>2014-01-09T15:01:28Z</time>
      </trkpt>
      <trkpt lat="46.36685" lon="-0.51126">
        <ele>62.736965</ele>
        <time>2014-01-09T15:01:33Z</time>
      </trkpt>
      <trkpt lat="46.36689" lon="-0.51128">
        <ele>62.82194</ele>
        <time>2014-01-09T15:01:38Z</time>
      </trkpt>
      <trkpt lat="46.36695" lon="-0.51132">
        <ele>62.82194</ele>
        <time>2014-01-09T15:01:43Z</time>
      </trkpt>
      <trkpt lat="46.36699" lon="-0.51134">
        <ele>63.1448</ele>
        <time>2014-01-09T15:01:48Z</time>
      </trkpt>
      <trkpt lat="46.36702" lon="-0.5113">
        <ele>63.1448</ele>
        <time>2014-01-09T15:01:53Z</time>
      </trkpt>
      <trkpt lat="46.36698" lon="-0.51124">
        <ele>63.327015</ele>
        <time>2014-01-09T15:01:58Z</time>
      </trkpt>
      <trkpt lat="46.36697" lon="-0.51121">
        <ele>63.327015</ele>
        <time>2014-01-09T15:02:03Z</time>
      </trkpt>
      <trkpt lat="46.36697" lon="-0.51121">
        <ele>63.327015</ele>
        <time>2014-01-09T15:02:08Z</time>
      </trkpt>
      <trkpt lat="46.36696" lon="-0.51119">
        <ele>63.327015</ele>
        <time>2014-01-09T15:02:13Z</time>
      </trkpt>
      <trkpt lat="46.36696" lon="-0.51115">
        <ele>63.327015</ele>
        <time>2014-01-09T15:02:18Z</time>
      </trkpt>
      <trkpt lat="46.36694" lon="-0.51109">
        <ele>63.176826</ele>
        <time>2014-01-09T15:02:23Z</time>
      </trkpt>
      <trkpt lat="46.36693" lon="-0.51103">
        <ele>63.176826</ele>
        <time>2014-01-09T15:02:28Z</time>
      </trkpt>
      <trkpt lat="46.36692" lon="-0.511">
        <ele>63.176826</ele>
        <time>2014-01-09T15:02:33Z</time>
      </trkpt>
      <trkpt lat="46.36688" lon="-0.51089">
        <ele>63.06515</ele>
        <time>2014-01-09T15:02:38Z</time>
      </trkpt>
      <trkpt lat="46.36688" lon="-0.51081">
        <ele>63.06515</ele>
        <time>2014-01-09T15:02:43Z</time>
      </trkpt>
      <trkpt lat="46.36686" lon="-0.51072">
        <ele>63.33558</ele>
        <time>2014-01-09T15:02:48Z</time>
      </trkpt>
      <trkpt lat="46.36684" lon="-0.51065">
        <ele>63.33558</ele>
        <time>2014-01-09T15:02:53Z</time>
      </trkpt>
      <trkpt lat="46.36683" lon="-0.51058">
        <ele>63.599274</ele>
        <time>2014-01-09T15:02:58Z</time>
      </trkpt>
      <trkpt lat="46.36681" lon="-0.5105">
        <ele>63.599274</ele>
        <time>2014-01-09T15:03:03Z</time>
      </trkpt>
      <trkpt lat="46.36679" lon="-0.51042">
        <ele>63.71218</ele>
        <time>2014-01-09T15:03:08Z</time>
      </trkpt>
      <trkpt lat="46.36678" lon="-0.51036">
        <ele>63.71218</ele>
        <time>2014-01-09T15:03:13Z</time>
      </trkpt>
      <trkpt lat="46.36676" lon="-0.51027">
        <ele>63.930367</ele>
        <time>2014-01-09T15:03:18Z</time>
      </trkpt>
      <trkpt lat="46.36676" lon="-0.51021">
        <ele>63.930367</ele>
        <time>2014-01-09T15:03:23Z</time>
      </trkpt>
      <trkpt lat="46.36674" lon="-0.51012">
        <ele>64.05849</ele>
        <time>2014-01-09T15:03:28Z</time>
      </trkpt>
      <trkpt lat="46.36672" lon="-0.51004">
        <ele>64.05849</ele>
        <time>2014-01-09T15:03:33Z</time>
      </trkpt>
      <trkpt lat="46.36674" lon="-0.50997">
        <ele>64.016716</ele>
        <time>2014-01-09T15:03:38Z</time>
      </trkpt>
      <trkpt lat="46.36674" lon="-0.50991">
        <ele>64.016716</ele>
        <time>2014-01-09T15:03:43Z</time>
      </trkpt>
      <trkpt lat="46.36674" lon="-0.50982">
        <ele>63.673912</ele>
        <time>2014-01-09T15:03:48Z</time>
      </trkpt>
      <trkpt lat="46.36675" lon="-0.50974">
        <ele>63.673912</ele>
        <time>2014-01-09T15:03:53Z</time>
      </trkpt>
      <trkpt lat="46.36674" lon="-0.50967">
        <ele>63.457077</ele>
        <time>2014-01-09T15:03:58Z</time>
      </trkpt>
      <trkpt lat="46.36676" lon="-0.50959">
        <ele>63.457077</ele>
        <time>2014-01-09T15:04:03Z</time>
      </trkpt>
      <trkpt lat="46.36675" lon="-0.50952">
        <ele>63.08417</ele>
        <time>2014-01-09T15:04:08Z</time>
      </trkpt>
      <trkpt lat="46.36677" lon="-0.50943">
        <ele>63.08417</ele>
        <time>2014-01-09T15:04:13Z</time>
      </trkpt>
      <trkpt lat="46.36678" lon="-0.50933">
        <ele>63.072525</ele>
        <time>2014-01-09T15:04:18Z</time>
      </trkpt>
      <trkpt lat="46.36679" lon="-0.50928">
        <ele>63.072525</ele>
        <time>2014-01-09T15:04:23Z</time>
      </trkpt>
      <trkpt lat="46.36679" lon="-0.50921">
        <ele>63.107845</ele>
        <time>2014-01-09T15:04:28Z</time>
      </trkpt>
      <trkpt lat="46.36679" lon="-0.50912">
        <ele>63.107845</ele>
        <time>2014-01-09T15:04:33Z</time>
      </trkpt>
      <trkpt lat="46.3668" lon="-0.50903">
        <ele>63.215836</ele>
        <time>2014-01-09T15:04:38Z</time>
      </trkpt>
      <trkpt lat="46.36681" lon="-0.50896">
        <ele>63.215836</ele>
        <time>2014-01-09T15:04:43Z</time>
      </trkpt>
      <trkpt lat="46.36681" lon="-0.50888">
        <ele>62.987785</ele>
        <time>2014-01-09T15:04:48Z</time>
      </trkpt>
      <trkpt lat="46.36682" lon="-0.50883">
        <ele>62.987785</ele>
        <time>2014-01-09T15:04:53Z</time>
      </trkpt>
      <trkpt lat="46.36682" lon="-0.50875">
        <ele>62.5071</ele>
        <time>2014-01-09T15:04:58Z</time>
      </trkpt>
      <trkpt lat="46.36682" lon="-0.50869">
        <ele>62.5071</ele>
        <time>2014-01-09T15:05:03Z</time>
      </trkpt>
      <trkpt lat="46.36682" lon="-0.50862">
        <ele>62.5071</ele>
        <time>2014-01-09T15:05:08Z</time>
      </trkpt>
      <trkpt lat="46.36682" lon="-0.50854">
        <ele>62.053513</ele>
        <time>2014-01-09T15:05:13Z</time>
      </trkpt>
      <trkpt lat="46.36683" lon="-0.50847">
        <ele>62.053513</ele>
        <time>2014-01-09T15:05:18Z</time>
      </trkpt>
      <trkpt lat="46.36683" lon="-0.50841">
        <ele>61.468204</ele>
        <time>2014-01-09T15:05:23Z</time>
      </trkpt>
      <trkpt lat="46.36683" lon="-0.50832">
        <ele>61.468204</ele>
        <time>2014-01-09T15:05:28Z</time>
      </trkpt>
      <trkpt lat="46.36684" lon="-0.50825">
        <ele>60.90702</ele>
        <time>2014-01-09T15:05:33Z</time>
      </trkpt>
      <trkpt lat="46.36686" lon="-0.50818">
        <ele>60.90702</ele>
        <time>2014-01-09T15:05:38Z</time>
      </trkpt>
      <trkpt lat="46.36686" lon="-0.5081">
        <ele>60.3125</ele>
        <time>2014-01-09T15:05:43Z</time>
      </trkpt>
      <trkpt lat="46.36687" lon="-0.50803">
        <ele>60.3125</ele>
        <time>2014-01-09T15:05:48Z</time>
      </trkpt>
      <trkpt lat="46.36689" lon="-0.50796">
        <ele>59.66031</ele>
        <time>2014-01-09T15:05:53Z</time>
      </trkpt>
      <trkpt lat="46.3669" lon="-0.50787">
        <ele>59.66031</ele>
        <time>2014-01-09T15:05:58Z</time>
      </trkpt>
      <trkpt lat="46.36689" lon="-0.50779">
        <ele>59.057735</ele>
        <time>2014-01-09T15:06:03Z</time>
      </trkpt>
      <trkpt lat="46.3669" lon="-0.50771">
        <ele>59.057735</ele>
        <time>2014-01-09T15:06:08Z</time>
      </trkpt>
      <trkpt lat="46.3669" lon="-0.5076">
        <ele>58.776947</ele>
        <time>2014-01-09T15:06:13Z</time>
      </trkpt>
      <trkpt lat="46.3669" lon="-0.50753">
        <ele>58.776947</ele>
        <time>2014-01-09T15:06:18Z</time>
      </trkpt>
      <trkpt lat="46.36692" lon="-0.50743">
        <ele>58.43509</ele>
        <time>2014-01-09T15:06:23Z</time>
      </trkpt>
      <trkpt lat="46.36693" lon="-0.50736">
        <ele>58.43509</ele>
        <time>2014-01-09T15:06:28Z</time>
      </trkpt>
      <trkpt lat="46.36694" lon="-0.50727">
        <ele>57.994617</ele>
        <time>2014-01-09T15:06:33Z</time>
      </trkpt>
      <trkpt lat="46.36694" lon="-0.50719">
        <ele>57.994617</ele>
        <time>2014-01-09T15:06:38Z</time>
      </trkpt>
      <trkpt lat="46.36697" lon="-0.5071">
        <ele>57.593918</ele>
        <time>2014-01-09T15:06:43Z</time>
      </trkpt>
      <trkpt lat="46.36696" lon="-0.50702">
        <ele>57.593918</ele>
        <time>2014-01-09T15:06:48Z</time>
      </trkpt>
      <trkpt lat="46.36696" lon="-0.50694">
        <ele>57.361057</ele>
        <time>2014-01-09T15:06:53Z</time>
      </trkpt>
      <trkpt lat="46.36698" lon="-0.50687">
        <ele>57.361057</ele>
        <time>2014-01-09T15:06:58Z</time>
      </trkpt>
      <trkpt lat="46.36699" lon="-0.50679">
        <ele>56.93862</ele>
        <time>2014-01-09T15:07:03Z</time>
      </trkpt>
      <trkpt lat="46.36699" lon="-0.5067">
        <ele>56.93862</ele>
        <time>2014-01-09T15:07:08Z</time>
      </trkpt>
      <trkpt lat="46.367" lon="-0.50662">
        <ele>56.644447</ele>
        <time>2014-01-09T15:07:13Z</time>
      </trkpt>
      <trkpt lat="46.367" lon="-0.50654">
        <ele>56.644447</ele>
        <time>2014-01-09T15:07:18Z</time>
      </trkpt>
      <trkpt lat="46.36701" lon="-0.50645">
        <ele>56.369106</ele>
        <time>2014-01-09T15:07:23Z</time>
      </trkpt>
      <trkpt lat="46.36703" lon="-0.50635">
        <ele>56.369106</ele>
        <time>2014-01-09T15:07:28Z</time>
      </trkpt>
      <trkpt lat="46.36704" lon="-0.50627">
        <ele>56.126415</ele>
        <time>2014-01-09T15:07:33Z</time>
      </trkpt>
      <trkpt lat="46.36704" lon="-0.50619">
        <ele>56.126415</ele>
        <time>2014-01-09T15:07:38Z</time>
      </trkpt>
      <trkpt lat="46.36704" lon="-0.50612">
        <ele>56.0155</ele>
        <time>2014-01-09T15:07:43Z</time>
      </trkpt>
      <trkpt lat="46.36705" lon="-0.50605">
        <ele>56.0155</ele>
        <time>2014-01-09T15:07:48Z</time>
      </trkpt>
      <trkpt lat="46.36708" lon="-0.50598">
        <ele>55.854004</ele>
        <time>2014-01-09T15:07:53Z</time>
      </trkpt>
      <trkpt lat="46.36708" lon="-0.5059">
        <ele>55.854004</ele>
        <time>2014-01-09T15:07:58Z</time>
      </trkpt>
      <trkpt lat="46.36708" lon="-0.50583">
        <ele>55.761276</ele>
        <time>2014-01-09T15:08:03Z</time>
      </trkpt>
      <trkpt lat="46.36708" lon="-0.50573">
        <ele>55.761276</ele>
        <time>2014-01-09T15:08:08Z</time>
      </trkpt>
      <trkpt lat="46.36709" lon="-0.50567">
        <ele>55.83328</ele>
        <time>2014-01-09T15:08:13Z</time>
      </trkpt>
      <trkpt lat="46.36709" lon="-0.50559">
        <ele>55.83328</ele>
        <time>2014-01-09T15:08:18Z</time>
      </trkpt>
      <trkpt lat="46.36709" lon="-0.50549">
        <ele>55.75491</ele>
        <time>2014-01-09T15:08:23Z</time>
      </trkpt>
      <trkpt lat="46.36709" lon="-0.50542">
        <ele>55.75491</ele>
        <time>2014-01-09T15:08:28Z</time>
      </trkpt>
      <trkpt lat="46.36709" lon="-0.50534">
        <ele>55.78223</ele>
        <time>2014-01-09T15:08:33Z</time>
      </trkpt>
      <trkpt lat="46.36708" lon="-0.50525">
        <ele>55.78223</ele>
        <time>2014-01-09T15:08:38Z</time>
      </trkpt>
      <trkpt lat="46.36707" lon="-0.50517">
        <ele>56.10894</ele>
        <time>2014-01-09T15:08:43Z</time>
      </trkpt>
      <trkpt lat="46.36707" lon="-0.50508">
        <ele>56.10894</ele>
        <time>2014-01-09T15:08:48Z</time>
      </trkpt>
      <trkpt lat="46.36707" lon="-0.505">
        <ele>56.481316</ele>
        <time>2014-01-09T15:08:53Z</time>
      </trkpt>
      <trkpt lat="46.36707" lon="-0.50491">
        <ele>56.481316</ele>
        <time>2014-01-09T15:08:58Z</time>
      </trkpt>
      <trkpt lat="46.36708" lon="-0.50483">
        <ele>56.750584</ele>
        <time>2014-01-09T15:09:03Z</time>
      </trkpt>
      <trkpt lat="46.36706" lon="-0.50476">
        <ele>56.750584</ele>
        <time>2014-01-09T15:09:08Z</time>
      </trkpt>
      <trkpt lat="46.36706" lon="-0.50467">
        <ele>57.009766</ele>
        <time>2014-01-09T15:09:13Z</time>
      </trkpt>
      <trkpt lat="46.36706" lon="-0.5046">
        <ele>57.009766</ele>
        <time>2014-01-09T15:09:18Z</time>
      </trkpt>
      <trkpt lat="46.36705" lon="-0.50452">
        <ele>57.287415</ele>
        <time>2014-01-09T15:09:23Z</time>
      </trkpt>
      <trkpt lat="46.36705" lon="-0.50445">
        <ele>57.287415</ele>
        <time>2014-01-09T15:09:28Z</time>
      </trkpt>
      <trkpt lat="46.36704" lon="-0.50437">
        <ele>57.465824</ele>
        <time>2014-01-09T15:09:33Z</time>
      </trkpt>
      <trkpt lat="46.36703" lon="-0.50428">
        <ele>57.465824</ele>
        <time>2014-01-09T15:09:38Z</time>
      </trkpt>
      <trkpt lat="46.36703" lon="-0.50423">
        <ele>57.623554</ele>
        <time>2014-01-09T15:09:43Z</time>
      </trkpt>
      <trkpt lat="46.36701" lon="-0.50414">
        <ele>57.623554</ele>
        <time>2014-01-09T15:09:48Z</time>
      </trkpt>
      <trkpt lat="46.367" lon="-0.50407">
        <ele>57.934334</ele>
        <time>2014-01-09T15:09:53Z</time>
      </trkpt>
      <trkpt lat="46.36698" lon="-0.50398">
        <ele>57.934334</ele>
        <time>2014-01-09T15:09:58Z</time>
      </trkpt>
      <trkpt lat="46.36697" lon="-0.5039">
        <ele>58.51546</ele>
        <time>2014-01-09T15:10:03Z</time>
      </trkpt>
      <trkpt lat="46.36695" lon="-0.50383">
        <ele>58.51546</ele>
        <time>2014-01-09T15:10:08Z</time>
      </trkpt>
      <trkpt lat="46.36693" lon="-0.50374">
        <ele>59.301945</ele>
        <time>2014-01-09T15:10:13Z</time>
      </trkpt>
      <trkpt lat="46.36693" lon="-0.50366">
        <ele>59.301945</ele>
        <time>2014-01-09T15:10:18Z</time>
      </trkpt>
      <trkpt lat="46.36692" lon="-0.50358">
        <ele>59.57009</ele>
        <time>2014-01-09T15:10:23Z</time>
      </trkpt>
      <trkpt lat="46.3669" lon="-0.50351">
        <ele>59.57009</ele>
        <time>2014-01-09T15:10:28Z</time>
      </trkpt>
      <trkpt lat="46.36688" lon="-0.50343">
        <ele>59.760487</ele>
        <time>2014-01-09T15:10:33Z</time>
      </trkpt>
      <trkpt lat="46.36685" lon="-0.50336">
        <ele>59.760487</ele>
        <time>2014-01-09T15:10:38Z</time>
      </trkpt>
      <trkpt lat="46.36684" lon="-0.50328">
        <ele>59.676334</ele>
        <time>2014-01-09T15:10:43Z</time>
      </trkpt>
      <trkpt lat="46.36683" lon="-0.50319">
        <ele>59.676334</ele>
        <time>2014-01-09T15:10:48Z</time>
      </trkpt>
      <trkpt lat="46.36681" lon="-0.50311">
        <ele>59.741333</ele>
        <time>2014-01-09T15:10:53Z</time>
      </trkpt>
      <trkpt lat="46.36678" lon="-0.50304">
        <ele>59.741333</ele>
        <time>2014-01-09T15:10:58Z</time>
      </trkpt>
      <trkpt lat="46.36676" lon="-0.50295">
        <ele>60.21798</ele>
        <time>2014-01-09T15:11:03Z</time>
      </trkpt>
      <trkpt lat="46.36674" lon="-0.50286">
        <ele>60.21798</ele>
        <time>2014-01-09T15:11:08Z</time>
      </trkpt>
      <trkpt lat="46.36672" lon="-0.50279">
        <ele>60.699837</ele>
        <time>2014-01-09T15:11:13Z</time>
      </trkpt>
      <trkpt lat="46.36669" lon="-0.5027">
        <ele>60.699837</ele>
        <time>2014-01-09T15:11:18Z</time>
      </trkpt>
      <trkpt lat="46.36667" lon="-0.50265">
        <ele>61.329144</ele>
        <time>2014-01-09T15:11:23Z</time>
      </trkpt>
      <trkpt lat="46.36666" lon="-0.50257">
        <ele>61.329144</ele>
        <time>2014-01-09T15:11:28Z</time>
      </trkpt>
      <trkpt lat="46.36665" lon="-0.5025">
        <ele>61.58879</ele>
        <time>2014-01-09T15:11:33Z</time>
      </trkpt>
      <trkpt lat="46.36663" lon="-0.50242">
        <ele>61.58879</ele>
        <time>2014-01-09T15:11:38Z</time>
      </trkpt>
      <trkpt lat="46.36661" lon="-0.50234">
        <ele>61.67805</ele>
        <time>2014-01-09T15:11:43Z</time>
      </trkpt>
      <trkpt lat="46.36659" lon="-0.50226">
        <ele>61.67805</ele>
        <time>2014-01-09T15:11:48Z</time>
      </trkpt>
      <trkpt lat="46.36657" lon="-0.50219">
        <ele>61.69559</ele>
        <time>2014-01-09T15:11:53Z</time>
      </trkpt>
      <trkpt lat="46.36655" lon="-0.50212">
        <ele>61.69559</ele>
        <time>2014-01-09T15:11:58Z</time>
      </trkpt>
      <trkpt lat="46.36653" lon="-0.50204">
        <ele>61.776295</ele>
        <time>2014-01-09T15:12:03Z</time>
      </trkpt>
      <trkpt lat="46.36653" lon="-0.50195">
        <ele>61.776295</ele>
        <time>2014-01-09T15:12:08Z</time>
      </trkpt>
      <trkpt lat="46.3665" lon="-0.50187">
        <ele>61.828815</ele>
        <time>2014-01-09T15:12:13Z</time>
      </trkpt>
      <trkpt lat="46.36648" lon="-0.50179">
        <ele>61.828815</ele>
        <time>2014-01-09T15:12:18Z</time>
      </trkpt>
      <trkpt lat="46.36646" lon="-0.50172">
        <ele>62.15773</ele>
        <time>2014-01-09T15:12:23Z</time>
      </trkpt>
      <trkpt lat="46.36644" lon="-0.50164">
        <ele>62.15773</ele>
        <time>2014-01-09T15:12:28Z</time>
      </trkpt>
      <trkpt lat="46.36641" lon="-0.50157">
        <ele>62.626553</ele>
        <time>2014-01-09T15:12:33Z</time>
      </trkpt>
      <trkpt lat="46.3664" lon="-0.5015">
        <ele>62.626553</ele>
        <time>2014-01-09T15:12:38Z</time>
      </trkpt>
      <trkpt lat="46.36639" lon="-0.50144">
        <ele>62.67614</ele>
        <time>2014-01-09T15:12:43Z</time>
      </trkpt>
      <trkpt lat="46.36638" lon="-0.50137">
        <ele>62.67614</ele>
        <time>2014-01-09T15:12:48Z</time>
      </trkpt>
      <trkpt lat="46.36635" lon="-0.50129">
        <ele>62.56781</ele>
        <time>2014-01-09T15:12:53Z</time>
      </trkpt>
      <trkpt lat="46.36634" lon="-0.50121">
        <ele>62.56781</ele>
        <time>2014-01-09T15:12:58Z</time>
      </trkpt>
      <trkpt lat="46.36633" lon="-0.50113">
        <ele>62.6018</ele>
        <time>2014-01-09T15:13:03Z</time>
      </trkpt>
      <trkpt lat="46.3663" lon="-0.50107">
        <ele>62.6018</ele>
        <time>2014-01-09T15:13:08Z</time>
      </trkpt>
      <trkpt lat="46.3663" lon="-0.50099">
        <ele>62.695633</ele>
        <time>2014-01-09T15:13:13Z</time>
      </trkpt>
      <trkpt lat="46.36629" lon="-0.50091">
        <ele>62.695633</ele>
        <time>2014-01-09T15:13:18Z</time>
      </trkpt>
      <trkpt lat="46.36626" lon="-0.50084">
        <ele>62.945683</ele>
        <time>2014-01-09T15:13:23Z</time>
      </trkpt>
      <trkpt lat="46.36625" lon="-0.50075">
        <ele>62.945683</ele>
        <time>2014-01-09T15:13:28Z</time>
      </trkpt>
      <trkpt lat="46.36623" lon="-0.50067">
        <ele>62.950844</ele>
        <time>2014-01-09T15:13:33Z</time>
      </trkpt>
      <trkpt lat="46.36623" lon="-0.5006">
        <ele>62.950844</ele>
        <time>2014-01-09T15:13:38Z</time>
      </trkpt>
      <trkpt lat="46.36621" lon="-0.50052">
        <ele>63.161606</ele>
        <time>2014-01-09T15:13:43Z</time>
      </trkpt>
      <trkpt lat="46.36619" lon="-0.50044">
        <ele>63.161606</ele>
        <time>2014-01-09T15:13:48Z</time>
      </trkpt>
      <trkpt lat="46.36617" lon="-0.50037">
        <ele>63.11574</ele>
        <time>2014-01-09T15:13:53Z</time>
      </trkpt>
      <trkpt lat="46.36616" lon="-0.50029">
        <ele>63.11574</ele>
        <time>2014-01-09T15:13:58Z</time>
      </trkpt>
      <trkpt lat="46.36615" lon="-0.50022">
        <ele>62.9045</ele>
        <time>2014-01-09T15:14:03Z</time>
      </trkpt>
      <trkpt lat="46.36612" lon="-0.50015">
        <ele>62.9045</ele>
        <time>2014-01-09T15:14:08Z</time>
      </trkpt>
      <trkpt lat="46.36611" lon="-0.50008">
        <ele>62.68497</ele>
        <time>2014-01-09T15:14:13Z</time>
      </trkpt>
      <trkpt lat="46.36609" lon="-0.5">
        <ele>62.68497</ele>
        <time>2014-01-09T15:14:18Z</time>
      </trkpt>
      <trkpt lat="46.36607" lon="-0.49991">
        <ele>62.44421</ele>
        <time>2014-01-09T15:14:23Z</time>
      </trkpt>
      <trkpt lat="46.36604" lon="-0.49985">
        <ele>62.44421</ele>
        <time>2014-01-09T15:14:28Z</time>
      </trkpt>
      <trkpt lat="46.36602" lon="-0.49978">
        <ele>62.38646</ele>
        <time>2014-01-09T15:14:33Z</time>
      </trkpt>
      <trkpt lat="46.36599" lon="-0.49971">
        <ele>62.38646</ele>
        <time>2014-01-09T15:14:38Z</time>
      </trkpt>
      <trkpt lat="46.36596" lon="-0.49965">
        <ele>62.52751</ele>
        <time>2014-01-09T15:14:43Z</time>
      </trkpt>
      <trkpt lat="46.36593" lon="-0.49959">
        <ele>62.52751</ele>
        <time>2014-01-09T15:14:48Z</time>
      </trkpt>
      <trkpt lat="46.36588" lon="-0.49952">
        <ele>62.636463</ele>
        <time>2014-01-09T15:14:53Z</time>
      </trkpt>
      <trkpt lat="46.36584" lon="-0.49946">
        <ele>62.636463</ele>
        <time>2014-01-09T15:14:58Z</time>
      </trkpt>
      <trkpt lat="46.3658" lon="-0.4994">
        <ele>62.830917</ele>
        <time>2014-01-09T15:15:03Z</time>
      </trkpt>
      <trkpt lat="46.36576" lon="-0.49934">
        <ele>62.830917</ele>
        <time>2014-01-09T15:15:08Z</time>
      </trkpt>
      <trkpt lat="46.36572" lon="-0.4993">
        <ele>63.061077</ele>
        <time>2014-01-09T15:15:13Z</time>
      </trkpt>
      <trkpt lat="46.3657" lon="-0.49925">
        <ele>63.061077</ele>
        <time>2014-01-09T15:15:18Z</time>
      </trkpt>
      <trkpt lat="46.36566" lon="-0.4992">
        <ele>63.07895</ele>
        <time>2014-01-09T15:15:23Z</time>
      </trkpt>
      <trkpt lat="46.36565" lon="-0.49914">
        <ele>63.07895</ele>
        <time>2014-01-09T15:15:28Z</time>
      </trkpt>
      <trkpt lat="46.36565" lon="-0.4991">
        <ele>63.07895</ele>
        <time>2014-01-09T15:15:33Z</time>
      </trkpt>
      <trkpt lat="46.36567" lon="-0.49905">
        <ele>62.799477</ele>
        <time>2014-01-09T15:15:38Z</time>
      </trkpt>
      <trkpt lat="46.3657" lon="-0.49901">
        <ele>62.799477</ele>
        <time>2014-01-09T15:15:43Z</time>
      </trkpt>
      <trkpt lat="46.36571" lon="-0.49901">
        <ele>62.799477</ele>
        <time>2014-01-09T15:15:48Z</time>
      </trkpt>
      <trkpt lat="46.36571" lon="-0.49901">
        <ele>62.799477</ele>
        <time>2014-01-09T15:15:58Z</time>
      </trkpt>
      <trkpt lat="46.36572" lon="-0.499">
        <ele>62.799477</ele>
        <time>2014-01-09T15:16:03Z</time>
      </trkpt>
      <trkpt lat="46.36572" lon="-0.499">
        <ele>62.799477</ele>
        <time>2014-01-09T15:16:13Z</time>
      </trkpt>
      <trkpt lat="46.36575" lon="-0.49896">
        <ele>62.346436</ele>
        <time>2014-01-09T15:16:38Z</time>
      </trkpt>
      <trkpt lat="46.36579" lon="-0.49893">
        <ele>62.346436</ele>
        <time>2014-01-09T15:16:43Z</time>
      </trkpt>
      <trkpt lat="46.36584" lon="-0.4989">
        <ele>61.89263</ele>
        <time>2014-01-09T15:16:48Z</time>
      </trkpt>
      <trkpt lat="46.36589" lon="-0.49885">
        <ele>61.89263</ele>
        <time>2014-01-09T15:16:53Z</time>
      </trkpt>
      <trkpt lat="46.36594" lon="-0.4988">
        <ele>61.468487</ele>
        <time>2014-01-09T15:16:58Z</time>
      </trkpt>
      <trkpt lat="46.36599" lon="-0.49878">
        <ele>61.468487</ele>
        <time>2014-01-09T15:17:03Z</time>
      </trkpt>
      <trkpt lat="46.36603" lon="-0.49873">
        <ele>60.828274</ele>
        <time>2014-01-09T15:17:08Z</time>
      </trkpt>
      <trkpt lat="46.36607" lon="-0.49868">
        <ele>60.828274</ele>
        <time>2014-01-09T15:17:13Z</time>
      </trkpt>
      <trkpt lat="46.36613" lon="-0.49864">
        <ele>60.061962</ele>
        <time>2014-01-09T15:17:18Z</time>
      </trkpt>
      <trkpt lat="46.36618" lon="-0.49861">
        <ele>60.061962</ele>
        <time>2014-01-09T15:17:23Z</time>
      </trkpt>
      <trkpt lat="46.36623" lon="-0.49856">
        <ele>59.310886</ele>
        <time>2014-01-09T15:17:28Z</time>
      </trkpt>
      <trkpt lat="46.36627" lon="-0.49853">
        <ele>59.310886</ele>
        <time>2014-01-09T15:17:33Z</time>
      </trkpt>
      <trkpt lat="46.36632" lon="-0.49849">
        <ele>58.70593</ele>
        <time>2014-01-09T15:17:38Z</time>
      </trkpt>
      <trkpt lat="46.36638" lon="-0.49846">
        <ele>58.70593</ele>
        <time>2014-01-09T15:17:43Z</time>
      </trkpt>
      <trkpt lat="46.36642" lon="-0.4984">
        <ele>58.108532</ele>
        <time>2014-01-09T15:17:48Z</time>
      </trkpt>
      <trkpt lat="46.36646" lon="-0.49837">
        <ele>58.108532</ele>
        <time>2014-01-09T15:17:53Z</time>
      </trkpt>
      <trkpt lat="46.36649" lon="-0.49833">
        <ele>57.721703</ele>
        <time>2014-01-09T15:17:58Z</time>
      </trkpt>
      <trkpt lat="46.36654" lon="-0.49828">
        <ele>57.721703</ele>
        <time>2014-01-09T15:18:03Z</time>
      </trkpt>
      <trkpt lat="46.36658" lon="-0.49824">
        <ele>57.271767</ele>
        <time>2014-01-09T15:18:08Z</time>
      </trkpt>
      <trkpt lat="46.36663" lon="-0.49819">
        <ele>57.271767</ele>
        <time>2014-01-09T15:18:13Z</time>
      </trkpt>
      <trkpt lat="46.36669" lon="-0.49815">
        <ele>56.937626</ele>
        <time>2014-01-09T15:18:18Z</time>
      </trkpt>
      <trkpt lat="46.36674" lon="-0.49813">
        <ele>56.937626</ele>
        <time>2014-01-09T15:18:23Z</time>
      </trkpt>
      <trkpt lat="46.36677" lon="-0.49809">
        <ele>56.61086</ele>
        <time>2014-01-09T15:18:28Z</time>
      </trkpt>
      <trkpt lat="46.36682" lon="-0.49805">
        <ele>56.61086</ele>
        <time>2014-01-09T15:18:33Z</time>
      </trkpt>
      <trkpt lat="46.36685" lon="-0.49803">
        <ele>56.680943</ele>
        <time>2014-01-09T15:18:38Z</time>
      </trkpt>
      <trkpt lat="46.36689" lon="-0.49799">
        <ele>56.680943</ele>
        <time>2014-01-09T15:18:43Z</time>
      </trkpt>
      <trkpt lat="46.36694" lon="-0.49795">
        <ele>56.78703</ele>
        <time>2014-01-09T15:18:48Z</time>
      </trkpt>
      <trkpt lat="46.36699" lon="-0.4979">
        <ele>56.78703</ele>
        <time>2014-01-09T15:18:53Z</time>
      </trkpt>
      <trkpt lat="46.36704" lon="-0.49787">
        <ele>56.96933</ele>
        <time>2014-01-09T15:18:58Z</time>
      </trkpt>
      <trkpt lat="46.36707" lon="-0.49784">
        <ele>56.96933</ele>
        <time>2014-01-09T15:19:03Z</time>
      </trkpt>
      <trkpt lat="46.36714" lon="-0.49779">
        <ele>57.120758</ele>
        <time>2014-01-09T15:19:08Z</time>
      </trkpt>
      <trkpt lat="46.36714" lon="-0.49775">
        <ele>57.120758</ele>
        <time>2014-01-09T15:19:13Z</time>
      </trkpt>
      <trkpt lat="46.36719" lon="-0.49772">
        <ele>57.120758</ele>
        <time>2014-01-09T15:19:18Z</time>
      </trkpt>
      <trkpt lat="46.36724" lon="-0.49769">
        <ele>57.41596</ele>
        <time>2014-01-09T15:19:23Z</time>
      </trkpt>
      <trkpt lat="46.36726" lon="-0.49767">
        <ele>57.41596</ele>
        <time>2014-01-09T15:19:28Z</time>
      </trkpt>
      <trkpt lat="46.3673" lon="-0.49762">
        <ele>57.41596</ele>
        <time>2014-01-09T15:19:33Z</time>
      </trkpt>
      <trkpt lat="46.36732" lon="-0.49761">
        <ele>57.69928</ele>
        <time>2014-01-09T15:19:38Z</time>
      </trkpt>
      <trkpt lat="46.36733" lon="-0.4976">
        <ele>57.69928</ele>
        <time>2014-01-09T15:19:43Z</time>
      </trkpt>
      <trkpt lat="46.36737" lon="-0.49758">
        <ele>57.69928</ele>
        <time>2014-01-09T15:19:48Z</time>
      </trkpt>
      <trkpt lat="46.36741" lon="-0.49751">
        <ele>57.869747</ele>
        <time>2014-01-09T15:19:53Z</time>
      </trkpt>
      <trkpt lat="46.36746" lon="-0.49748">
        <ele>57.869747</ele>
        <time>2014-01-09T15:19:58Z</time>
      </trkpt>
      <trkpt lat="46.36751" lon="-0.49745">
        <ele>57.97822</ele>
        <time>2014-01-09T15:20:03Z</time>
      </trkpt>
      <trkpt lat="46.36759" lon="-0.49741">
        <ele>57.97822</ele>
        <time>2014-01-09T15:20:08Z</time>
      </trkpt>
      <trkpt lat="46.36762" lon="-0.49737">
        <ele>57.654068</ele>
        <time>2014-01-09T15:20:13Z</time>
      </trkpt>
      <trkpt lat="46.36762" lon="-0.49734">
        <ele>57.654068</ele>
        <time>2014-01-09T15:20:18Z</time>
      </trkpt>
      <trkpt lat="46.36763" lon="-0.49732">
        <ele>57.654068</ele>
        <time>2014-01-09T15:20:23Z</time>
      </trkpt>
      <trkpt lat="46.36767" lon="-0.49728">
        <ele>57.654068</ele>
        <time>2014-01-09T15:20:28Z</time>
      </trkpt>
      <trkpt lat="46.36771" lon="-0.49724">
        <ele>57.376514</ele>
        <time>2014-01-09T15:20:33Z</time>
      </trkpt>
      <trkpt lat="46.36775" lon="-0.4972">
        <ele>57.376514</ele>
        <time>2014-01-09T15:20:38Z</time>
      </trkpt>
      <trkpt lat="46.36777" lon="-0.49714">
        <ele>57.28681</ele>
        <time>2014-01-09T15:20:43Z</time>
      </trkpt>
      <trkpt lat="46.36779" lon="-0.49708">
        <ele>57.28681</ele>
        <time>2014-01-09T15:20:48Z</time>
      </trkpt>
      <trkpt lat="46.36781" lon="-0.49702">
        <ele>57.212658</ele>
        <time>2014-01-09T15:20:53Z</time>
      </trkpt>
      <trkpt lat="46.36782" lon="-0.49697">
        <ele>57.212658</ele>
        <time>2014-01-09T15:20:58Z</time>
      </trkpt>
      <trkpt lat="46.36785" lon="-0.4969">
        <ele>57.224945</ele>
        <time>2014-01-09T15:21:03Z</time>
      </trkpt>
      <trkpt lat="46.36787" lon="-0.49683">
        <ele>57.224945</ele>
        <time>2014-01-09T15:21:08Z</time>
      </trkpt>
      <trkpt lat="46.36788" lon="-0.49677">
        <ele>57.489975</ele>
        <time>2014-01-09T15:21:13Z</time>
      </trkpt>
      <trkpt lat="46.36789" lon="-0.49671">
        <ele>57.489975</ele>
        <time>2014-01-09T15:21:18Z</time>
      </trkpt>
      <trkpt lat="46.36791" lon="-0.49664">
        <ele>58.01701</ele>
        <time>2014-01-09T15:21:23Z</time>
      </trkpt>
      <trkpt lat="46.36794" lon="-0.49658">
        <ele>58.01701</ele>
        <time>2014-01-09T15:21:28Z</time>
      </trkpt>
      <trkpt lat="46.36796" lon="-0.49651">
        <ele>58.61214</ele>
        <time>2014-01-09T15:21:33Z</time>
      </trkpt>
      <trkpt lat="46.36799" lon="-0.49644">
        <ele>58.61214</ele>
        <time>2014-01-09T15:21:38Z</time>
      </trkpt>
      <trkpt lat="46.368" lon="-0.49637">
        <ele>59.066692</ele>
        <time>2014-01-09T15:21:43Z</time>
      </trkpt>
      <trkpt lat="46.36803" lon="-0.49629">
        <ele>59.066692</ele>
        <time>2014-01-09T15:21:48Z</time>
      </trkpt>
      <trkpt lat="46.36805" lon="-0.49622">
        <ele>59.302998</ele>
        <time>2014-01-09T15:21:53Z</time>
      </trkpt>
      <trkpt lat="46.36807" lon="-0.49614">
        <ele>59.302998</ele>
        <time>2014-01-09T15:21:58Z</time>
      </trkpt>
      <trkpt lat="46.3681" lon="-0.49607">
        <ele>59.45149</ele>
        <time>2014-01-09T15:22:03Z</time>
      </trkpt>
      <trkpt lat="46.36813" lon="-0.49599">
        <ele>59.45149</ele>
        <time>2014-01-09T15:22:08Z</time>
      </trkpt>
      <trkpt lat="46.36816" lon="-0.49592">
        <ele>59.74855</ele>
        <time>2014-01-09T15:22:13Z</time>
      </trkpt>
      <trkpt lat="46.36816" lon="-0.49585">
        <ele>59.74855</ele>
        <time>2014-01-09T15:22:18Z</time>
      </trkpt>
      <trkpt lat="46.36819" lon="-0.49578">
        <ele>59.994884</ele>
        <time>2014-01-09T15:22:23Z</time>
      </trkpt>
      <trkpt lat="46.3682" lon="-0.49571">
        <ele>59.994884</ele>
        <time>2014-01-09T15:22:28Z</time>
      </trkpt>
      <trkpt lat="46.36823" lon="-0.49563">
        <ele>60.04922</ele>
        <time>2014-01-09T15:22:33Z</time>
      </trkpt>
      <trkpt lat="46.36826" lon="-0.49555">
        <ele>60.04922</ele>
        <time>2014-01-09T15:22:38Z</time>
      </trkpt>
      <trkpt lat="46.36829" lon="-0.49548">
        <ele>60.127098</ele>
        <time>2014-01-09T15:22:43Z</time>
      </trkpt>
      <trkpt lat="46.36832" lon="-0.4954">
        <ele>60.127098</ele>
        <time>2014-01-09T15:22:48Z</time>
      </trkpt>
      <trkpt lat="46.36833" lon="-0.49532">
        <ele>60.327286</ele>
        <time>2014-01-09T15:22:53Z</time>
      </trkpt>
      <trkpt lat="46.36835" lon="-0.49526">
        <ele>60.327286</ele>
        <time>2014-01-09T15:22:58Z</time>
      </trkpt>
      <trkpt lat="46.36837" lon="-0.49519">
        <ele>60.755386</ele>
        <time>2014-01-09T15:23:03Z</time>
      </trkpt>
      <trkpt lat="46.36838" lon="-0.49513">
        <ele>60.755386</ele>
        <time>2014-01-09T15:23:08Z</time>
      </trkpt>
      <trkpt lat="46.36839" lon="-0.49507">
        <ele>60.755386</ele>
        <time>2014-01-09T15:23:13Z</time>
      </trkpt>
      <trkpt lat="46.3684" lon="-0.495">
        <ele>61.234814</ele>
        <time>2014-01-09T15:23:18Z</time>
      </trkpt>
      <trkpt lat="46.36844" lon="-0.49491">
        <ele>61.234814</ele>
        <time>2014-01-09T15:23:23Z</time>
      </trkpt>
      <trkpt lat="46.36845" lon="-0.49485">
        <ele>61.61624</ele>
        <time>2014-01-09T15:23:28Z</time>
      </trkpt>
      <trkpt lat="46.36847" lon="-0.49477">
        <ele>61.61624</ele>
        <time>2014-01-09T15:23:33Z</time>
      </trkpt>
      <trkpt lat="46.36851" lon="-0.49469">
        <ele>62.02101</ele>
        <time>2014-01-09T15:23:38Z</time>
      </trkpt>
      <trkpt lat="46.36852" lon="-0.49462">
        <ele>62.02101</ele>
        <time>2014-01-09T15:23:43Z</time>
      </trkpt>
      <trkpt lat="46.36854" lon="-0.49454">
        <ele>62.08594</ele>
        <time>2014-01-09T15:23:48Z</time>
      </trkpt>
      <trkpt lat="46.36856" lon="-0.49446">
        <ele>62.08594</ele>
        <time>2014-01-09T15:23:53Z</time>
      </trkpt>
      <trkpt lat="46.36859" lon="-0.49438">
        <ele>62.00872</ele>
        <time>2014-01-09T15:23:58Z</time>
      </trkpt>
      <trkpt lat="46.3686" lon="-0.49431">
        <ele>62.00872</ele>
        <time>2014-01-09T15:24:03Z</time>
      </trkpt>
      <trkpt lat="46.36862" lon="-0.49425">
        <ele>61.74236</ele>
        <time>2014-01-09T15:24:08Z</time>
      </trkpt>
      <trkpt lat="46.36865" lon="-0.49418">
        <ele>61.74236</ele>
        <time>2014-01-09T15:24:13Z</time>
      </trkpt>
      <trkpt lat="46.36868" lon="-0.4941">
        <ele>61.517685</ele>
        <time>2014-01-09T15:24:18Z</time>
      </trkpt>
      <trkpt lat="46.3687" lon="-0.49404">
        <ele>61.517685</ele>
        <time>2014-01-09T15:24:23Z</time>
      </trkpt>
      <trkpt lat="46.36872" lon="-0.49398">
        <ele>61.361122</ele>
        <time>2014-01-09T15:24:28Z</time>
      </trkpt>
      <trkpt lat="46.36874" lon="-0.49391">
        <ele>61.361122</ele>
        <time>2014-01-09T15:24:33Z</time>
      </trkpt>
      <trkpt lat="46.36878" lon="-0.49383">
        <ele>61.26816</ele>
        <time>2014-01-09T15:24:38Z</time>
      </trkpt>
      <trkpt lat="46.3688" lon="-0.49377">
        <ele>61.26816</ele>
        <time>2014-01-09T15:24:43Z</time>
      </trkpt>
      <trkpt lat="46.36883" lon="-0.4937">
        <ele>60.91741</ele>
        <time>2014-01-09T15:24:48Z</time>
      </trkpt>
      <trkpt lat="46.36885" lon="-0.49363">
        <ele>60.91741</ele>
        <time>2014-01-09T15:24:53Z</time>
      </trkpt>
      <trkpt lat="46.36888" lon="-0.49357">
        <ele>60.80444</ele>
        <time>2014-01-09T15:24:58Z</time>
      </trkpt>
      <trkpt lat="46.3689" lon="-0.49351">
        <ele>60.80444</ele>
        <time>2014-01-09T15:25:03Z</time>
      </trkpt>
      <trkpt lat="46.36891" lon="-0.49344">
        <ele>60.724827</ele>
        <time>2014-01-09T15:25:08Z</time>
      </trkpt>
      <trkpt lat="46.36895" lon="-0.49337">
        <ele>60.724827</ele>
        <time>2014-01-09T15:25:13Z</time>
      </trkpt>
      <trkpt lat="46.36897" lon="-0.4933">
        <ele>60.834965</ele>
        <time>2014-01-09T15:25:18Z</time>
      </trkpt>
      <trkpt lat="46.36899" lon="-0.49324">
        <ele>60.834965</ele>
        <time>2014-01-09T15:25:23Z</time>
      </trkpt>
      <trkpt lat="46.36902" lon="-0.49315">
        <ele>60.774826</ele>
        <time>2014-01-09T15:25:28Z</time>
      </trkpt>
      <trkpt lat="46.36904" lon="-0.49309">
        <ele>60.774826</ele>
        <time>2014-01-09T15:25:33Z</time>
      </trkpt>
      <trkpt lat="46.36907" lon="-0.493">
        <ele>60.773357</ele>
        <time>2014-01-09T15:25:38Z</time>
      </trkpt>
      <trkpt lat="46.3691" lon="-0.49293">
        <ele>60.773357</ele>
        <time>2014-01-09T15:25:43Z</time>
      </trkpt>
      <trkpt lat="46.36912" lon="-0.49286">
        <ele>60.71106</ele>
        <time>2014-01-09T15:25:48Z</time>
      </trkpt>
      <trkpt lat="46.36914" lon="-0.4928">
        <ele>60.71106</ele>
        <time>2014-01-09T15:25:53Z</time>
      </trkpt>
      <trkpt lat="46.36916" lon="-0.49273">
        <ele>60.578266</ele>
        <time>2014-01-09T15:25:58Z</time>
      </trkpt>
      <trkpt lat="46.36918" lon="-0.49265">
        <ele>60.578266</ele>
        <time>2014-01-09T15:26:03Z</time>
      </trkpt>
      <trkpt lat="46.36919" lon="-0.49259">
        <ele>60.495922</ele>
        <time>2014-01-09T15:26:08Z</time>
      </trkpt>
      <trkpt lat="46.36921" lon="-0.49253">
        <ele>60.495922</ele>
        <time>2014-01-09T15:26:13Z</time>
      </trkpt>
      <trkpt lat="46.36922" lon="-0.49246">
        <ele>60.53271</ele>
        <time>2014-01-09T15:26:18Z</time>
      </trkpt>
      <trkpt lat="46.36923" lon="-0.4924">
        <ele>60.53271</ele>
        <time>2014-01-09T15:26:23Z</time>
      </trkpt>
      <trkpt lat="46.36924" lon="-0.49234">
        <ele>60.622234</ele>
        <time>2014-01-09T15:26:28Z</time>
      </trkpt>
      <trkpt lat="46.36924" lon="-0.49229">
        <ele>60.622234</ele>
        <time>2014-01-09T15:26:33Z</time>
      </trkpt>
      <trkpt lat="46.36924" lon="-0.49227">
        <ele>60.622234</ele>
        <time>2014-01-09T15:26:38Z</time>
      </trkpt>
      <trkpt lat="46.36923" lon="-0.49222">
        <ele>60.622234</ele>
        <time>2014-01-09T15:26:43Z</time>
      </trkpt>
      <trkpt lat="46.36922" lon="-0.49216">
        <ele>60.558712</ele>
        <time>2014-01-09T15:26:48Z</time>
      </trkpt>
      <trkpt lat="46.36924" lon="-0.49208">
        <ele>60.558712</ele>
        <time>2014-01-09T15:26:53Z</time>
      </trkpt>
      <trkpt lat="46.36924" lon="-0.492">
        <ele>60.32485</ele>
        <time>2014-01-09T15:26:58Z</time>
      </trkpt>
      <trkpt lat="46.36924" lon="-0.49193">
        <ele>60.32485</ele>
        <time>2014-01-09T15:27:03Z</time>
      </trkpt>
      <trkpt lat="46.36924" lon="-0.49184">
        <ele>59.962727</ele>
        <time>2014-01-09T15:27:08Z</time>
      </trkpt>
      <trkpt lat="46.36924" lon="-0.49176">
        <ele>59.962727</ele>
        <time>2014-01-09T15:27:13Z</time>
      </trkpt>
      <trkpt lat="46.36925" lon="-0.49168">
        <ele>59.598167</ele>
        <time>2014-01-09T15:27:18Z</time>
      </trkpt>
      <trkpt lat="46.36926" lon="-0.49162">
        <ele>59.598167</ele>
        <time>2014-01-09T15:27:23Z</time>
      </trkpt>
      <trkpt lat="46.36927" lon="-0.49154">
        <ele>59.37657</ele>
        <time>2014-01-09T15:27:28Z</time>
      </trkpt>
      <trkpt lat="46.36928" lon="-0.49146">
        <ele>59.37657</ele>
        <time>2014-01-09T15:27:33Z</time>
      </trkpt>
      <trkpt lat="46.36928" lon="-0.49138">
        <ele>59.18726</ele>
        <time>2014-01-09T15:27:38Z</time>
      </trkpt>
      <trkpt lat="46.36929" lon="-0.49131">
        <ele>59.18726</ele>
        <time>2014-01-09T15:27:43Z</time>
      </trkpt>
      <trkpt lat="46.36929" lon="-0.49123">
        <ele>58.898758</ele>
        <time>2014-01-09T15:27:48Z</time>
      </trkpt>
      <trkpt lat="46.36931" lon="-0.49115">
        <ele>58.898758</ele>
        <time>2014-01-09T15:27:53Z</time>
      </trkpt>
      <trkpt lat="46.36932" lon="-0.49108">
        <ele>58.49039</ele>
        <time>2014-01-09T15:27:58Z</time>
      </trkpt>
      <trkpt lat="46.36931" lon="-0.491">
        <ele>58.49039</ele>
        <time>2014-01-09T15:28:03Z</time>
      </trkpt>
      <trkpt lat="46.36932" lon="-0.49092">
        <ele>58.11627</ele>
        <time>2014-01-09T15:28:08Z</time>
      </trkpt>
      <trkpt lat="46.36933" lon="-0.49085">
        <ele>58.11627</ele>
        <time>2014-01-09T15:28:13Z</time>
      </trkpt>
      <trkpt lat="46.36934" lon="-0.49076">
        <ele>57.717297</ele>
        <time>2014-01-09T15:28:18Z</time>
      </trkpt>
      <trkpt lat="46.36934" lon="-0.49069">
        <ele>57.717297</ele>
        <time>2014-01-09T15:28:23Z</time>
      </trkpt>
      <trkpt lat="46.36936" lon="-0.49061">
        <ele>57.325256</ele>
        <time>2014-01-09T15:28:28Z</time>
      </trkpt>
      <trkpt lat="46.36937" lon="-0.49054">
        <ele>57.325256</ele>
        <time>2014-01-09T15:28:33Z</time>
      </trkpt>
      <trkpt lat="46.36939" lon="-0.49046">
        <ele>56.9119</ele>
        <time>2014-01-09T15:28:38Z</time>
      </trkpt>
      <trkpt lat="46.3694" lon="-0.49039">
        <ele>56.9119</ele>
        <time>2014-01-09T15:28:43Z</time>
      </trkpt>
      <trkpt lat="46.36941" lon="-0.49032">
        <ele>56.50874</ele>
        <time>2014-01-09T15:28:48Z</time>
      </trkpt>
      <trkpt lat="46.36942" lon="-0.49024">
        <ele>56.50874</ele>
        <time>2014-01-09T15:28:53Z</time>
      </trkpt>
      <trkpt lat="46.36943" lon="-0.49016">
        <ele>56.144924</ele>
        <time>2014-01-09T15:28:58Z</time>
      </trkpt>
      <trkpt lat="46.36944" lon="-0.49009">
        <ele>56.144924</ele>
        <time>2014-01-09T15:29:03Z</time>
      </trkpt>
      <trkpt lat="46.36944" lon="-0.49002">
        <ele>55.948193</ele>
        <time>2014-01-09T15:29:08Z</time>
      </trkpt>
      <trkpt lat="46.36946" lon="-0.48994">
        <ele>55.948193</ele>
        <time>2014-01-09T15:29:13Z</time>
      </trkpt>
      <trkpt lat="46.36946" lon="-0.48986">
        <ele>55.76261</ele>
        <time>2014-01-09T15:29:18Z</time>
      </trkpt>
      <trkpt lat="46.36948" lon="-0.48979">
        <ele>55.76261</ele>
        <time>2014-01-09T15:29:23Z</time>
      </trkpt>
      <trkpt lat="46.36948" lon="-0.4897">
        <ele>55.703033</ele>
        <time>2014-01-09T15:29:28Z</time>
      </trkpt>
      <trkpt lat="46.36949" lon="-0.48963">
        <ele>55.703033</ele>
        <time>2014-01-09T15:29:33Z</time>
      </trkpt>
      <trkpt lat="46.36949" lon="-0.48955">
        <ele>55.58728</ele>
        <time>2014-01-09T15:29:38Z</time>
      </trkpt>
      <trkpt lat="46.36949" lon="-0.48946">
        <ele>55.58728</ele>
        <time>2014-01-09T15:29:43Z</time>
      </trkpt>
      <trkpt lat="46.36951" lon="-0.48938">
        <ele>55.18905</ele>
        <time>2014-01-09T15:29:48Z</time>
      </trkpt>
      <trkpt lat="46.3695" lon="-0.4893">
        <ele>55.18905</ele>
        <time>2014-01-09T15:29:53Z</time>
      </trkpt>
      <trkpt lat="46.3695" lon="-0.48923">
        <ele>54.760574</ele>
        <time>2014-01-09T15:29:58Z</time>
      </trkpt>
      <trkpt lat="46.36952" lon="-0.48915">
        <ele>54.760574</ele>
        <time>2014-01-09T15:30:03Z</time>
      </trkpt>
      <trkpt lat="46.36954" lon="-0.48907">
        <ele>54.333878</ele>
        <time>2014-01-09T15:30:08Z</time>
      </trkpt>
      <trkpt lat="46.36956" lon="-0.48899">
        <ele>54.333878</ele>
        <time>2014-01-09T15:30:13Z</time>
      </trkpt>
      <trkpt lat="46.36957" lon="-0.48892">
        <ele>53.996243</ele>
        <time>2014-01-09T15:30:18Z</time>
      </trkpt>
      <trkpt lat="46.36961" lon="-0.48884">
        <ele>53.996243</ele>
        <time>2014-01-09T15:30:23Z</time>
      </trkpt>
      <trkpt lat="46.36961" lon="-0.48876">
        <ele>53.640923</ele>
        <time>2014-01-09T15:30:28Z</time>
      </trkpt>
      <trkpt lat="46.36961" lon="-0.48869">
        <ele>53.640923</ele>
        <time>2014-01-09T15:30:33Z</time>
      </trkpt>
      <trkpt lat="46.36962" lon="-0.48862">
        <ele>53.35638</ele>
        <time>2014-01-09T15:30:38Z</time>
      </trkpt>
      <trkpt lat="46.36962" lon="-0.48854">
        <ele>53.35638</ele>
        <time>2014-01-09T15:30:43Z</time>
      </trkpt>
      <trkpt lat="46.36963" lon="-0.48847">
        <ele>53.022602</ele>
        <time>2014-01-09T15:30:48Z</time>
      </trkpt>
      <trkpt lat="46.36963" lon="-0.4884">
        <ele>53.022602</ele>
        <time>2014-01-09T15:30:53Z</time>
      </trkpt>
      <trkpt lat="46.36962" lon="-0.48833">
        <ele>52.7879</ele>
        <time>2014-01-09T15:30:58Z</time>
      </trkpt>
      <trkpt lat="46.36963" lon="-0.48824">
        <ele>52.7879</ele>
        <time>2014-01-09T15:31:03Z</time>
      </trkpt>
      <trkpt lat="46.36964" lon="-0.48817">
        <ele>52.472347</ele>
        <time>2014-01-09T15:31:08Z</time>
      </trkpt>
      <trkpt lat="46.36965" lon="-0.48809">
        <ele>52.472347</ele>
        <time>2014-01-09T15:31:13Z</time>
      </trkpt>
      <trkpt lat="46.36966" lon="-0.48801">
        <ele>51.967087</ele>
        <time>2014-01-09T15:31:18Z</time>
      </trkpt>
      <trkpt lat="46.36968" lon="-0.48794">
        <ele>51.967087</ele>
        <time>2014-01-09T15:31:23Z</time>
      </trkpt>
      <trkpt lat="46.3697" lon="-0.48787">
        <ele>51.604088</ele>
        <time>2014-01-09T15:31:28Z</time>
      </trkpt>
      <trkpt lat="46.36971" lon="-0.48778">
        <ele>51.604088</ele>
        <time>2014-01-09T15:31:33Z</time>
      </trkpt>
      <trkpt lat="46.36972" lon="-0.48771">
        <ele>51.200546</ele>
        <time>2014-01-09T15:31:38Z</time>
      </trkpt>
      <trkpt lat="46.36974" lon="-0.48763">
        <ele>51.200546</ele>
        <time>2014-01-09T15:31:43Z</time>
      </trkpt>
      <trkpt lat="46.36975" lon="-0.48755">
        <ele>50.87539</ele>
        <time>2014-01-09T15:31:48Z</time>
      </trkpt>
      <trkpt lat="46.36975" lon="-0.48747">
        <ele>50.87539</ele>
        <time>2014-01-09T15:31:53Z</time>
      </trkpt>
      <trkpt lat="46.36976" lon="-0.4874">
        <ele>50.378284</ele>
        <time>2014-01-09T15:31:58Z</time>
      </trkpt>
      <trkpt lat="46.36977" lon="-0.48733">
        <ele>50.378284</ele>
        <time>2014-01-09T15:32:03Z</time>
      </trkpt>
      <trkpt lat="46.36976" lon="-0.48726">
        <ele>49.924496</ele>
        <time>2014-01-09T15:32:08Z</time>
      </trkpt>
      <trkpt lat="46.36977" lon="-0.48718">
        <ele>49.924496</ele>
        <time>2014-01-09T15:32:13Z</time>
      </trkpt>
      <trkpt lat="46.36979" lon="-0.48711">
        <ele>49.52598</ele>
        <time>2014-01-09T15:32:18Z</time>
      </trkpt>
      <trkpt lat="46.36981" lon="-0.48704">
        <ele>49.52598</ele>
        <time>2014-01-09T15:32:23Z</time>
      </trkpt>
      <trkpt lat="46.36984" lon="-0.48697">
        <ele>49.193645</ele>
        <time>2014-01-09T15:32:28Z</time>
      </trkpt>
      <trkpt lat="46.36986" lon="-0.4869">
        <ele>49.193645</ele>
        <time>2014-01-09T15:32:33Z</time>
      </trkpt>
      <trkpt lat="46.36986" lon="-0.48681">
        <ele>49.081486</ele>
        <time>2014-01-09T15:32:38Z</time>
      </trkpt>
      <trkpt lat="46.36988" lon="-0.48675">
        <ele>49.081486</ele>
        <time>2014-01-09T15:32:43Z</time>
      </trkpt>
      <trkpt lat="46.36991" lon="-0.48667">
        <ele>48.95686</ele>
        <time>2014-01-09T15:32:48Z</time>
      </trkpt>
      <trkpt lat="46.36992" lon="-0.48659">
        <ele>48.95686</ele>
        <time>2014-01-09T15:32:53Z</time>
      </trkpt>
      <trkpt lat="46.36993" lon="-0.48652">
        <ele>48.9501</ele>
        <time>2014-01-09T15:32:58Z</time>
      </trkpt>
      <trkpt lat="46.36995" lon="-0.48645">
        <ele>48.9501</ele>
        <time>2014-01-09T15:33:03Z</time>
      </trkpt>
      <trkpt lat="46.36996" lon="-0.48637">
        <ele>49.008682</ele>
        <time>2014-01-09T15:33:08Z</time>
      </trkpt>
      <trkpt lat="46.36998" lon="-0.4863">
        <ele>49.008682</ele>
        <time>2014-01-09T15:33:13Z</time>
      </trkpt>
      <trkpt lat="46.36999" lon="-0.48623">
        <ele>49.02609</ele>
        <time>2014-01-09T15:33:18Z</time>
      </trkpt>
      <trkpt lat="46.37" lon="-0.48616">
        <ele>49.02609</ele>
        <time>2014-01-09T15:33:23Z</time>
      </trkpt>
      <trkpt lat="46.37001" lon="-0.48608">
        <ele>49.091084</ele>
        <time>2014-01-09T15:33:28Z</time>
      </trkpt>
      <trkpt lat="46.37002" lon="-0.486">
        <ele>49.091084</ele>
        <time>2014-01-09T15:33:33Z</time>
      </trkpt>
      <trkpt lat="46.37005" lon="-0.48593">
        <ele>49.30018</ele>
        <time>2014-01-09T15:33:38Z</time>
      </trkpt>
      <trkpt lat="46.37006" lon="-0.48586">
        <ele>49.30018</ele>
        <time>2014-01-09T15:33:43Z</time>
      </trkpt>
      <trkpt lat="46.37007" lon="-0.48578">
        <ele>49.51181</ele>
        <time>2014-01-09T15:33:48Z</time>
      </trkpt>
      <trkpt lat="46.37006" lon="-0.48571">
        <ele>49.51181</ele>
        <time>2014-01-09T15:33:53Z</time>
      </trkpt>
      <trkpt lat="46.37005" lon="-0.48564">
        <ele>49.63803</ele>
        <time>2014-01-09T15:33:58Z</time>
      </trkpt>
      <trkpt lat="46.37005" lon="-0.48555">
        <ele>49.63803</ele>
        <time>2014-01-09T15:34:03Z</time>
      </trkpt>
      <trkpt lat="46.37005" lon="-0.48548">
        <ele>49.972294</ele>
        <time>2014-01-09T15:34:08Z</time>
      </trkpt>
      <trkpt lat="46.37005" lon="-0.48541">
        <ele>49.972294</ele>
        <time>2014-01-09T15:34:13Z</time>
      </trkpt>
      <trkpt lat="46.37005" lon="-0.48533">
        <ele>50.20947</ele>
        <time>2014-01-09T15:34:18Z</time>
      </trkpt>
      <trkpt lat="46.37004" lon="-0.48525">
        <ele>50.20947</ele>
        <time>2014-01-09T15:34:23Z</time>
      </trkpt>
      <trkpt lat="46.37005" lon="-0.48518">
        <ele>50.35535</ele>
        <time>2014-01-09T15:34:28Z</time>
      </trkpt>
      <trkpt lat="46.37006" lon="-0.4851">
        <ele>50.35535</ele>
        <time>2014-01-09T15:34:33Z</time>
      </trkpt>
      <trkpt lat="46.37007" lon="-0.485">
        <ele>50.170578</ele>
        <time>2014-01-09T15:34:38Z</time>
      </trkpt>
      <trkpt lat="46.37008" lon="-0.48493">
        <ele>50.170578</ele>
        <time>2014-01-09T15:34:43Z</time>
      </trkpt>
      <trkpt lat="46.37009" lon="-0.48485">
        <ele>49.967533</ele>
        <time>2014-01-09T15:34:48Z</time>
      </trkpt>
      <trkpt lat="46.3701" lon="-0.48476">
        <ele>49.967533</ele>
        <time>2014-01-09T15:34:53Z</time>
      </trkpt>
      <trkpt lat="46.37009" lon="-0.48468">
        <ele>49.80514</ele>
        <time>2014-01-09T15:34:58Z</time>
      </trkpt>
      <trkpt lat="46.37008" lon="-0.4846">
        <ele>49.80514</ele>
        <time>2014-01-09T15:35:03Z</time>
      </trkpt>
      <trkpt lat="46.37008" lon="-0.48452">
        <ele>49.564957</ele>
        <time>2014-01-09T15:35:08Z</time>
      </trkpt>
      <trkpt lat="46.37007" lon="-0.48447">
        <ele>49.564957</ele>
        <time>2014-01-09T15:35:13Z</time>
      </trkpt>
      <trkpt lat="46.37006" lon="-0.48438">
        <ele>49.36805</ele>
        <time>2014-01-09T15:35:18Z</time>
      </trkpt>
      <trkpt lat="46.37005" lon="-0.4843">
        <ele>49.36805</ele>
        <time>2014-01-09T15:35:23Z</time>
      </trkpt>
      <trkpt lat="46.37003" lon="-0.48422">
        <ele>49.19679</ele>
        <time>2014-01-09T15:35:28Z</time>
      </trkpt>
      <trkpt lat="46.37001" lon="-0.48415">
        <ele>49.19679</ele>
        <time>2014-01-09T15:35:33Z</time>
      </trkpt>
      <trkpt lat="46.37001" lon="-0.48407">
        <ele>49.092422</ele>
        <time>2014-01-09T15:35:38Z</time>
      </trkpt>
      <trkpt lat="46.37" lon="-0.484">
        <ele>49.092422</ele>
        <time>2014-01-09T15:35:43Z</time>
      </trkpt>
      <trkpt lat="46.36997" lon="-0.48392">
        <ele>49.035343</ele>
        <time>2014-01-09T15:35:48Z</time>
      </trkpt>
      <trkpt lat="46.36996" lon="-0.48385">
        <ele>49.035343</ele>
        <time>2014-01-09T15:35:53Z</time>
      </trkpt>
      <trkpt lat="46.36994" lon="-0.48377">
        <ele>49.007267</ele>
        <time>2014-01-09T15:35:58Z</time>
      </trkpt>
      <trkpt lat="46.36993" lon="-0.4837">
        <ele>49.007267</ele>
        <time>2014-01-09T15:36:03Z</time>
      </trkpt>
      <trkpt lat="46.36991" lon="-0.48364">
        <ele>48.933533</ele>
        <time>2014-01-09T15:36:08Z</time>
      </trkpt>
      <trkpt lat="46.3699" lon="-0.48357">
        <ele>48.933533</ele>
        <time>2014-01-09T15:36:13Z</time>
      </trkpt>
      <trkpt lat="46.36987" lon="-0.48349">
        <ele>48.874817</ele>
        <time>2014-01-09T15:36:18Z</time>
      </trkpt>
      <trkpt lat="46.36986" lon="-0.48343">
        <ele>48.874817</ele>
        <time>2014-01-09T15:36:23Z</time>
      </trkpt>
      <trkpt lat="46.36985" lon="-0.48335">
        <ele>49.002583</ele>
        <time>2014-01-09T15:36:28Z</time>
      </trkpt>
      <trkpt lat="46.36983" lon="-0.48329">
        <ele>49.002583</ele>
        <time>2014-01-09T15:36:33Z</time>
      </trkpt>
      <trkpt lat="46.36982" lon="-0.48323">
        <ele>49.17256</ele>
        <time>2014-01-09T15:36:38Z</time>
      </trkpt>
      <trkpt lat="46.36983" lon="-0.48315">
        <ele>49.17256</ele>
        <time>2014-01-09T15:36:43Z</time>
      </trkpt>
      <trkpt lat="46.36981" lon="-0.48306">
        <ele>49.423912</ele>
        <time>2014-01-09T15:36:48Z</time>
      </trkpt>
      <trkpt lat="46.36981" lon="-0.48297">
        <ele>49.423912</ele>
        <time>2014-01-09T15:36:53Z</time>
      </trkpt>
      <trkpt lat="46.36981" lon="-0.48292">
        <ele>49.691826</ele>
        <time>2014-01-09T15:36:58Z</time>
      </trkpt>
      <trkpt lat="46.36981" lon="-0.48284">
        <ele>49.691826</ele>
        <time>2014-01-09T15:37:03Z</time>
      </trkpt>
      <trkpt lat="46.3698" lon="-0.48278">
        <ele>49.72888</ele>
        <time>2014-01-09T15:37:08Z</time>
      </trkpt>
      <trkpt lat="46.3698" lon="-0.48268">
        <ele>49.72888</ele>
        <time>2014-01-09T15:37:13Z</time>
      </trkpt>
      <trkpt lat="46.3698" lon="-0.48262">
        <ele>49.882942</ele>
        <time>2014-01-09T15:37:18Z</time>
      </trkpt>
      <trkpt lat="46.3698" lon="-0.48253">
        <ele>49.882942</ele>
        <time>2014-01-09T15:37:23Z</time>
      </trkpt>
      <trkpt lat="46.3698" lon="-0.48245">
        <ele>49.942806</ele>
        <time>2014-01-09T15:37:28Z</time>
      </trkpt>
      <trkpt lat="46.3698" lon="-0.48238">
        <ele>49.942806</ele>
        <time>2014-01-09T15:37:33Z</time>
      </trkpt>
      <trkpt lat="46.36981" lon="-0.4823">
        <ele>49.98687</ele>
        <time>2014-01-09T15:37:38Z</time>
      </trkpt>
      <trkpt lat="46.36981" lon="-0.48223">
        <ele>49.98687</ele>
        <time>2014-01-09T15:37:43Z</time>
      </trkpt>
      <trkpt lat="46.36982" lon="-0.48215">
        <ele>50.03021</ele>
        <time>2014-01-09T15:37:48Z</time>
      </trkpt>
      <trkpt lat="46.36983" lon="-0.48207">
        <ele>50.03021</ele>
        <time>2014-01-09T15:37:53Z</time>
      </trkpt>
      <trkpt lat="46.36984" lon="-0.482">
        <ele>49.97151</ele>
        <time>2014-01-09T15:37:58Z</time>
      </trkpt>
      <trkpt lat="46.36984" lon="-0.48192">
        <ele>49.97151</ele>
        <time>2014-01-09T15:38:03Z</time>
      </trkpt>
      <trkpt lat="46.36985" lon="-0.48185">
        <ele>49.904568</ele>
        <time>2014-01-09T15:38:08Z</time>
      </trkpt>
      <trkpt lat="46.36985" lon="-0.48178">
        <ele>49.904568</ele>
        <time>2014-01-09T15:38:13Z</time>
      </trkpt>
      <trkpt lat="46.36986" lon="-0.4817">
        <ele>49.656918</ele>
        <time>2014-01-09T15:38:18Z</time>
      </trkpt>
      <trkpt lat="46.36988" lon="-0.48163">
        <ele>49.656918</ele>
        <time>2014-01-09T15:38:23Z</time>
      </trkpt>
      <trkpt lat="46.3699" lon="-0.48155">
        <ele>49.443985</ele>
        <time>2014-01-09T15:38:28Z</time>
      </trkpt>
      <trkpt lat="46.3699" lon="-0.48147">
        <ele>49.443985</ele>
        <time>2014-01-09T15:38:33Z</time>
      </trkpt>
      <trkpt lat="46.36992" lon="-0.4814">
        <ele>49.26353</ele>
        <time>2014-01-09T15:38:38Z</time>
      </trkpt>
      <trkpt lat="46.36993" lon="-0.48132">
        <ele>49.26353</ele>
        <time>2014-01-09T15:38:43Z</time>
      </trkpt>
      <trkpt lat="46.36994" lon="-0.48124">
        <ele>49.04135</ele>
        <time>2014-01-09T15:38:48Z</time>
      </trkpt>
      <trkpt lat="46.36995" lon="-0.48117">
        <ele>49.04135</ele>
        <time>2014-01-09T15:38:53Z</time>
      </trkpt>
      <trkpt lat="46.36997" lon="-0.48109">
        <ele>48.896164</ele>
        <time>2014-01-09T15:38:58Z</time>
      </trkpt>
      <trkpt lat="46.36998" lon="-0.48102">
        <ele>48.896164</ele>
        <time>2014-01-09T15:39:03Z</time>
      </trkpt>
      <trkpt lat="46.37" lon="-0.48095">
        <ele>48.779243</ele>
        <time>2014-01-09T15:39:08Z</time>
      </trkpt>
      <trkpt lat="46.37002" lon="-0.48087">
        <ele>48.779243</ele>
        <time>2014-01-09T15:39:13Z</time>
      </trkpt>
      <trkpt lat="46.37003" lon="-0.4808">
        <ele>48.645367</ele>
        <time>2014-01-09T15:39:18Z</time>
      </trkpt>
      <trkpt lat="46.37006" lon="-0.48073">
        <ele>48.645367</ele>
        <time>2014-01-09T15:39:23Z</time>
      </trkpt>
      <trkpt lat="46.37007" lon="-0.48066">
        <ele>48.452694</ele>
        <time>2014-01-09T15:39:28Z</time>
      </trkpt>
      <trkpt lat="46.37009" lon="-0.4806">
        <ele>48.452694</ele>
        <time>2014-01-09T15:39:33Z</time>
      </trkpt>
      <trkpt lat="46.37012" lon="-0.48053">
        <ele>48.249096</ele>
        <time>2014-01-09T15:39:38Z</time>
      </trkpt>
      <trkpt lat="46.37014" lon="-0.48047">
        <ele>48.249096</ele>
        <time>2014-01-09T15:39:43Z</time>
      </trkpt>
      <trkpt lat="46.37016" lon="-0.48039">
        <ele>47.94926</ele>
        <time>2014-01-09T15:39:48Z</time>
      </trkpt>
      <trkpt lat="46.37018" lon="-0.48032">
        <ele>47.94926</ele>
        <time>2014-01-09T15:39:53Z</time>
      </trkpt>
      <trkpt lat="46.3702" lon="-0.48025">
        <ele>47.58971</ele>
        <time>2014-01-09T15:39:58Z</time>
      </trkpt>
      <trkpt lat="46.37021" lon="-0.48019">
        <ele>47.58971</ele>
        <time>2014-01-09T15:40:03Z</time>
      </trkpt>
      <trkpt lat="46.37023" lon="-0.4801">
        <ele>47.20445</ele>
        <time>2014-01-09T15:40:08Z</time>
      </trkpt>
      <trkpt lat="46.37025" lon="-0.48002">
        <ele>47.20445</ele>
        <time>2014-01-09T15:40:13Z</time>
      </trkpt>
      <trkpt lat="46.37027" lon="-0.47995">
        <ele>46.91152</ele>
        <time>2014-01-09T15:40:18Z</time>
      </trkpt>
      <trkpt lat="46.37027" lon="-0.47987">
        <ele>46.91152</ele>
        <time>2014-01-09T15:40:23Z</time>
      </trkpt>
      <trkpt lat="46.37029" lon="-0.4798">
        <ele>46.76239</ele>
        <time>2014-01-09T15:40:28Z</time>
      </trkpt>
      <trkpt lat="46.3703" lon="-0.47972">
        <ele>46.76239</ele>
        <time>2014-01-09T15:40:33Z</time>
      </trkpt>
      <trkpt lat="46.37031" lon="-0.47965">
        <ele>46.516125</ele>
        <time>2014-01-09T15:40:38Z</time>
      </trkpt>
      <trkpt lat="46.37031" lon="-0.47957">
        <ele>46.516125</ele>
        <time>2014-01-09T15:40:43Z</time>
      </trkpt>
      <trkpt lat="46.37032" lon="-0.47949">
        <ele>46.252373</ele>
        <time>2014-01-09T15:40:48Z</time>
      </trkpt>
      <trkpt lat="46.37034" lon="-0.47941">
        <ele>46.252373</ele>
        <time>2014-01-09T15:40:53Z</time>
      </trkpt>
      <trkpt lat="46.37035" lon="-0.47933">
        <ele>46.0594</ele>
        <time>2014-01-09T15:40:58Z</time>
      </trkpt>
      <trkpt lat="46.37035" lon="-0.47926">
        <ele>46.0594</ele>
        <time>2014-01-09T15:41:03Z</time>
      </trkpt>
      <trkpt lat="46.37036" lon="-0.47918">
        <ele>45.817017</ele>
        <time>2014-01-09T15:41:08Z</time>
      </trkpt>
      <trkpt lat="46.37037" lon="-0.47911">
        <ele>45.817017</ele>
        <time>2014-01-09T15:41:13Z</time>
      </trkpt>
      <trkpt lat="46.37037" lon="-0.47903">
        <ele>45.601345</ele>
        <time>2014-01-09T15:41:18Z</time>
      </trkpt>
      <trkpt lat="46.37039" lon="-0.47895">
        <ele>45.601345</ele>
        <time>2014-01-09T15:41:23Z</time>
      </trkpt>
      <trkpt lat="46.3704" lon="-0.47888">
        <ele>45.381954</ele>
        <time>2014-01-09T15:41:28Z</time>
      </trkpt>
      <trkpt lat="46.3704" lon="-0.4788">
        <ele>45.381954</ele>
        <time>2014-01-09T15:41:33Z</time>
      </trkpt>
      <trkpt lat="46.37041" lon="-0.47872">
        <ele>45.10182</ele>
        <time>2014-01-09T15:41:38Z</time>
      </trkpt>
      <trkpt lat="46.37042" lon="-0.47864">
        <ele>45.10182</ele>
        <time>2014-01-09T15:41:43Z</time>
      </trkpt>
      <trkpt lat="46.37043" lon="-0.47857">
        <ele>44.852394</ele>
        <time>2014-01-09T15:41:48Z</time>
      </trkpt>
      <trkpt lat="46.37043" lon="-0.47849">
        <ele>44.852394</ele>
        <time>2014-01-09T15:41:53Z</time>
      </trkpt>
      <trkpt lat="46.37044" lon="-0.47841">
        <ele>44.61742</ele>
        <time>2014-01-09T15:41:58Z</time>
      </trkpt>
      <trkpt lat="46.37045" lon="-0.47833">
        <ele>44.61742</ele>
        <time>2014-01-09T15:42:03Z</time>
      </trkpt>
      <trkpt lat="46.37046" lon="-0.47825">
        <ele>44.35297</ele>
        <time>2014-01-09T15:42:08Z</time>
      </trkpt>
      <trkpt lat="46.37046" lon="-0.47816">
        <ele>44.35297</ele>
        <time>2014-01-09T15:42:13Z</time>
      </trkpt>
      <trkpt lat="46.37047" lon="-0.47809">
        <ele>44.220177</ele>
        <time>2014-01-09T15:42:18Z</time>
      </trkpt>
      <trkpt lat="46.37048" lon="-0.47801">
        <ele>44.220177</ele>
        <time>2014-01-09T15:42:23Z</time>
      </trkpt>
      <trkpt lat="46.37049" lon="-0.47792">
        <ele>43.978844</ele>
        <time>2014-01-09T15:42:28Z</time>
      </trkpt>
      <trkpt lat="46.37049" lon="-0.47785">
        <ele>43.978844</ele>
        <time>2014-01-09T15:42:33Z</time>
      </trkpt>
      <trkpt lat="46.3705" lon="-0.47777">
        <ele>43.839054</ele>
        <time>2014-01-09T15:42:38Z</time>
      </trkpt>
      <trkpt lat="46.37049" lon="-0.47769">
        <ele>43.839054</ele>
        <time>2014-01-09T15:42:43Z</time>
      </trkpt>
      <trkpt lat="46.37049" lon="-0.47762">
        <ele>43.79341</ele>
        <time>2014-01-09T15:42:48Z</time>
      </trkpt>
      <trkpt lat="46.3705" lon="-0.47754">
        <ele>43.79341</ele>
        <time>2014-01-09T15:42:53Z</time>
      </trkpt>
      <trkpt lat="46.3705" lon="-0.47746">
        <ele>43.705074</ele>
        <time>2014-01-09T15:42:58Z</time>
      </trkpt>
      <trkpt lat="46.37051" lon="-0.47739">
        <ele>43.705074</ele>
        <time>2014-01-09T15:43:03Z</time>
      </trkpt>
      <trkpt lat="46.37052" lon="-0.4773">
        <ele>43.591488</ele>
        <time>2014-01-09T15:43:08Z</time>
      </trkpt>
      <trkpt lat="46.37052" lon="-0.47722">
        <ele>43.591488</ele>
        <time>2014-01-09T15:43:13Z</time>
      </trkpt>
      <trkpt lat="46.37053" lon="-0.47714">
        <ele>43.396824</ele>
        <time>2014-01-09T15:43:18Z</time>
      </trkpt>
      <trkpt lat="46.37054" lon="-0.47706">
        <ele>43.396824</ele>
        <time>2014-01-09T15:43:23Z</time>
      </trkpt>
      <trkpt lat="46.37055" lon="-0.47698">
        <ele>43.01192</ele>
        <time>2014-01-09T15:43:28Z</time>
      </trkpt>
      <trkpt lat="46.37056" lon="-0.4769">
        <ele>43.01192</ele>
        <time>2014-01-09T15:43:33Z</time>
      </trkpt>
      <trkpt lat="46.37057" lon="-0.47682">
        <ele>42.682034</ele>
        <time>2014-01-09T15:43:38Z</time>
      </trkpt>
      <trkpt lat="46.37058" lon="-0.47675">
        <ele>42.682034</ele>
        <time>2014-01-09T15:43:43Z</time>
      </trkpt>
      <trkpt lat="46.37057" lon="-0.47666">
        <ele>42.230732</ele>
        <time>2014-01-09T15:43:48Z</time>
      </trkpt>
      <trkpt lat="46.3706" lon="-0.47659">
        <ele>42.230732</ele>
        <time>2014-01-09T15:43:53Z</time>
      </trkpt>
      <trkpt lat="46.37057" lon="-0.4765">
        <ele>41.797497</ele>
        <time>2014-01-09T15:43:58Z</time>
      </trkpt>
      <trkpt lat="46.37057" lon="-0.47644">
        <ele>41.797497</ele>
        <time>2014-01-09T15:44:03Z</time>
      </trkpt>
      <trkpt lat="46.37058" lon="-0.47635">
        <ele>41.280937</ele>
        <time>2014-01-09T15:44:08Z</time>
      </trkpt>
      <trkpt lat="46.37058" lon="-0.47627">
        <ele>41.280937</ele>
        <time>2014-01-09T15:44:13Z</time>
      </trkpt>
      <trkpt lat="46.3706" lon="-0.47619">
        <ele>40.861134</ele>
        <time>2014-01-09T15:44:18Z</time>
      </trkpt>
      <trkpt lat="46.37061" lon="-0.47611">
        <ele>40.861134</ele>
        <time>2014-01-09T15:44:23Z</time>
      </trkpt>
      <trkpt lat="46.37063" lon="-0.47603">
        <ele>40.574955</ele>
        <time>2014-01-09T15:44:28Z</time>
      </trkpt>
      <trkpt lat="46.37064" lon="-0.47596">
        <ele>40.574955</ele>
        <time>2014-01-09T15:44:33Z</time>
      </trkpt>
      <trkpt lat="46.37062" lon="-0.47588">
        <ele>40.081474</ele>
        <time>2014-01-09T15:44:38Z</time>
      </trkpt>
      <trkpt lat="46.37064" lon="-0.4758">
        <ele>40.081474</ele>
        <time>2014-01-09T15:44:43Z</time>
      </trkpt>
      <trkpt lat="46.37066" lon="-0.47572">
        <ele>39.771534</ele>
        <time>2014-01-09T15:44:48Z</time>
      </trkpt>
      <trkpt lat="46.37066" lon="-0.47565">
        <ele>39.771534</ele>
        <time>2014-01-09T15:44:53Z</time>
      </trkpt>
      <trkpt lat="46.37065" lon="-0.47556">
        <ele>39.34381</ele>
        <time>2014-01-09T15:44:58Z</time>
      </trkpt>
      <trkpt lat="46.37066" lon="-0.47549">
        <ele>39.34381</ele>
        <time>2014-01-09T15:45:03Z</time>
      </trkpt>
      <trkpt lat="46.37065" lon="-0.47542">
        <ele>39.06705</ele>
        <time>2014-01-09T15:45:08Z</time>
      </trkpt>
      <trkpt lat="46.37065" lon="-0.47535">
        <ele>39.06705</ele>
        <time>2014-01-09T15:45:13Z</time>
      </trkpt>
      <trkpt lat="46.37064" lon="-0.47529">
        <ele>38.584557</ele>
        <time>2014-01-09T15:45:18Z</time>
      </trkpt>
      <trkpt lat="46.37069" lon="-0.47526">
        <ele>38.584557</ele>
        <time>2014-01-09T15:45:23Z</time>
      </trkpt>
      <trkpt lat="46.37068" lon="-0.47526">
        <ele>38.584557</ele>
        <time>2014-01-09T15:45:28Z</time>
      </trkpt>
      <trkpt lat="46.37068" lon="-0.47524">
        <ele>38.584557</ele>
        <time>2014-01-09T15:45:33Z</time>
      </trkpt>
      <trkpt lat="46.37068" lon="-0.47522">
        <ele>38.21489</ele>
        <time>2014-01-09T15:45:38Z</time>
      </trkpt>
      <trkpt lat="46.3707" lon="-0.4752">
        <ele>38.21489</ele>
        <time>2014-01-09T15:45:43Z</time>
      </trkpt>
      <trkpt lat="46.37074" lon="-0.47516">
        <ele>38.21489</ele>
        <time>2014-01-09T15:45:48Z</time>
      </trkpt>
      <trkpt lat="46.37075" lon="-0.47509">
        <ele>37.589962</ele>
        <time>2014-01-09T15:45:53Z</time>
      </trkpt>
      <trkpt lat="46.37078" lon="-0.47506">
        <ele>37.589962</ele>
        <time>2014-01-09T15:45:58Z</time>
      </trkpt>
      <trkpt lat="46.37078" lon="-0.47506">
        <ele>37.589962</ele>
        <time>2014-01-09T15:46:03Z</time>
      </trkpt>
      <trkpt lat="46.37077" lon="-0.47506">
        <ele>37.589962</ele>
        <time>2014-01-09T15:46:08Z</time>
      </trkpt>
      <trkpt lat="46.37076" lon="-0.47506">
        <ele>37.589962</ele>
        <time>2014-01-09T15:46:13Z</time>
      </trkpt>
      <trkpt lat="46.37083" lon="-0.47506">
        <ele>36.744114</ele>
        <time>2014-01-09T15:46:18Z</time>
      </trkpt>
      <trkpt lat="46.37088" lon="-0.475">
        <ele>36.744114</ele>
        <time>2014-01-09T15:46:23Z</time>
      </trkpt>
      <trkpt lat="46.37093" lon="-0.47494">
        <ele>35.954742</ele>
        <time>2014-01-09T15:46:28Z</time>
      </trkpt>
      <trkpt lat="46.37096" lon="-0.4749">
        <ele>35.954742</ele>
        <time>2014-01-09T15:46:33Z</time>
      </trkpt>
      <trkpt lat="46.37101" lon="-0.47485">
        <ele>35.161648</ele>
        <time>2014-01-09T15:46:38Z</time>
      </trkpt>
      <trkpt lat="46.37104" lon="-0.47478">
        <ele>35.161648</ele>
        <time>2014-01-09T15:46:43Z</time>
      </trkpt>
      <trkpt lat="46.3711" lon="-0.47472">
        <ele>34.438732</ele>
        <time>2014-01-09T15:46:48Z</time>
      </trkpt>
      <trkpt lat="46.37113" lon="-0.47466">
        <ele>34.438732</ele>
        <time>2014-01-09T15:46:53Z</time>
      </trkpt>
      <trkpt lat="46.37116" lon="-0.47461">
        <ele>33.911884</ele>
        <time>2014-01-09T15:46:58Z</time>
      </trkpt>
      <trkpt lat="46.3712" lon="-0.47455">
        <ele>33.911884</ele>
        <time>2014-01-09T15:47:03Z</time>
      </trkpt>
      <trkpt lat="46.37124" lon="-0.47451">
        <ele>33.30807</ele>
        <time>2014-01-09T15:47:08Z</time>
      </trkpt>
      <trkpt lat="46.37126" lon="-0.47445">
        <ele>33.30807</ele>
        <time>2014-01-09T15:47:13Z</time>
      </trkpt>
      <trkpt lat="46.3713" lon="-0.4744">
        <ele>32.46096</ele>
        <time>2014-01-09T15:47:18Z</time>
      </trkpt>
      <trkpt lat="46.37131" lon="-0.47434">
        <ele>32.46096</ele>
        <time>2014-01-09T15:47:23Z</time>
      </trkpt>
      <trkpt lat="46.37132" lon="-0.47429">
        <ele>32.46096</ele>
        <time>2014-01-09T15:47:28Z</time>
      </trkpt>
      <trkpt lat="46.37131" lon="-0.47424">
        <ele>31.83677</ele>
        <time>2014-01-09T15:47:33Z</time>
      </trkpt>
      <trkpt lat="46.3713" lon="-0.47419">
        <ele>31.83677</ele>
        <time>2014-01-09T15:47:38Z</time>
      </trkpt>
      <trkpt lat="46.37126" lon="-0.47412">
        <ele>31.290361</ele>
        <time>2014-01-09T15:47:43Z</time>
      </trkpt>
      <trkpt lat="46.37124" lon="-0.47407">
        <ele>31.290361</ele>
        <time>2014-01-09T15:47:48Z</time>
      </trkpt>
      <trkpt lat="46.3712" lon="-0.47404">
        <ele>31.290361</ele>
        <time>2014-01-09T15:47:53Z</time>
      </trkpt>
      <trkpt lat="46.37116" lon="-0.47397">
        <ele>31.061699</ele>
        <time>2014-01-09T15:47:58Z</time>
      </trkpt>
      <trkpt lat="46.37114" lon="-0.47391">
        <ele>31.061699</ele>
        <time>2014-01-09T15:48:03Z</time>
      </trkpt>
      <trkpt lat="46.37111" lon="-0.47385">
        <ele>30.824574</ele>
        <time>2014-01-09T15:48:08Z</time>
      </trkpt>
      <trkpt lat="46.37108" lon="-0.4738">
        <ele>30.824574</ele>
        <time>2014-01-09T15:48:13Z</time>
      </trkpt>
      <trkpt lat="46.37105" lon="-0.47374">
        <ele>30.550537</ele>
        <time>2014-01-09T15:48:18Z</time>
      </trkpt>
      <trkpt lat="46.37104" lon="-0.47369">
        <ele>30.550537</ele>
        <time>2014-01-09T15:48:23Z</time>
      </trkpt>
      <trkpt lat="46.37102" lon="-0.47362">
        <ele>30.550537</ele>
        <time>2014-01-09T15:48:28Z</time>
      </trkpt>
      <trkpt lat="46.371" lon="-0.47359">
        <ele>30.443893</ele>
        <time>2014-01-09T15:48:33Z</time>
      </trkpt>
      <trkpt lat="46.37097" lon="-0.47355">
        <ele>30.443893</ele>
        <time>2014-01-09T15:48:38Z</time>
      </trkpt>
      <trkpt lat="46.37094" lon="-0.47346">
        <ele>30.650206</ele>
        <time>2014-01-09T15:48:43Z</time>
      </trkpt>
      <trkpt lat="46.37091" lon="-0.47341">
        <ele>30.650206</ele>
        <time>2014-01-09T15:48:48Z</time>
      </trkpt>
      <trkpt lat="46.37089" lon="-0.47335">
        <ele>30.568481</ele>
        <time>2014-01-09T15:48:53Z</time>
      </trkpt>
      <trkpt lat="46.37088" lon="-0.47328">
        <ele>30.568481</ele>
        <time>2014-01-09T15:48:58Z</time>
      </trkpt>
      <trkpt lat="46.37086" lon="-0.47322">
        <ele>30.795555</ele>
        <time>2014-01-09T15:49:03Z</time>
      </trkpt>
      <trkpt lat="46.37085" lon="-0.47314">
        <ele>30.795555</ele>
        <time>2014-01-09T15:49:08Z</time>
      </trkpt>
      <trkpt lat="46.37086" lon="-0.47308">
        <ele>30.874765</ele>
        <time>2014-01-09T15:49:13Z</time>
      </trkpt>
      <trkpt lat="46.37083" lon="-0.47301">
        <ele>30.874765</ele>
        <time>2014-01-09T15:49:18Z</time>
      </trkpt>
      <trkpt lat="46.37081" lon="-0.47292">
        <ele>30.541927</ele>
        <time>2014-01-09T15:49:23Z</time>
      </trkpt>
      <trkpt lat="46.37078" lon="-0.47287">
        <ele>30.541927</ele>
        <time>2014-01-09T15:49:28Z</time>
      </trkpt>
      <trkpt lat="46.37075" lon="-0.47285">
        <ele>30.541927</ele>
        <time>2014-01-09T15:49:33Z</time>
      </trkpt>
      <trkpt lat="46.37074" lon="-0.47284">
        <ele>29.985746</ele>
        <time>2014-01-09T15:49:38Z</time>
      </trkpt>
      <trkpt lat="46.37074" lon="-0.47283">
        <ele>29.985746</ele>
        <time>2014-01-09T15:49:43Z</time>
      </trkpt>
      <trkpt lat="46.37074" lon="-0.47279">
        <ele>29.985746</ele>
        <time>2014-01-09T15:49:58Z</time>
      </trkpt>
      <trkpt lat="46.37073" lon="-0.47273">
        <ele>29.985746</ele>
        <time>2014-01-09T15:50:03Z</time>
      </trkpt>
      <trkpt lat="46.37072" lon="-0.47266">
        <ele>29.554626</ele>
        <time>2014-01-09T15:50:08Z</time>
      </trkpt>
      <trkpt lat="46.3707" lon="-0.47258">
        <ele>29.554626</ele>
        <time>2014-01-09T15:50:13Z</time>
      </trkpt>
      <trkpt lat="46.37068" lon="-0.47251">
        <ele>29.225155</ele>
        <time>2014-01-09T15:50:18Z</time>
      </trkpt>
      <trkpt lat="46.37067" lon="-0.47244">
        <ele>29.225155</ele>
        <time>2014-01-09T15:50:23Z</time>
      </trkpt>
      <trkpt lat="46.37065" lon="-0.47236">
        <ele>28.975351</ele>
        <time>2014-01-09T15:50:28Z</time>
      </trkpt>
      <trkpt lat="46.37062" lon="-0.4723">
        <ele>28.975351</ele>
        <time>2014-01-09T15:50:33Z</time>
      </trkpt>
      <trkpt lat="46.37061" lon="-0.47222">
        <ele>28.554049</ele>
        <time>2014-01-09T15:50:38Z</time>
      </trkpt>
      <trkpt lat="46.37058" lon="-0.47218">
        <ele>28.554049</ele>
        <time>2014-01-09T15:50:43Z</time>
      </trkpt>
      <trkpt lat="46.37054" lon="-0.47218">
        <ele>28.554049</ele>
        <time>2014-01-09T15:50:48Z</time>
      </trkpt>
      <trkpt lat="46.37049" lon="-0.4722">
        <ele>27.801064</ele>
        <time>2014-01-09T15:50:53Z</time>
      </trkpt>
      <trkpt lat="46.37043" lon="-0.47219">
        <ele>27.801064</ele>
        <time>2014-01-09T15:50:58Z</time>
      </trkpt>
      <trkpt lat="46.37037" lon="-0.47217">
        <ele>27.145351</ele>
        <time>2014-01-09T15:51:03Z</time>
      </trkpt>
      <trkpt lat="46.37033" lon="-0.47212">
        <ele>27.145351</ele>
        <time>2014-01-09T15:51:08Z</time>
      </trkpt>
      <trkpt lat="46.37029" lon="-0.47206">
        <ele>26.522924</ele>
        <time>2014-01-09T15:51:13Z</time>
      </trkpt>
      <trkpt lat="46.37024" lon="-0.47197">
        <ele>26.522924</ele>
        <time>2014-01-09T15:51:18Z</time>
      </trkpt>
      <trkpt lat="46.37023" lon="-0.4719">
        <ele>26.277906</ele>
        <time>2014-01-09T15:51:23Z</time>
      </trkpt>
      <trkpt lat="46.37021" lon="-0.47182">
        <ele>26.277906</ele>
        <time>2014-01-09T15:51:28Z</time>
      </trkpt>
      <trkpt lat="46.37019" lon="-0.47174">
        <ele>25.935465</ele>
        <time>2014-01-09T15:51:33Z</time>
      </trkpt>
      <trkpt lat="46.37018" lon="-0.47169">
        <ele>25.935465</ele>
        <time>2014-01-09T15:51:38Z</time>
      </trkpt>
      <trkpt lat="46.37016" lon="-0.47162">
        <ele>25.935465</ele>
        <time>2014-01-09T15:51:43Z</time>
      </trkpt>
      <trkpt lat="46.37014" lon="-0.47154">
        <ele>25.776472</ele>
        <time>2014-01-09T15:51:48Z</time>
      </trkpt>
      <trkpt lat="46.37012" lon="-0.47147">
        <ele>25.776472</ele>
        <time>2014-01-09T15:51:53Z</time>
      </trkpt>
      <trkpt lat="46.37011" lon="-0.47142">
        <ele>25.776472</ele>
        <time>2014-01-09T15:51:58Z</time>
      </trkpt>
      <trkpt lat="46.37009" lon="-0.47134">
        <ele>25.84448</ele>
        <time>2014-01-09T15:52:03Z</time>
      </trkpt>
      <trkpt lat="46.37007" lon="-0.47126">
        <ele>25.84448</ele>
        <time>2014-01-09T15:52:08Z</time>
      </trkpt>
      <trkpt lat="46.37005" lon="-0.47118">
        <ele>26.006271</ele>
        <time>2014-01-09T15:52:13Z</time>
      </trkpt>
      <trkpt lat="46.37003" lon="-0.47111">
        <ele>26.006271</ele>
        <time>2014-01-09T15:52:18Z</time>
      </trkpt>
      <trkpt lat="46.37001" lon="-0.47102">
        <ele>26.39755</ele>
        <time>2014-01-09T15:52:23Z</time>
      </trkpt>
      <trkpt lat="46.36999" lon="-0.47095">
        <ele>26.39755</ele>
        <time>2014-01-09T15:52:28Z</time>
      </trkpt>
      <trkpt lat="46.36995" lon="-0.47088">
        <ele>26.840784</ele>
        <time>2014-01-09T15:52:33Z</time>
      </trkpt>
      <trkpt lat="46.36993" lon="-0.4708">
        <ele>26.840784</ele>
        <time>2014-01-09T15:52:38Z</time>
      </trkpt>
      <trkpt lat="46.36991" lon="-0.47073">
        <ele>27.200167</ele>
        <time>2014-01-09T15:52:43Z</time>
      </trkpt>
      <trkpt lat="46.36988" lon="-0.47067">
        <ele>27.200167</ele>
        <time>2014-01-09T15:52:48Z</time>
      </trkpt>
      <trkpt lat="46.36986" lon="-0.4706">
        <ele>27.436586</ele>
        <time>2014-01-09T15:52:53Z</time>
      </trkpt>
      <trkpt lat="46.36984" lon="-0.47053">
        <ele>27.436586</ele>
        <time>2014-01-09T15:52:58Z</time>
      </trkpt>
      <trkpt lat="46.36983" lon="-0.47047">
        <ele>27.86004</ele>
        <time>2014-01-09T15:53:03Z</time>
      </trkpt>
      <trkpt lat="46.36981" lon="-0.4704">
        <ele>27.86004</ele>
        <time>2014-01-09T15:53:08Z</time>
      </trkpt>
      <trkpt lat="46.3698" lon="-0.47032">
        <ele>28.368155</ele>
        <time>2014-01-09T15:53:13Z</time>
      </trkpt>
      <trkpt lat="46.36978" lon="-0.47025">
        <ele>28.368155</ele>
        <time>2014-01-09T15:53:18Z</time>
      </trkpt>
      <trkpt lat="46.36976" lon="-0.47018">
        <ele>28.93792</ele>
        <time>2014-01-09T15:53:23Z</time>
      </trkpt>
      <trkpt lat="46.36974" lon="-0.47009">
        <ele>28.93792</ele>
        <time>2014-01-09T15:53:28Z</time>
      </trkpt>
      <trkpt lat="46.36972" lon="-0.47001">
        <ele>29.475828</ele>
        <time>2014-01-09T15:53:33Z</time>
      </trkpt>
      <trkpt lat="46.3697" lon="-0.46994">
        <ele>29.475828</ele>
        <time>2014-01-09T15:53:38Z</time>
      </trkpt>
      <trkpt lat="46.36968" lon="-0.46986">
        <ele>29.909779</ele>
        <time>2014-01-09T15:53:43Z</time>
      </trkpt>
      <trkpt lat="46.36964" lon="-0.46983">
        <ele>29.909779</ele>
        <time>2014-01-09T15:53:48Z</time>
      </trkpt>
      <trkpt lat="46.36961" lon="-0.46986">
        <ele>29.909779</ele>
        <time>2014-01-09T15:53:53Z</time>
      </trkpt>
      <trkpt lat="46.36957" lon="-0.4699">
        <ele>29.697735</ele>
        <time>2014-01-09T15:53:58Z</time>
      </trkpt>
      <trkpt lat="46.36954" lon="-0.46997">
        <ele>29.697735</ele>
        <time>2014-01-09T15:54:03Z</time>
      </trkpt>
      <trkpt lat="46.36949" lon="-0.47003">
        <ele>29.47781</ele>
        <time>2014-01-09T15:54:08Z</time>
      </trkpt>
      <trkpt lat="46.36945" lon="-0.47008">
        <ele>29.47781</ele>
        <time>2014-01-09T15:54:13Z</time>
      </trkpt>
      <trkpt lat="46.36941" lon="-0.47013">
        <ele>29.20722</ele>
        <time>2014-01-09T15:54:18Z</time>
      </trkpt>
      <trkpt lat="46.36937" lon="-0.47018">
        <ele>29.20722</ele>
        <time>2014-01-09T15:54:23Z</time>
      </trkpt>
      <trkpt lat="46.36933" lon="-0.47022">
        <ele>29.077084</ele>
        <time>2014-01-09T15:54:28Z</time>
      </trkpt>
      <trkpt lat="46.36928" lon="-0.47027">
        <ele>29.077084</ele>
        <time>2014-01-09T15:54:33Z</time>
      </trkpt>
      <trkpt lat="46.36923" lon="-0.4703">
        <ele>28.846205</ele>
        <time>2014-01-09T15:54:38Z</time>
      </trkpt>
      <trkpt lat="46.36919" lon="-0.47034">
        <ele>28.846205</ele>
        <time>2014-01-09T15:54:43Z</time>
      </trkpt>
      <trkpt lat="46.36914" lon="-0.47038">
        <ele>28.493172</ele>
        <time>2014-01-09T15:54:48Z</time>
      </trkpt>
      <trkpt lat="46.36911" lon="-0.47043">
        <ele>28.493172</ele>
        <time>2014-01-09T15:54:53Z</time>
      </trkpt>
      <trkpt lat="46.36906" lon="-0.47047">
        <ele>27.522963</ele>
        <time>2014-01-09T15:54:58Z</time>
      </trkpt>
      <trkpt lat="46.36901" lon="-0.47051">
        <ele>27.522963</ele>
        <time>2014-01-09T15:55:03Z</time>
      </trkpt>
      <trkpt lat="46.36896" lon="-0.47057">
        <ele>26.804491</ele>
        <time>2014-01-09T15:55:08Z</time>
      </trkpt>
      <trkpt lat="46.36892" lon="-0.47061">
        <ele>26.804491</ele>
        <time>2014-01-09T15:55:13Z</time>
      </trkpt>
      <trkpt lat="46.36888" lon="-0.47065">
        <ele>26.205442</ele>
        <time>2014-01-09T15:55:18Z</time>
      </trkpt>
      <trkpt lat="46.36883" lon="-0.47068">
        <ele>26.205442</ele>
        <time>2014-01-09T15:55:23Z</time>
      </trkpt>
      <trkpt lat="46.36879" lon="-0.47072">
        <ele>26.035229</ele>
        <time>2014-01-09T15:55:28Z</time>
      </trkpt>
      <trkpt lat="46.36875" lon="-0.47076">
        <ele>26.035229</ele>
        <time>2014-01-09T15:55:33Z</time>
      </trkpt>
      <trkpt lat="46.3687" lon="-0.4708">
        <ele>25.757915</ele>
        <time>2014-01-09T15:55:38Z</time>
      </trkpt>
      <trkpt lat="46.36866" lon="-0.47085">
        <ele>25.757915</ele>
        <time>2014-01-09T15:55:43Z</time>
      </trkpt>
      <trkpt lat="46.36861" lon="-0.47088">
        <ele>25.669853</ele>
        <time>2014-01-09T15:55:48Z</time>
      </trkpt>
      <trkpt lat="46.36856" lon="-0.47089">
        <ele>25.669853</ele>
        <time>2014-01-09T15:55:53Z</time>
      </trkpt>
      <trkpt lat="46.36853" lon="-0.47094">
        <ele>25.526302</ele>
        <time>2014-01-09T15:55:58Z</time>
      </trkpt>
      <trkpt lat="46.36849" lon="-0.47099">
        <ele>25.526302</ele>
        <time>2014-01-09T15:56:03Z</time>
      </trkpt>
      <trkpt lat="46.36844" lon="-0.47103">
        <ele>25.403301</ele>
        <time>2014-01-09T15:56:08Z</time>
      </trkpt>
      <trkpt lat="46.3684" lon="-0.47106">
        <ele>25.403301</ele>
        <time>2014-01-09T15:56:13Z</time>
      </trkpt>
      <trkpt lat="46.36837" lon="-0.47111">
        <ele>25.47213</ele>
        <time>2014-01-09T15:56:18Z</time>
      </trkpt>
      <trkpt lat="46.36833" lon="-0.47114">
        <ele>25.47213</ele>
        <time>2014-01-09T15:56:23Z</time>
      </trkpt>
      <trkpt lat="46.36828" lon="-0.47118">
        <ele>25.141573</ele>
        <time>2014-01-09T15:56:28Z</time>
      </trkpt>
      <trkpt lat="46.36824" lon="-0.47122">
        <ele>25.141573</ele>
        <time>2014-01-09T15:56:33Z</time>
      </trkpt>
      <trkpt lat="46.36821" lon="-0.47126">
        <ele>24.902578</ele>
        <time>2014-01-09T15:56:38Z</time>
      </trkpt>
      <trkpt lat="46.36821" lon="-0.47127">
        <ele>24.902578</ele>
        <time>2014-01-09T15:56:43Z</time>
      </trkpt>
      <trkpt lat="46.36816" lon="-0.47132">
        <ele>24.902578</ele>
        <time>2014-01-09T15:56:48Z</time>
      </trkpt>
      <trkpt lat="46.36811" lon="-0.47137">
        <ele>24.849504</ele>
        <time>2014-01-09T15:56:53Z</time>
      </trkpt>
      <trkpt lat="46.36807" lon="-0.47139">
        <ele>24.849504</ele>
        <time>2014-01-09T15:56:58Z</time>
      </trkpt>
      <trkpt lat="46.36802" lon="-0.47144">
        <ele>25.069256</ele>
        <time>2014-01-09T15:57:03Z</time>
      </trkpt>
      <trkpt lat="46.36797" lon="-0.47146">
        <ele>25.069256</ele>
        <time>2014-01-09T15:57:08Z</time>
      </trkpt>
      <trkpt lat="46.36796" lon="-0.47148">
        <ele>25.069256</ele>
        <time>2014-01-09T15:57:13Z</time>
      </trkpt>
      <trkpt lat="46.36794" lon="-0.47148">
        <ele>25.069256</ele>
        <time>2014-01-09T15:57:18Z</time>
      </trkpt>
      <trkpt lat="46.36789" lon="-0.47152">
        <ele>25.281322</ele>
        <time>2014-01-09T15:57:23Z</time>
      </trkpt>
      <trkpt lat="46.36784" lon="-0.47155">
        <ele>25.281322</ele>
        <time>2014-01-09T15:57:28Z</time>
      </trkpt>
      <trkpt lat="46.36779" lon="-0.47159">
        <ele>25.470823</ele>
        <time>2014-01-09T15:57:33Z</time>
      </trkpt>
      <trkpt lat="46.36774" lon="-0.47161">
        <ele>25.470823</ele>
        <time>2014-01-09T15:57:38Z</time>
      </trkpt>
      <trkpt lat="46.36768" lon="-0.47164">
        <ele>25.941082</ele>
        <time>2014-01-09T15:57:43Z</time>
      </trkpt>
      <trkpt lat="46.36763" lon="-0.47167">
        <ele>25.941082</ele>
        <time>2014-01-09T15:57:48Z</time>
      </trkpt>
      <trkpt lat="46.36758" lon="-0.47169">
        <ele>26.467985</ele>
        <time>2014-01-09T15:57:53Z</time>
      </trkpt>
      <trkpt lat="46.36752" lon="-0.47172">
        <ele>26.467985</ele>
        <time>2014-01-09T15:57:58Z</time>
      </trkpt>
      <trkpt lat="46.36748" lon="-0.47175">
        <ele>27.031084</ele>
        <time>2014-01-09T15:58:03Z</time>
      </trkpt>
      <trkpt lat="46.36743" lon="-0.47177">
        <ele>27.031084</ele>
        <time>2014-01-09T15:58:08Z</time>
      </trkpt>
      <trkpt lat="46.36738" lon="-0.4718">
        <ele>27.755463</ele>
        <time>2014-01-09T15:58:13Z</time>
      </trkpt>
      <trkpt lat="46.36733" lon="-0.47183">
        <ele>27.755463</ele>
        <time>2014-01-09T15:58:18Z</time>
      </trkpt>
      <trkpt lat="46.36728" lon="-0.47184">
        <ele>28.626896</ele>
        <time>2014-01-09T15:58:23Z</time>
      </trkpt>
      <trkpt lat="46.36722" lon="-0.47186">
        <ele>28.626896</ele>
        <time>2014-01-09T15:58:28Z</time>
      </trkpt>
      <trkpt lat="46.36719" lon="-0.47189">
        <ele>29.617405</ele>
        <time>2014-01-09T15:58:33Z</time>
      </trkpt>
      <trkpt lat="46.36715" lon="-0.47193">
        <ele>29.617405</ele>
        <time>2014-01-09T15:58:38Z</time>
      </trkpt>
      <trkpt lat="46.3671" lon="-0.47195">
        <ele>30.36932</ele>
        <time>2014-01-09T15:58:43Z</time>
      </trkpt>
      <trkpt lat="46.36705" lon="-0.47196">
        <ele>30.36932</ele>
        <time>2014-01-09T15:58:48Z</time>
      </trkpt>
      <trkpt lat="46.367" lon="-0.47198">
        <ele>31.258099</ele>
        <time>2014-01-09T15:58:53Z</time>
      </trkpt>
      <trkpt lat="46.36695" lon="-0.472">
        <ele>31.258099</ele>
        <time>2014-01-09T15:58:58Z</time>
      </trkpt>
      <trkpt lat="46.3669" lon="-0.47204">
        <ele>32.05484</ele>
        <time>2014-01-09T15:59:03Z</time>
      </trkpt>
      <trkpt lat="46.36685" lon="-0.47207">
        <ele>32.05484</ele>
        <time>2014-01-09T15:59:08Z</time>
      </trkpt>
      <trkpt lat="46.3668" lon="-0.4721">
        <ele>32.893635</ele>
        <time>2014-01-09T15:59:13Z</time>
      </trkpt>
      <trkpt lat="46.36675" lon="-0.47212">
        <ele>32.893635</ele>
        <time>2014-01-09T15:59:18Z</time>
      </trkpt>
      <trkpt lat="46.3667" lon="-0.47214">
        <ele>33.682487</ele>
        <time>2014-01-09T15:59:23Z</time>
      </trkpt>
      <trkpt lat="46.36666" lon="-0.47218">
        <ele>33.682487</ele>
        <time>2014-01-09T15:59:28Z</time>
      </trkpt>
      <trkpt lat="46.36661" lon="-0.4722">
        <ele>34.451653</ele>
        <time>2014-01-09T15:59:33Z</time>
      </trkpt>
      <trkpt lat="46.36656" lon="-0.47222">
        <ele>34.451653</ele>
        <time>2014-01-09T15:59:38Z</time>
      </trkpt>
      <trkpt lat="46.36652" lon="-0.47224">
        <ele>35.1284</ele>
        <time>2014-01-09T15:59:43Z</time>
      </trkpt>
      <trkpt lat="46.36647" lon="-0.47226">
        <ele>35.1284</ele>
        <time>2014-01-09T15:59:48Z</time>
      </trkpt>
      <trkpt lat="46.36642" lon="-0.47228">
        <ele>35.515965</ele>
        <time>2014-01-09T15:59:53Z</time>
      </trkpt>
      <trkpt lat="46.36637" lon="-0.47229">
        <ele>35.515965</ele>
        <time>2014-01-09T15:59:58Z</time>
      </trkpt>
      <trkpt lat="46.36633" lon="-0.47232">
        <ele>35.735535</ele>
        <time>2014-01-09T16:00:03Z</time>
      </trkpt>
      <trkpt lat="46.36628" lon="-0.47233">
        <ele>35.735535</ele>
        <time>2014-01-09T16:00:08Z</time>
      </trkpt>
      <trkpt lat="46.36624" lon="-0.47236">
        <ele>35.727</ele>
        <time>2014-01-09T16:00:13Z</time>
      </trkpt>
      <trkpt lat="46.3662" lon="-0.47239">
        <ele>35.727</ele>
        <time>2014-01-09T16:00:18Z</time>
      </trkpt>
      <trkpt lat="46.36616" lon="-0.47243">
        <ele>35.727</ele>
        <time>2014-01-09T16:00:23Z</time>
      </trkpt>
      <trkpt lat="46.36612" lon="-0.47244">
        <ele>35.968575</ele>
        <time>2014-01-09T16:00:28Z</time>
      </trkpt>
      <trkpt lat="46.36607" lon="-0.47247">
        <ele>35.968575</ele>
        <time>2014-01-09T16:00:33Z</time>
      </trkpt>
      <trkpt lat="46.36603" lon="-0.47249">
        <ele>36.182137</ele>
        <time>2014-01-09T16:00:38Z</time>
      </trkpt>
      <trkpt lat="46.36597" lon="-0.47252">
        <ele>36.182137</ele>
        <time>2014-01-09T16:00:43Z</time>
      </trkpt>
      <trkpt lat="46.36593" lon="-0.47255">
        <ele>36.41275</ele>
        <time>2014-01-09T16:00:48Z</time>
      </trkpt>
      <trkpt lat="46.36588" lon="-0.47259">
        <ele>36.41275</ele>
        <time>2014-01-09T16:00:53Z</time>
      </trkpt>
      <trkpt lat="46.36584" lon="-0.47262">
        <ele>36.572483</ele>
        <time>2014-01-09T16:00:58Z</time>
      </trkpt>
      <trkpt lat="46.3658" lon="-0.47266">
        <ele>36.572483</ele>
        <time>2014-01-09T16:01:03Z</time>
      </trkpt>
      <trkpt lat="46.36575" lon="-0.47269">
        <ele>36.81067</ele>
        <time>2014-01-09T16:01:08Z</time>
      </trkpt>
      <trkpt lat="46.36571" lon="-0.47272">
        <ele>36.81067</ele>
        <time>2014-01-09T16:01:13Z</time>
      </trkpt>
      <trkpt lat="46.36567" lon="-0.47274">
        <ele>36.81067</ele>
        <time>2014-01-09T16:01:18Z</time>
      </trkpt>
      <trkpt lat="46.36563" lon="-0.47278">
        <ele>36.833164</ele>
        <time>2014-01-09T16:01:23Z</time>
      </trkpt>
      <trkpt lat="46.36558" lon="-0.4728">
        <ele>36.833164</ele>
        <time>2014-01-09T16:01:28Z</time>
      </trkpt>
      <trkpt lat="46.36553" lon="-0.47284">
        <ele>36.95893</ele>
        <time>2014-01-09T16:01:33Z</time>
      </trkpt>
      <trkpt lat="46.36549" lon="-0.47286">
        <ele>36.95893</ele>
        <time>2014-01-09T16:01:38Z</time>
      </trkpt>
      <trkpt lat="46.36545" lon="-0.4729">
        <ele>36.95893</ele>
        <time>2014-01-09T16:01:43Z</time>
      </trkpt>
      <trkpt lat="46.36542" lon="-0.47294">
        <ele>37.166195</ele>
        <time>2014-01-09T16:01:48Z</time>
      </trkpt>
      <trkpt lat="46.36536" lon="-0.47294">
        <ele>37.166195</ele>
        <time>2014-01-09T16:01:53Z</time>
      </trkpt>
      <trkpt lat="46.36532" lon="-0.47296">
        <ele>37.146366</ele>
        <time>2014-01-09T16:01:58Z</time>
      </trkpt>
      <trkpt lat="46.36527" lon="-0.473">
        <ele>37.146366</ele>
        <time>2014-01-09T16:02:03Z</time>
      </trkpt>
      <trkpt lat="46.36522" lon="-0.473">
        <ele>37.55091</ele>
        <time>2014-01-09T16:02:08Z</time>
      </trkpt>
      <trkpt lat="46.36519" lon="-0.47303">
        <ele>37.55091</ele>
        <time>2014-01-09T16:02:13Z</time>
      </trkpt>
      <trkpt lat="46.36515" lon="-0.47304">
        <ele>37.55091</ele>
        <time>2014-01-09T16:02:18Z</time>
      </trkpt>
      <trkpt lat="46.36511" lon="-0.47306">
        <ele>37.915844</ele>
        <time>2014-01-09T16:02:23Z</time>
      </trkpt>
      <trkpt lat="46.36508" lon="-0.47308">
        <ele>37.915844</ele>
        <time>2014-01-09T16:02:28Z</time>
      </trkpt>
      <trkpt lat="46.36506" lon="-0.47309">
        <ele>37.915844</ele>
        <time>2014-01-09T16:02:33Z</time>
      </trkpt>
      <trkpt lat="46.36502" lon="-0.47312">
        <ele>38.171688</ele>
        <time>2014-01-09T16:02:38Z</time>
      </trkpt>
      <trkpt lat="46.36499" lon="-0.47313">
        <ele>38.171688</ele>
        <time>2014-01-09T16:02:43Z</time>
      </trkpt>
      <trkpt lat="46.36498" lon="-0.47314">
        <ele>38.171688</ele>
        <time>2014-01-09T16:02:48Z</time>
      </trkpt>
      <trkpt lat="46.3649" lon="-0.4732">
        <ele>38.84524</ele>
        <time>2014-01-09T16:02:53Z</time>
      </trkpt>
      <trkpt lat="46.36485" lon="-0.47323">
        <ele>38.84524</ele>
        <time>2014-01-09T16:02:58Z</time>
      </trkpt>
      <trkpt lat="46.3648" lon="-0.47327">
        <ele>39.60203</ele>
        <time>2014-01-09T16:03:03Z</time>
      </trkpt>
      <trkpt lat="46.36477" lon="-0.47331">
        <ele>39.60203</ele>
        <time>2014-01-09T16:03:08Z</time>
      </trkpt>
      <trkpt lat="46.36471" lon="-0.47333">
        <ele>40.564274</ele>
        <time>2014-01-09T16:03:13Z</time>
      </trkpt>
      <trkpt lat="46.36467" lon="-0.47337">
        <ele>40.564274</ele>
        <time>2014-01-09T16:03:18Z</time>
      </trkpt>
      <trkpt lat="46.36463" lon="-0.4734">
        <ele>41.36909</ele>
        <time>2014-01-09T16:03:23Z</time>
      </trkpt>
      <trkpt lat="46.36458" lon="-0.47342">
        <ele>41.36909</ele>
        <time>2014-01-09T16:03:28Z</time>
      </trkpt>
      <trkpt lat="46.36454" lon="-0.47344">
        <ele>42.026596</ele>
        <time>2014-01-09T16:03:33Z</time>
      </trkpt>
      <trkpt lat="46.36449" lon="-0.47347">
        <ele>42.026596</ele>
        <time>2014-01-09T16:03:38Z</time>
      </trkpt>
      <trkpt lat="46.36446" lon="-0.47352">
        <ele>42.38808</ele>
        <time>2014-01-09T16:03:43Z</time>
      </trkpt>
      <trkpt lat="46.36441" lon="-0.47354">
        <ele>42.38808</ele>
        <time>2014-01-09T16:03:48Z</time>
      </trkpt>
      <trkpt lat="46.36436" lon="-0.47355">
        <ele>43.123646</ele>
        <time>2014-01-09T16:03:53Z</time>
      </trkpt>
      <trkpt lat="46.36432" lon="-0.47358">
        <ele>43.123646</ele>
        <time>2014-01-09T16:03:58Z</time>
      </trkpt>
      <trkpt lat="46.36427" lon="-0.4736">
        <ele>43.95966</ele>
        <time>2014-01-09T16:04:03Z</time>
      </trkpt>
      <trkpt lat="46.36423" lon="-0.4736">
        <ele>43.95966</ele>
        <time>2014-01-09T16:04:08Z</time>
      </trkpt>
      <trkpt lat="46.36418" lon="-0.47363">
        <ele>44.16677</ele>
        <time>2014-01-09T16:04:13Z</time>
      </trkpt>
      <trkpt lat="46.36414" lon="-0.47366">
        <ele>44.16677</ele>
        <time>2014-01-09T16:04:18Z</time>
      </trkpt>
      <trkpt lat="46.3641" lon="-0.47369">
        <ele>44.45447</ele>
        <time>2014-01-09T16:04:23Z</time>
      </trkpt>
      <trkpt lat="46.36404" lon="-0.4737">
        <ele>44.45447</ele>
        <time>2014-01-09T16:04:28Z</time>
      </trkpt>
      <trkpt lat="46.36399" lon="-0.47375">
        <ele>44.341457</ele>
        <time>2014-01-09T16:04:33Z</time>
      </trkpt>
      <trkpt lat="46.36395" lon="-0.47376">
        <ele>44.341457</ele>
        <time>2014-01-09T16:04:38Z</time>
      </trkpt>
      <trkpt lat="46.3639" lon="-0.4738">
        <ele>44.506992</ele>
        <time>2014-01-09T16:04:43Z</time>
      </trkpt>
      <trkpt lat="46.36385" lon="-0.47383">
        <ele>44.506992</ele>
        <time>2014-01-09T16:04:48Z</time>
      </trkpt>
      <trkpt lat="46.3638" lon="-0.47385">
        <ele>44.282684</ele>
        <time>2014-01-09T16:04:53Z</time>
      </trkpt>
      <trkpt lat="46.36376" lon="-0.47389">
        <ele>44.282684</ele>
        <time>2014-01-09T16:04:58Z</time>
      </trkpt>
      <trkpt lat="46.36372" lon="-0.47391">
        <ele>44.16001</ele>
        <time>2014-01-09T16:05:03Z</time>
      </trkpt>
      <trkpt lat="46.36367" lon="-0.47395">
        <ele>44.16001</ele>
        <time>2014-01-09T16:05:08Z</time>
      </trkpt>
      <trkpt lat="46.36362" lon="-0.47397">
        <ele>44.363487</ele>
        <time>2014-01-09T16:05:13Z</time>
      </trkpt>
      <trkpt lat="46.36357" lon="-0.47401">
        <ele>44.363487</ele>
        <time>2014-01-09T16:05:18Z</time>
      </trkpt>
      <trkpt lat="46.36352" lon="-0.47402">
        <ele>44.39409</ele>
        <time>2014-01-09T16:05:23Z</time>
      </trkpt>
      <trkpt lat="46.36347" lon="-0.47403">
        <ele>44.39409</ele>
        <time>2014-01-09T16:05:28Z</time>
      </trkpt>
      <trkpt lat="46.36342" lon="-0.47404">
        <ele>44.351967</ele>
        <time>2014-01-09T16:05:33Z</time>
      </trkpt>
      <trkpt lat="46.36337" lon="-0.47406">
        <ele>44.351967</ele>
        <time>2014-01-09T16:05:38Z</time>
      </trkpt>
      <trkpt lat="46.36333" lon="-0.47408">
        <ele>44.877747</ele>
        <time>2014-01-09T16:05:43Z</time>
      </trkpt>
      <trkpt lat="46.36328" lon="-0.47413">
        <ele>44.877747</ele>
        <time>2014-01-09T16:05:48Z</time>
      </trkpt>
      <trkpt lat="46.36324" lon="-0.47413">
        <ele>45.251987</ele>
        <time>2014-01-09T16:05:53Z</time>
      </trkpt>
      <trkpt lat="46.36318" lon="-0.47415">
        <ele>45.251987</ele>
        <time>2014-01-09T16:05:58Z</time>
      </trkpt>
      <trkpt lat="46.36313" lon="-0.47419">
        <ele>45.312904</ele>
        <time>2014-01-09T16:06:03Z</time>
      </trkpt>
      <trkpt lat="46.36308" lon="-0.4742">
        <ele>45.312904</ele>
        <time>2014-01-09T16:06:08Z</time>
      </trkpt>
      <trkpt lat="46.36303" lon="-0.4742">
        <ele>45.300583</ele>
        <time>2014-01-09T16:06:13Z</time>
      </trkpt>
      <trkpt lat="46.363" lon="-0.47424">
        <ele>45.300583</ele>
        <time>2014-01-09T16:06:18Z</time>
      </trkpt>
      <trkpt lat="46.36294" lon="-0.47426">
        <ele>45.423256</ele>
        <time>2014-01-09T16:06:23Z</time>
      </trkpt>
      <trkpt lat="46.36289" lon="-0.47429">
        <ele>45.423256</ele>
        <time>2014-01-09T16:06:28Z</time>
      </trkpt>
      <trkpt lat="46.36285" lon="-0.47432">
        <ele>45.74377</ele>
        <time>2014-01-09T16:06:33Z</time>
      </trkpt>
      <trkpt lat="46.36279" lon="-0.47434">
        <ele>45.74377</ele>
        <time>2014-01-09T16:06:38Z</time>
      </trkpt>
      <trkpt lat="46.36273" lon="-0.47436">
        <ele>46.161278</ele>
        <time>2014-01-09T16:06:43Z</time>
      </trkpt>
      <trkpt lat="46.36267" lon="-0.4744">
        <ele>46.161278</ele>
        <time>2014-01-09T16:06:48Z</time>
      </trkpt>
      <trkpt lat="46.36263" lon="-0.47441">
        <ele>46.192963</ele>
        <time>2014-01-09T16:06:53Z</time>
      </trkpt>
      <trkpt lat="46.36257" lon="-0.47444">
        <ele>46.192963</ele>
        <time>2014-01-09T16:06:58Z</time>
      </trkpt>
      <trkpt lat="46.36254" lon="-0.47445">
        <ele>46.041035</ele>
        <time>2014-01-09T16:07:03Z</time>
      </trkpt>
      <trkpt lat="46.36249" lon="-0.47447">
        <ele>46.041035</ele>
        <time>2014-01-09T16:07:08Z</time>
      </trkpt>
      <trkpt lat="46.36244" lon="-0.47449">
        <ele>45.878952</ele>
        <time>2014-01-09T16:07:13Z</time>
      </trkpt>
      <trkpt lat="46.3624" lon="-0.47451">
        <ele>45.878952</ele>
        <time>2014-01-09T16:07:18Z</time>
      </trkpt>
      <trkpt lat="46.36235" lon="-0.47453">
        <ele>45.334236</ele>
        <time>2014-01-09T16:07:23Z</time>
      </trkpt>
      <trkpt lat="46.3623" lon="-0.47454">
        <ele>45.334236</ele>
        <time>2014-01-09T16:07:28Z</time>
      </trkpt>
      <trkpt lat="46.36225" lon="-0.47454">
        <ele>44.941895</ele>
        <time>2014-01-09T16:07:33Z</time>
      </trkpt>
      <trkpt lat="46.3622" lon="-0.47454">
        <ele>44.941895</ele>
        <time>2014-01-09T16:07:38Z</time>
      </trkpt>
      <trkpt lat="46.36216" lon="-0.4745">
        <ele>44.246056</ele>
        <time>2014-01-09T16:07:43Z</time>
      </trkpt>
      <trkpt lat="46.36215" lon="-0.47448">
        <ele>44.246056</ele>
        <time>2014-01-09T16:07:48Z</time>
      </trkpt>
      <trkpt lat="46.36213" lon="-0.47447">
        <ele>44.246056</ele>
        <time>2014-01-09T16:07:53Z</time>
      </trkpt>
      <trkpt lat="46.36208" lon="-0.47445">
        <ele>44.246056</ele>
        <time>2014-01-09T16:07:58Z</time>
      </trkpt>
      <trkpt lat="46.36202" lon="-0.47444">
        <ele>43.329548</ele>
        <time>2014-01-09T16:08:03Z</time>
      </trkpt>
      <trkpt lat="46.36198" lon="-0.47441">
        <ele>43.329548</ele>
        <time>2014-01-09T16:08:08Z</time>
      </trkpt>
      <trkpt lat="46.36192" lon="-0.47439">
        <ele>42.298515</ele>
        <time>2014-01-09T16:08:13Z</time>
      </trkpt>
      <trkpt lat="46.36186" lon="-0.47437">
        <ele>42.298515</ele>
        <time>2014-01-09T16:08:18Z</time>
      </trkpt>
      <trkpt lat="46.36183" lon="-0.47436">
        <ele>41.323647</ele>
        <time>2014-01-09T16:08:23Z</time>
      </trkpt>
      <trkpt lat="46.3618" lon="-0.47437">
        <ele>41.323647</ele>
        <time>2014-01-09T16:08:28Z</time>
      </trkpt>
      <trkpt lat="46.36175" lon="-0.47436">
        <ele>41.323647</ele>
        <time>2014-01-09T16:08:33Z</time>
      </trkpt>
      <trkpt lat="46.36171" lon="-0.47439">
        <ele>39.856735</ele>
        <time>2014-01-09T16:08:38Z</time>
      </trkpt>
      <trkpt lat="46.36165" lon="-0.47441">
        <ele>39.856735</ele>
        <time>2014-01-09T16:08:43Z</time>
      </trkpt>
      <trkpt lat="46.3616" lon="-0.4744">
        <ele>38.50082</ele>
        <time>2014-01-09T16:08:48Z</time>
      </trkpt>
      <trkpt lat="46.36157" lon="-0.4744">
        <ele>38.50082</ele>
        <time>2014-01-09T16:08:53Z</time>
      </trkpt>
      <trkpt lat="46.36154" lon="-0.47441">
        <ele>38.50082</ele>
        <time>2014-01-09T16:08:58Z</time>
      </trkpt>
      <trkpt lat="46.36151" lon="-0.47443">
        <ele>37.324287</ele>
        <time>2014-01-09T16:09:03Z</time>
      </trkpt>
      <trkpt lat="46.36147" lon="-0.47447">
        <ele>37.324287</ele>
        <time>2014-01-09T16:09:08Z</time>
      </trkpt>
      <trkpt lat="46.36145" lon="-0.47449">
        <ele>37.324287</ele>
        <time>2014-01-09T16:09:13Z</time>
      </trkpt>
      <trkpt lat="46.36143" lon="-0.47454">
        <ele>36.260223</ele>
        <time>2014-01-09T16:09:18Z</time>
      </trkpt>
      <trkpt lat="46.36139" lon="-0.47454">
        <ele>36.260223</ele>
        <time>2014-01-09T16:09:23Z</time>
      </trkpt>
      <trkpt lat="46.36136" lon="-0.47458">
        <ele>36.260223</ele>
        <time>2014-01-09T16:09:28Z</time>
      </trkpt>
      <trkpt lat="46.36131" lon="-0.47463">
        <ele>34.79949</ele>
        <time>2014-01-09T16:09:33Z</time>
      </trkpt>
      <trkpt lat="46.36126" lon="-0.47466">
        <ele>34.79949</ele>
        <time>2014-01-09T16:09:38Z</time>
      </trkpt>
      <trkpt lat="46.36122" lon="-0.47471">
        <ele>33.696316</ele>
        <time>2014-01-09T16:09:43Z</time>
      </trkpt>
      <trkpt lat="46.36119" lon="-0.47476">
        <ele>33.696316</ele>
        <time>2014-01-09T16:09:48Z</time>
      </trkpt>
      <trkpt lat="46.36118" lon="-0.47483">
        <ele>32.942287</ele>
        <time>2014-01-09T16:09:53Z</time>
      </trkpt>
      <trkpt lat="46.36115" lon="-0.4749">
        <ele>32.942287</ele>
        <time>2014-01-09T16:09:58Z</time>
      </trkpt>
      <trkpt lat="46.36116" lon="-0.47494">
        <ele>32.942287</ele>
        <time>2014-01-09T16:10:03Z</time>
      </trkpt>
      <trkpt lat="46.36114" lon="-0.47506">
        <ele>32.398834</ele>
        <time>2014-01-09T16:10:08Z</time>
      </trkpt>
      <trkpt lat="46.36112" lon="-0.47513">
        <ele>32.398834</ele>
        <time>2014-01-09T16:10:13Z</time>
      </trkpt>
      <trkpt lat="46.36111" lon="-0.47519">
        <ele>32.26834</ele>
        <time>2014-01-09T16:10:18Z</time>
      </trkpt>
      <trkpt lat="46.36109" lon="-0.47527">
        <ele>32.26834</ele>
        <time>2014-01-09T16:10:23Z</time>
      </trkpt>
      <trkpt lat="46.36107" lon="-0.47535">
        <ele>32.0021</ele>
        <time>2014-01-09T16:10:28Z</time>
      </trkpt>
      <trkpt lat="46.36105" lon="-0.47539">
        <ele>32.0021</ele>
        <time>2014-01-09T16:10:33Z</time>
      </trkpt>
      <trkpt lat="46.36104" lon="-0.47546">
        <ele>32.0021</ele>
        <time>2014-01-09T16:10:38Z</time>
      </trkpt>
      <trkpt lat="46.36104" lon="-0.47553">
        <ele>32.158436</ele>
        <time>2014-01-09T16:10:43Z</time>
      </trkpt>
      <trkpt lat="46.36104" lon="-0.47557">
        <ele>32.158436</ele>
        <time>2014-01-09T16:10:48Z</time>
      </trkpt>
      <trkpt lat="46.36105" lon="-0.47555">
        <ele>32.158436</ele>
        <time>2014-01-09T16:10:53Z</time>
      </trkpt>
      <trkpt lat="46.36103" lon="-0.47561">
        <ele>32.158436</ele>
        <time>2014-01-09T16:10:58Z</time>
      </trkpt>
      <trkpt lat="46.36101" lon="-0.47569">
        <ele>32.17255</ele>
        <time>2014-01-09T16:11:03Z</time>
      </trkpt>
      <trkpt lat="46.36096" lon="-0.47576">
        <ele>32.17255</ele>
        <time>2014-01-09T16:11:08Z</time>
      </trkpt>
      <trkpt lat="46.36094" lon="-0.47585">
        <ele>31.752033</ele>
        <time>2014-01-09T16:11:13Z</time>
      </trkpt>
      <trkpt lat="46.36093" lon="-0.47594">
        <ele>31.752033</ele>
        <time>2014-01-09T16:11:18Z</time>
      </trkpt>
      <trkpt lat="46.36091" lon="-0.476">
        <ele>31.088264</ele>
        <time>2014-01-09T16:11:23Z</time>
      </trkpt>
      <trkpt lat="46.36089" lon="-0.47607">
        <ele>31.088264</ele>
        <time>2014-01-09T16:11:28Z</time>
      </trkpt>
      <trkpt lat="46.36086" lon="-0.47614">
        <ele>30.315939</ele>
        <time>2014-01-09T16:11:33Z</time>
      </trkpt>
      <trkpt lat="46.36085" lon="-0.4762">
        <ele>30.315939</ele>
        <time>2014-01-09T16:11:38Z</time>
      </trkpt>
      <trkpt lat="46.36082" lon="-0.47624">
        <ele>30.315939</ele>
        <time>2014-01-09T16:11:43Z</time>
      </trkpt>
      <trkpt lat="46.36079" lon="-0.47629">
        <ele>29.44481</ele>
        <time>2014-01-09T16:11:48Z</time>
      </trkpt>
      <trkpt lat="46.36077" lon="-0.47636">
        <ele>29.44481</ele>
        <time>2014-01-09T16:11:53Z</time>
      </trkpt>
      <trkpt lat="46.36074" lon="-0.47645">
        <ele>28.772346</ele>
        <time>2014-01-09T16:11:58Z</time>
      </trkpt>
      <trkpt lat="46.36072" lon="-0.4765">
        <ele>28.772346</ele>
        <time>2014-01-09T16:12:03Z</time>
      </trkpt>
      <trkpt lat="46.36071" lon="-0.47656">
        <ele>28.772346</ele>
        <time>2014-01-09T16:12:08Z</time>
      </trkpt>
      <trkpt lat="46.36068" lon="-0.47661">
        <ele>27.809748</ele>
        <time>2014-01-09T16:12:13Z</time>
      </trkpt>
      <trkpt lat="46.36066" lon="-0.47668">
        <ele>27.809748</ele>
        <time>2014-01-09T16:12:18Z</time>
      </trkpt>
      <trkpt lat="46.36066" lon="-0.47677">
        <ele>27.618038</ele>
        <time>2014-01-09T16:12:23Z</time>
      </trkpt>
      <trkpt lat="46.36065" lon="-0.47684">
        <ele>27.618038</ele>
        <time>2014-01-09T16:12:28Z</time>
      </trkpt>
      <trkpt lat="46.36059" lon="-0.4769">
        <ele>27.290216</ele>
        <time>2014-01-09T16:12:33Z</time>
      </trkpt>
      <trkpt lat="46.36055" lon="-0.47695">
        <ele>27.290216</ele>
        <time>2014-01-09T16:12:38Z</time>
      </trkpt>
      <trkpt lat="46.36049" lon="-0.47699">
        <ele>27.470573</ele>
        <time>2014-01-09T16:12:43Z</time>
      </trkpt>
      <trkpt lat="46.36044" lon="-0.47701">
        <ele>27.470573</ele>
        <time>2014-01-09T16:12:48Z</time>
      </trkpt>
      <trkpt lat="46.3604" lon="-0.47705">
        <ele>27.918743</ele>
        <time>2014-01-09T16:12:53Z</time>
      </trkpt>
      <trkpt lat="46.36039" lon="-0.47706">
        <ele>27.918743</ele>
        <time>2014-01-09T16:12:58Z</time>
      </trkpt>
      <trkpt lat="46.3604" lon="-0.47707">
        <ele>27.918743</ele>
        <time>2014-01-09T16:13:03Z</time>
      </trkpt>
      <trkpt lat="46.36041" lon="-0.47709">
        <ele>27.918743</ele>
        <time>2014-01-09T16:13:08Z</time>
      </trkpt>
      <trkpt lat="46.36041" lon="-0.4771">
        <ele>27.918743</ele>
        <time>2014-01-09T16:13:13Z</time>
      </trkpt>
      <trkpt lat="46.36038" lon="-0.47715">
        <ele>27.918743</ele>
        <time>2014-01-09T16:13:18Z</time>
      </trkpt>
      <trkpt lat="46.36037" lon="-0.47722">
        <ele>28.209465</ele>
        <time>2014-01-09T16:13:23Z</time>
      </trkpt>
      <trkpt lat="46.36037" lon="-0.47729">
        <ele>28.209465</ele>
        <time>2014-01-09T16:13:28Z</time>
      </trkpt>
      <trkpt lat="46.36039" lon="-0.47735">
        <ele>28.813786</ele>
        <time>2014-01-09T16:13:33Z</time>
      </trkpt>
      <trkpt lat="46.36041" lon="-0.47744">
        <ele>28.813786</ele>
        <time>2014-01-09T16:13:38Z</time>
      </trkpt>
      <trkpt lat="46.36042" lon="-0.47753">
        <ele>29.80696</ele>
        <time>2014-01-09T16:13:43Z</time>
      </trkpt>
      <trkpt lat="46.36042" lon="-0.47762">
        <ele>29.80696</ele>
        <time>2014-01-09T16:13:48Z</time>
      </trkpt>
      <trkpt lat="46.36043" lon="-0.4777">
        <ele>30.392933</ele>
        <time>2014-01-09T16:13:53Z</time>
      </trkpt>
      <trkpt lat="46.36045" lon="-0.47778">
        <ele>30.392933</ele>
        <time>2014-01-09T16:13:58Z</time>
      </trkpt>
      <trkpt lat="46.36043" lon="-0.47784">
        <ele>31.146679</ele>
        <time>2014-01-09T16:14:03Z</time>
      </trkpt>
      <trkpt lat="46.36038" lon="-0.47788">
        <ele>31.146679</ele>
        <time>2014-01-09T16:14:08Z</time>
      </trkpt>
      <trkpt lat="46.36032" lon="-0.4779">
        <ele>31.807844</ele>
        <time>2014-01-09T16:14:13Z</time>
      </trkpt>
      <trkpt lat="46.36027" lon="-0.4779">
        <ele>31.807844</ele>
        <time>2014-01-09T16:14:18Z</time>
      </trkpt>
      <trkpt lat="46.3602" lon="-0.47793">
        <ele>32.293995</ele>
        <time>2014-01-09T16:14:23Z</time>
      </trkpt>
      <trkpt lat="46.36015" lon="-0.47794">
        <ele>32.293995</ele>
        <time>2014-01-09T16:14:28Z</time>
      </trkpt>
      <trkpt lat="46.3601" lon="-0.47796">
        <ele>32.658962</ele>
        <time>2014-01-09T16:14:33Z</time>
      </trkpt>
      <trkpt lat="46.36004" lon="-0.47797">
        <ele>32.658962</ele>
        <time>2014-01-09T16:14:38Z</time>
      </trkpt>
      <trkpt lat="46.35999" lon="-0.47799">
        <ele>33.082672</ele>
        <time>2014-01-09T16:14:43Z</time>
      </trkpt>
      <trkpt lat="46.35994" lon="-0.47799">
        <ele>33.082672</ele>
        <time>2014-01-09T16:14:48Z</time>
      </trkpt>
      <trkpt lat="46.35989" lon="-0.478">
        <ele>33.847</ele>
        <time>2014-01-09T16:14:53Z</time>
      </trkpt>
      <trkpt lat="46.35984" lon="-0.47801">
        <ele>33.847</ele>
        <time>2014-01-09T16:14:58Z</time>
      </trkpt>
      <trkpt lat="46.35979" lon="-0.47803">
        <ele>34.895138</ele>
        <time>2014-01-09T16:15:03Z</time>
      </trkpt>
      <trkpt lat="46.35975" lon="-0.47805">
        <ele>34.895138</ele>
        <time>2014-01-09T16:15:08Z</time>
      </trkpt>
      <trkpt lat="46.35971" lon="-0.47807">
        <ele>34.895138</ele>
        <time>2014-01-09T16:15:13Z</time>
      </trkpt>
      <trkpt lat="46.35968" lon="-0.47809">
        <ele>36.0584</ele>
        <time>2014-01-09T16:15:18Z</time>
      </trkpt>
      <trkpt lat="46.35962" lon="-0.47811">
        <ele>36.0584</ele>
        <time>2014-01-09T16:15:23Z</time>
      </trkpt>
      <trkpt lat="46.35957" lon="-0.47811">
        <ele>37.136997</ele>
        <time>2014-01-09T16:15:28Z</time>
      </trkpt>
      <trkpt lat="46.35952" lon="-0.47811">
        <ele>37.136997</ele>
        <time>2014-01-09T16:15:33Z</time>
      </trkpt>
      <trkpt lat="46.35946" lon="-0.47811">
        <ele>38.07579</ele>
        <time>2014-01-09T16:15:38Z</time>
      </trkpt>
      <trkpt lat="46.35942" lon="-0.47814">
        <ele>38.07579</ele>
        <time>2014-01-09T16:15:43Z</time>
      </trkpt>
      <trkpt lat="46.35939" lon="-0.47818">
        <ele>38.07579</ele>
        <time>2014-01-09T16:15:48Z</time>
      </trkpt>
      <trkpt lat="46.35936" lon="-0.47823">
        <ele>38.89621</ele>
        <time>2014-01-09T16:15:53Z</time>
      </trkpt>
      <trkpt lat="46.35932" lon="-0.47829">
        <ele>38.89621</ele>
        <time>2014-01-09T16:15:58Z</time>
      </trkpt>
      <trkpt lat="46.35929" lon="-0.47834">
        <ele>39.402336</ele>
        <time>2014-01-09T16:16:03Z</time>
      </trkpt>
      <trkpt lat="46.35926" lon="-0.47838">
        <ele>39.402336</ele>
        <time>2014-01-09T16:16:08Z</time>
      </trkpt>
      <trkpt lat="46.35924" lon="-0.47844">
        <ele>39.402336</ele>
        <time>2014-01-09T16:16:13Z</time>
      </trkpt>
      <trkpt lat="46.35921" lon="-0.47851">
        <ele>40.148563</ele>
        <time>2014-01-09T16:16:18Z</time>
      </trkpt>
      <trkpt lat="46.35917" lon="-0.47857">
        <ele>40.148563</ele>
        <time>2014-01-09T16:16:23Z</time>
      </trkpt>
      <trkpt lat="46.35915" lon="-0.47861">
        <ele>40.595943</ele>
        <time>2014-01-09T16:16:28Z</time>
      </trkpt>
      <trkpt lat="46.35909" lon="-0.47864">
        <ele>40.595943</ele>
        <time>2014-01-09T16:16:33Z</time>
      </trkpt>
      <trkpt lat="46.35903" lon="-0.47866">
        <ele>41.18275</ele>
        <time>2014-01-09T16:16:38Z</time>
      </trkpt>
      <trkpt lat="46.35898" lon="-0.47868">
        <ele>41.18275</ele>
        <time>2014-01-09T16:16:43Z</time>
      </trkpt>
      <trkpt lat="46.35894" lon="-0.4787">
        <ele>42.012115</ele>
        <time>2014-01-09T16:16:48Z</time>
      </trkpt>
      <trkpt lat="46.35889" lon="-0.47871">
        <ele>42.012115</ele>
        <time>2014-01-09T16:16:53Z</time>
      </trkpt>
      <trkpt lat="46.35883" lon="-0.47873">
        <ele>43.02046</ele>
        <time>2014-01-09T16:16:58Z</time>
      </trkpt>
      <trkpt lat="46.35878" lon="-0.47875">
        <ele>43.02046</ele>
        <time>2014-01-09T16:17:03Z</time>
      </trkpt>
      <trkpt lat="46.35873" lon="-0.47876">
        <ele>44.19168</ele>
        <time>2014-01-09T16:17:08Z</time>
      </trkpt>
      <trkpt lat="46.35868" lon="-0.47876">
        <ele>44.19168</ele>
        <time>2014-01-09T16:17:13Z</time>
      </trkpt>
      <trkpt lat="46.35864" lon="-0.47879">
        <ele>45.380787</ele>
        <time>2014-01-09T16:17:18Z</time>
      </trkpt>
      <trkpt lat="46.35858" lon="-0.47879">
        <ele>45.380787</ele>
        <time>2014-01-09T16:17:23Z</time>
      </trkpt>
      <trkpt lat="46.35853" lon="-0.47879">
        <ele>46.525524</ele>
        <time>2014-01-09T16:17:28Z</time>
      </trkpt>
      <trkpt lat="46.35847" lon="-0.47879">
        <ele>46.525524</ele>
        <time>2014-01-09T16:17:33Z</time>
      </trkpt>
      <trkpt lat="46.35843" lon="-0.47882">
        <ele>47.554</ele>
        <time>2014-01-09T16:17:38Z</time>
      </trkpt>
      <trkpt lat="46.35837" lon="-0.47883">
        <ele>47.554</ele>
        <time>2014-01-09T16:17:43Z</time>
      </trkpt>
      <trkpt lat="46.35832" lon="-0.47883">
        <ele>48.299156</ele>
        <time>2014-01-09T16:17:48Z</time>
      </trkpt>
      <trkpt lat="46.35827" lon="-0.47886">
        <ele>48.299156</ele>
        <time>2014-01-09T16:17:53Z</time>
      </trkpt>
      <trkpt lat="46.35821" lon="-0.47886">
        <ele>49.313213</ele>
        <time>2014-01-09T16:17:58Z</time>
      </trkpt>
      <trkpt lat="46.35817" lon="-0.47888">
        <ele>49.313213</ele>
        <time>2014-01-09T16:18:03Z</time>
      </trkpt>
      <trkpt lat="46.35812" lon="-0.47889">
        <ele>50.343388</ele>
        <time>2014-01-09T16:18:08Z</time>
      </trkpt>
      <trkpt lat="46.35805" lon="-0.4789">
        <ele>50.343388</ele>
        <time>2014-01-09T16:18:13Z</time>
      </trkpt>
      <trkpt lat="46.35802" lon="-0.47892">
        <ele>51.616657</ele>
        <time>2014-01-09T16:18:18Z</time>
      </trkpt>
      <trkpt lat="46.35796" lon="-0.47896">
        <ele>51.616657</ele>
        <time>2014-01-09T16:18:23Z</time>
      </trkpt>
      <trkpt lat="46.35791" lon="-0.47897">
        <ele>52.578953</ele>
        <time>2014-01-09T16:18:28Z</time>
      </trkpt>
      <trkpt lat="46.35786" lon="-0.47898">
        <ele>52.578953</ele>
        <time>2014-01-09T16:18:33Z</time>
      </trkpt>
      <trkpt lat="46.3578" lon="-0.47899">
        <ele>53.568115</ele>
        <time>2014-01-09T16:18:38Z</time>
      </trkpt>
      <trkpt lat="46.35776" lon="-0.47902">
        <ele>53.568115</ele>
        <time>2014-01-09T16:18:43Z</time>
      </trkpt>
      <trkpt lat="46.3577" lon="-0.47903">
        <ele>54.46486</ele>
        <time>2014-01-09T16:18:48Z</time>
      </trkpt>
      <trkpt lat="46.35764" lon="-0.47905">
        <ele>54.46486</ele>
        <time>2014-01-09T16:18:53Z</time>
      </trkpt>
      <trkpt lat="46.35759" lon="-0.47906">
        <ele>55.303112</ele>
        <time>2014-01-09T16:18:58Z</time>
      </trkpt>
      <trkpt lat="46.35753" lon="-0.47907">
        <ele>55.303112</ele>
        <time>2014-01-09T16:19:03Z</time>
      </trkpt>
      <trkpt lat="46.35747" lon="-0.47908">
        <ele>55.883995</ele>
        <time>2014-01-09T16:19:08Z</time>
      </trkpt>
      <trkpt lat="46.35742" lon="-0.47911">
        <ele>55.883995</ele>
        <time>2014-01-09T16:19:13Z</time>
      </trkpt>
      <trkpt lat="46.35736" lon="-0.47912">
        <ele>56.13932</ele>
        <time>2014-01-09T16:19:18Z</time>
      </trkpt>
      <trkpt lat="46.35731" lon="-0.47914">
        <ele>56.13932</ele>
        <time>2014-01-09T16:19:23Z</time>
      </trkpt>
      <trkpt lat="46.35726" lon="-0.47915">
        <ele>56.45366</ele>
        <time>2014-01-09T16:19:28Z</time>
      </trkpt>
      <trkpt lat="46.35721" lon="-0.47917">
        <ele>56.45366</ele>
        <time>2014-01-09T16:19:33Z</time>
      </trkpt>
      <trkpt lat="46.35715" lon="-0.47919">
        <ele>56.246506</ele>
        <time>2014-01-09T16:19:38Z</time>
      </trkpt>
      <trkpt lat="46.35711" lon="-0.4792">
        <ele>56.246506</ele>
        <time>2014-01-09T16:19:43Z</time>
      </trkpt>
      <trkpt lat="46.35706" lon="-0.47921">
        <ele>56.350594</ele>
        <time>2014-01-09T16:19:48Z</time>
      </trkpt>
      <trkpt lat="46.35701" lon="-0.47923">
        <ele>56.350594</ele>
        <time>2014-01-09T16:19:53Z</time>
      </trkpt>
      <trkpt lat="46.35696" lon="-0.47922">
        <ele>56.52788</ele>
        <time>2014-01-09T16:19:58Z</time>
      </trkpt>
      <trkpt lat="46.35691" lon="-0.47924">
        <ele>56.52788</ele>
        <time>2014-01-09T16:20:03Z</time>
      </trkpt>
      <trkpt lat="46.35686" lon="-0.47926">
        <ele>56.81707</ele>
        <time>2014-01-09T16:20:08Z</time>
      </trkpt>
      <trkpt lat="46.35682" lon="-0.47928">
        <ele>56.81707</ele>
        <time>2014-01-09T16:20:13Z</time>
      </trkpt>
      <trkpt lat="46.35677" lon="-0.4793">
        <ele>57.224915</ele>
        <time>2014-01-09T16:20:18Z</time>
      </trkpt>
      <trkpt lat="46.35672" lon="-0.47931">
        <ele>57.224915</ele>
        <time>2014-01-09T16:20:23Z</time>
      </trkpt>
      <trkpt lat="46.35667" lon="-0.47932">
        <ele>57.310642</ele>
        <time>2014-01-09T16:20:28Z</time>
      </trkpt>
      <trkpt lat="46.35662" lon="-0.47934">
        <ele>57.310642</ele>
        <time>2014-01-09T16:20:33Z</time>
      </trkpt>
      <trkpt lat="46.35658" lon="-0.47934">
        <ele>57.24324</ele>
        <time>2014-01-09T16:20:38Z</time>
      </trkpt>
      <trkpt lat="46.35653" lon="-0.47935">
        <ele>57.24324</ele>
        <time>2014-01-09T16:20:43Z</time>
      </trkpt>
      <trkpt lat="46.35648" lon="-0.47936">
        <ele>57.093266</ele>
        <time>2014-01-09T16:20:48Z</time>
      </trkpt>
      <trkpt lat="46.35643" lon="-0.47938">
        <ele>57.093266</ele>
        <time>2014-01-09T16:20:53Z</time>
      </trkpt>
      <trkpt lat="46.35639" lon="-0.4794">
        <ele>56.83988</ele>
        <time>2014-01-09T16:20:58Z</time>
      </trkpt>
      <trkpt lat="46.35634" lon="-0.47942">
        <ele>56.83988</ele>
        <time>2014-01-09T16:21:03Z</time>
      </trkpt>
      <trkpt lat="46.35629" lon="-0.47943">
        <ele>56.579384</ele>
        <time>2014-01-09T16:21:08Z</time>
      </trkpt>
      <trkpt lat="46.35624" lon="-0.47947">
        <ele>56.579384</ele>
        <time>2014-01-09T16:21:13Z</time>
      </trkpt>
      <trkpt lat="46.35619" lon="-0.47945">
        <ele>56.573936</ele>
        <time>2014-01-09T16:21:18Z</time>
      </trkpt>
      <trkpt lat="46.35615" lon="-0.47947">
        <ele>56.573936</ele>
        <time>2014-01-09T16:21:23Z</time>
      </trkpt>
      <trkpt lat="46.3561" lon="-0.47948">
        <ele>56.633404</ele>
        <time>2014-01-09T16:21:28Z</time>
      </trkpt>
      <trkpt lat="46.35603" lon="-0.47949">
        <ele>56.633404</ele>
        <time>2014-01-09T16:21:33Z</time>
      </trkpt>
      <trkpt lat="46.356" lon="-0.47954">
        <ele>55.932938</ele>
        <time>2014-01-09T16:21:38Z</time>
      </trkpt>
      <trkpt lat="46.35597" lon="-0.47962">
        <ele>55.932938</ele>
        <time>2014-01-09T16:21:43Z</time>
      </trkpt>
      <trkpt lat="46.35597" lon="-0.47969">
        <ele>55.482952</ele>
        <time>2014-01-09T16:21:48Z</time>
      </trkpt>
      <trkpt lat="46.35595" lon="-0.47976">
        <ele>55.482952</ele>
        <time>2014-01-09T16:21:53Z</time>
      </trkpt>
      <trkpt lat="46.35594" lon="-0.47983">
        <ele>54.89311</ele>
        <time>2014-01-09T16:21:58Z</time>
      </trkpt>
      <trkpt lat="46.35592" lon="-0.47989">
        <ele>54.89311</ele>
        <time>2014-01-09T16:22:03Z</time>
      </trkpt>
      <trkpt lat="46.3559" lon="-0.47996">
        <ele>54.364132</ele>
        <time>2014-01-09T16:22:08Z</time>
      </trkpt>
      <trkpt lat="46.3559" lon="-0.48003">
        <ele>54.364132</ele>
        <time>2014-01-09T16:22:13Z</time>
      </trkpt>
      <trkpt lat="46.35589" lon="-0.48009">
        <ele>54.364132</ele>
        <time>2014-01-09T16:22:18Z</time>
      </trkpt>
      <trkpt lat="46.3559" lon="-0.48014">
        <ele>54.211502</ele>
        <time>2014-01-09T16:22:23Z</time>
      </trkpt>
      <trkpt lat="46.3559" lon="-0.48017">
        <ele>54.211502</ele>
        <time>2014-01-09T16:22:28Z</time>
      </trkpt>
      <trkpt lat="46.3559" lon="-0.48016">
        <ele>54.211502</ele>
        <time>2014-01-09T16:22:48Z</time>
      </trkpt>
      <trkpt lat="46.3559" lon="-0.48016">
        <ele>54.211502</ele>
        <time>2014-01-09T16:22:53Z</time>
      </trkpt>
      <trkpt lat="46.3559" lon="-0.48016">
        <ele>54.211502</ele>
        <time>2014-01-09T16:22:58Z</time>
      </trkpt>
      <trkpt lat="46.35589" lon="-0.48021">
        <ele>54.211502</ele>
        <time>2014-01-09T16:23:03Z</time>
      </trkpt>
      <trkpt lat="46.35588" lon="-0.48023">
        <ele>54.211502</ele>
        <time>2014-01-09T16:23:08Z</time>
      </trkpt>
      <trkpt lat="46.35588" lon="-0.48023">
        <ele>54.625553</ele>
        <time>2014-01-09T16:23:13Z</time>
      </trkpt>
      <trkpt lat="46.35588" lon="-0.48024">
        <ele>54.625553</ele>
        <time>2014-01-09T16:23:18Z</time>
      </trkpt>
    </trkseg>
  </trk>
</gpx>